Date StartTime U_cm/s V_cm/s W_cm/s Ustd_cm/s Vstd_cm/s Wstd_cm/s Uvar_(cm/s)^2 Vvar_(cm/s)^2 Wvar_(cm/s)^2 KE_(m/s)^2 TurbulentKE_(m/s)^2 HorizWindSpeed_cm/s FrictionSpeec_cm/s DragCoef SpeedOfSound_m/s SonicTemperature_C Pressure_mb 
01/30/2014  00:00:00     -270.587      128.974      -23.595      169.820      112.736       80.725    28838.793    12709.480     6516.537        6.923        2.403      299.753       89.502        0.089      334.806        5.018      858.202
01/30/2014  00:01:00     -178.313      160.002      -16.733      148.924      104.251       73.441    22178.401    10868.257     5393.536        4.805        1.922      239.575       54.041        0.051      334.844        5.082      858.187
01/30/2014  00:02:00     -307.774      165.418      -30.505      143.299      137.718       87.660    20534.514    18966.150     7684.309        8.509        2.359      349.411       89.026        0.065      334.839        5.072      858.204
01/30/2014  00:03:00     -316.246       78.203      -31.421      124.329      154.430       68.233    15457.583    23848.681     4655.769        7.553        2.198      325.772       54.216        0.028      334.844        5.081      858.157
01/30/2014  00:04:00     -206.229      -44.921      -26.439      100.141       93.805       59.040    10028.175     8799.471     3485.767        3.378        1.116      211.065       45.507        0.046      334.809        5.024      858.051
01/30/2014  00:05:00     -164.206       40.020      -16.441       92.084       97.908       55.237     8479.482     9585.939     3051.132        2.497        1.056      169.013       49.134        0.085      334.762        4.947      858.020
01/30/2014  00:06:00     -111.166       74.735       -7.910       77.124       79.905       42.302     5948.165     6384.784     1789.425        1.606        0.706      133.952       28.058        0.044      334.807        5.022      858.041
01/30/2014  00:07:00     -191.143      181.546      -28.243      126.797      133.730       67.526    16077.469    17883.719     4559.722        5.440        1.926      263.619       60.713        0.053      334.830        5.059      858.131
01/30/2014  00:08:00     -126.362      159.956      -29.095       87.507      160.321       63.379     7657.505    25702.800     4016.923        3.988        1.869      203.846       58.135        0.081      334.842        5.080      858.174
01/30/2014  00:09:00     -116.483       23.060      -10.496       68.594       41.549       44.517     4705.170     1726.291     1981.784        1.131        0.421      118.743       39.142        0.109      334.853        5.097      858.152
01/30/2014  00:10:00     -221.856       54.001      -30.018       94.025       89.193       56.864     8840.763     7955.361     3233.495        3.653        1.001      228.333       39.011        0.029      334.824        5.050      858.170
01/30/2014  00:11:00     -253.323      134.217      -36.091      160.901      141.284       73.976    25889.128    19961.268     5472.401        6.740        2.566      286.682       78.406        0.075      334.799        5.007      858.207
01/30/2014  00:12:00     -278.783      118.754      -52.984      163.064      160.785       86.431    26589.914    25851.727     7470.394        7.726        2.996      303.023       78.338        0.067      334.790        4.990      858.199
01/30/2014  00:13:00     -291.631      160.824      -55.769      178.751       97.264       51.715    31952.077     9460.248     2674.412        7.905        2.204      333.036       40.310        0.015      334.804        5.014      858.195
01/30/2014  00:14:00     -141.826      147.855      -10.650       76.466      114.583       65.057     5846.975    13129.212     4232.469        3.265        1.160      204.880       63.748        0.097      334.827        5.055      858.166
01/30/2014  00:15:00     -131.306       83.744      -20.877       68.748       68.313       43.879     4726.266     4666.731     1925.362        1.800        0.566      155.738       43.875        0.079      334.838        5.074      858.151
01/30/2014  00:16:00     -156.926      166.950      -53.359      101.917      177.376       62.189    10387.006    31462.093     3867.426        5.052        2.286      229.125       52.489        0.052      334.834        5.065      858.208
01/30/2014  00:17:00     -135.115      173.951      -11.641      125.735      139.076       76.902    15809.334    19342.153     5913.923        4.485        2.053      220.262       70.187        0.102      334.870        5.125      858.204
01/30/2014  00:18:00     -204.404      170.869      -27.850      128.281      141.687       85.670    16455.931    20075.227     7339.316        5.780        2.194      266.416       87.262        0.107      334.893        5.163      858.183
01/30/2014  00:19:00     -267.709      125.412      -31.743      140.697       82.568       62.474    19795.589     6817.453     3903.035        5.945        1.526      295.628       70.899        0.058      334.888        5.154      858.160
01/30/2014  00:20:00     -127.855       58.823       -2.478      105.538       77.267       51.432    11138.338     5970.190     2645.296        1.978        0.988      140.738       43.233        0.094      334.872        5.130      858.190
01/30/2014  00:21:00      -99.039       85.984       -4.834       64.331      102.821       55.006     4138.423    10572.184     3025.628        1.748        0.887      131.156       56.252        0.184      334.866        5.120      858.150
01/30/2014  00:22:00     -130.955       62.238        4.543       87.233       79.599       54.339     7609.567     6336.065     2952.680        1.897        0.845      144.992       51.136        0.124      334.920        5.210      858.120
01/30/2014  00:23:00     -132.893      127.873      -23.015       98.517      111.807       63.173     9705.635    12500.773     3990.766        3.037        1.310      184.424       50.210        0.074      334.968        5.289      858.133
01/30/2014  00:24:00     -260.501       -7.057      -16.315      225.671      178.229       82.873    50927.268    31765.413     6868.003        7.885        4.478      260.597      110.437        0.180      334.992        5.328      858.131
01/30/2014  00:25:00     -215.601      182.901      -41.900      162.719      137.444       76.536    26477.480    18890.852     5857.778        6.645        2.561      282.730       77.091        0.074      335.033        5.397      858.149
01/30/2014  00:26:00     -307.976      257.528      -56.549      206.441      166.978       97.222    42617.716    27881.660     9452.047       12.215        3.998      401.460       91.234        0.052      334.994        5.332      858.195
01/30/2014  00:27:00     -338.921      105.284      -31.385      240.007      143.253      103.633    57603.153    20521.520    10739.887       10.789        4.443      354.898      108.200        0.093      334.918        5.204      858.212
01/30/2014  00:28:00     -189.163      113.634       -5.888      116.055      137.569       70.079    13468.792    18925.161     4911.020        4.301        1.865      220.671       44.305        0.040      334.859        5.106      858.233
01/30/2014  00:29:00     -211.340       77.540      -27.109      169.279      135.245       69.969    28655.359    18291.298     4895.728        5.162        2.592      225.116       87.440        0.151      334.791        4.993      858.300
01/30/2014  00:30:00     -186.473      -19.762        1.236      162.741       75.372       50.551    26484.505     5680.915     2555.374        3.494        1.736      187.518       66.885        0.127      334.750        4.928      858.300
01/30/2014  00:31:00     -273.124      -57.906      -19.292      147.472      102.924       64.871    21747.985    10593.443     4208.209        5.743        1.827      279.195       75.639        0.073      334.682        4.811      858.308
01/30/2014  00:32:00     -235.381      -24.498      -25.397      113.136      108.912       50.479    12799.823    11861.793     2548.080        4.192        1.360      236.652       42.483        0.032      334.608        4.689      858.285
01/30/2014  00:33:00     -227.838      -44.062      -32.259       90.983      113.154       49.765     8277.854    12803.813     2476.573        3.922        1.178      232.060       39.678        0.029      334.622        4.712      858.343
01/30/2014  00:34:00     -289.230      -90.656       -7.983      168.660      124.855       76.301    28446.040    15588.893     5821.836        7.089        2.493      303.105       90.520        0.089      334.606        4.685      858.362
01/30/2014  00:35:00     -304.021      -62.561      -17.470      133.070       86.369       52.509    17707.511     7459.656     2757.212        6.228        1.396      310.391       52.741        0.029      334.603        4.679      858.367
01/30/2014  00:36:00     -245.943      -51.672      -13.216       96.063       83.351       43.781     9228.018     6947.459     1916.802        4.071        0.905      251.312       34.715        0.019      334.622        4.712      858.403
01/30/2014  00:37:00     -201.404      -65.467      -16.551      130.780       66.075       45.211    17103.445     4365.941     2044.039        3.431        1.176      211.777       49.976        0.056      334.603        4.682      858.464
01/30/2014  00:38:00     -130.502       -3.888       -6.328       89.741       57.125       40.524     8053.424     3263.305     1642.200        1.502        0.648      130.560       42.998        0.108      334.576        4.638      858.443
01/30/2014  00:39:00       -9.034       23.695       17.735       50.471       41.953       26.619     2547.317     1760.079      708.571        0.299        0.251       25.359       25.277        0.994      334.608        4.692      858.419
01/30/2014  00:40:00      -23.497        8.125        6.769      101.603       60.435       40.304    10323.107     3652.358     1624.395        0.813        0.780       24.862       42.338        2.900      334.626        4.723      858.448
01/30/2014  00:41:00     -118.754       21.484       -9.687      103.942       97.237       53.239    10804.032     9454.960     2834.378        1.887        1.155      120.682       51.802        0.184      334.607        4.689      858.382
01/30/2014  00:42:00     -134.911        2.806      -28.618       57.869       93.535       39.155     3348.878     8748.805     1533.138        1.633        0.682      134.941       45.216        0.112      334.594        4.669      858.279
01/30/2014  00:43:00     -216.550       27.376      -13.520       54.868       69.709       38.802     3010.465     4859.296     1505.585        2.860        0.469      218.273       24.337        0.012      334.563        4.616      858.269
01/30/2014  00:44:00     -157.937       53.827       -8.468       75.959       67.777       36.685     5769.797     4593.762     1345.790        1.981        0.585      166.858       26.734        0.026      334.560        4.612      858.283
01/30/2014  00:45:00     -121.237      111.686      -27.992       59.752       80.992       44.366     3570.293     6559.736     1968.362        2.003        0.605      164.840       43.605        0.070      334.564        4.618      858.292
01/30/2014  00:46:00      -82.470       -7.162        0.614       75.001       51.677       37.583     5625.198     2670.468     1412.503        0.828        0.485       82.780       34.127        0.170      334.631        4.731      858.261
01/30/2014  00:47:00        0.915      -69.390        2.785       23.362       45.899       26.016      545.805     2106.751      676.820        0.408        0.166       69.396       25.641        0.137      334.588        4.660      858.224
01/30/2014  00:48:00      -29.494       12.374        4.761       24.642       24.909       15.813      607.205      620.434      250.051        0.126        0.074       31.985       12.114        0.143      334.588        4.660      858.225
01/30/2014  00:49:00      -81.044       67.287      -11.460       61.115       66.313       40.476     3735.049     4397.449     1638.275        1.050        0.489      105.336       40.296        0.146      334.543        4.584      858.245
01/30/2014  00:50:00      -74.266       20.553      -10.422       53.743       62.078       34.771     2888.309     3853.643     1208.996        0.700        0.398       77.058       24.628        0.102      334.514        4.536      858.276
01/30/2014  00:51:00      -23.532      -43.192       18.514       81.167       36.559       34.352     6588.007     1336.572     1180.063        0.593        0.455       49.186       40.445        0.676      334.567        4.624      858.284
01/30/2014  00:52:00       -4.093      -33.181       10.327       42.902       34.911       26.061     1840.545     1218.793      679.187        0.248        0.187       33.433       26.502        0.628      334.575        4.638      858.295
01/30/2014  00:53:00     -101.369       -6.112        5.484       64.069       51.460       32.303     4104.888     2648.160     1043.462        0.907        0.390      101.553       29.142        0.082      334.501        4.516      858.262
01/30/2014  00:54:00      -32.020       -8.765        5.581       35.634       33.837       20.470     1269.750     1144.934      419.010        0.198        0.142       33.198       16.788        0.256      334.555        4.604      858.202
01/30/2014  00:55:00     -105.224      -29.701      -13.717       80.579       68.637       36.220     6493.024     4711.009     1311.861        1.233        0.626      109.336       28.645        0.069      334.590        4.661      858.157
01/30/2014  00:56:00     -127.722      -32.580        5.156       53.043       63.342       32.657     2813.544     4012.163     1066.467        1.265        0.395      131.812       23.868        0.033      334.636        4.737      858.132
01/30/2014  00:57:00      -43.980       55.935      -18.016       36.207       41.599       26.131     1310.939     1730.447      682.839        0.456        0.186       71.155       15.768        0.049      334.593        4.668      858.117
01/30/2014  00:58:00      -29.457       65.315       10.812       72.745       45.154       30.096     5291.827     2038.919      905.751        0.674        0.412       71.650       17.856        0.062      334.649        4.762      858.110
01/30/2014  00:59:00      -90.372       19.777       -6.929       63.642       69.335       21.970     4050.284     4807.323      482.691        0.897        0.467       92.511       24.688        0.071      334.693        4.833      858.093
01/30/2014  01:00:00      -46.654      -54.115        6.824       50.889       38.903       21.634     2589.688     1513.412      468.048        0.486        0.229       71.450       20.460        0.082      334.672        4.800      858.065
01/30/2014  01:01:00       -2.656      -23.173       14.449       28.174       35.781       25.914      793.768     1280.270      671.515        0.175        0.137       23.325       12.030        0.266      334.754        4.934      858.017
01/30/2014  01:02:00       13.312       26.476       41.404       26.563       23.524       13.342      705.579      553.368      178.003        0.201        0.072       29.634        8.470        0.082      334.703        4.851      857.996
01/30/2014  01:03:00       21.189       81.032      -13.179       24.267       48.336       15.759      588.901     2336.373      248.338        0.518        0.159       83.757       19.678        0.055      334.606        4.690      858.011
01/30/2014  01:04:00        3.280      145.339      -26.255       32.483       39.587       17.344     1055.142     1567.159      300.826        1.237        0.146      145.376       20.468        0.020      334.675        4.803      858.012
01/30/2014  01:05:00      -57.779      135.622       -4.953       39.172       47.076       29.528     1534.483     2216.151      871.875        1.319        0.231      147.417       24.640        0.028      334.881        5.146      858.014
01/30/2014  01:06:00      -91.079      182.413      -22.962       40.881       53.768       27.117     1671.277     2890.973      735.342        2.370        0.265      203.887       25.555        0.016      334.771        4.960      858.030
01/30/2014  01:07:00      -88.973      124.024      -17.868       61.658       55.684       39.749     3801.691     3100.709     1580.018        1.605        0.424      152.638       29.009        0.036      334.734        4.902      858.046
01/30/2014  01:08:00      -84.386      168.283      -11.273       37.966       60.130       42.238     1441.394     3615.611     1784.047        2.120        0.342      188.255       30.791        0.027      334.793        4.998      858.041
01/30/2014  01:09:00      -79.876      121.771      -18.727       59.581       52.336       31.684     3549.892     2739.085     1003.878        1.442        0.365      145.631       32.461        0.050      334.759        4.942      857.975
01/30/2014  01:10:00       13.660       44.365       11.995       41.823       43.747       27.783     1749.161     1913.816      771.893        0.337        0.222       46.421       26.422        0.324      334.827        5.057      857.903
01/30/2014  01:11:00      -60.242      160.336      -19.114       54.062      132.340       43.685     2922.670    17513.791     1908.360        2.602        1.117      171.280       18.574        0.012      334.797        5.005      857.908
01/30/2014  01:12:00      -57.665      198.810      -23.477       53.092       63.702       42.810     2818.808     4057.922     1832.700        2.605        0.435      207.004       36.420        0.031      334.763        4.947      857.943
01/30/2014  01:13:00      -87.367      138.225      -12.584       26.732       36.589       25.682      714.582     1338.787      659.558        1.480        0.136      163.522       15.717        0.009      334.743        4.917      857.968
01/30/2014  01:14:00      -96.335      106.767      -19.881       34.975       53.851       30.385     1223.269     2899.892      923.260        1.306        0.252      143.804       20.450        0.020      334.761        4.946      857.970
01/30/2014  01:15:00      -43.628      123.855      -13.927       52.219       50.130       33.268     2726.823     2513.017     1106.730        1.189        0.317      131.315       26.309        0.040      334.798        5.007      857.975
01/30/2014  01:16:00      -23.947      171.165      -17.649       74.507       74.314       45.200     5551.338     5522.628     2043.014        2.165        0.656      172.833       40.514        0.055      334.719        4.876      857.992
01/30/2014  01:17:00     -108.380      143.153      -14.488       62.493       84.931       50.201     3905.328     7213.207     2520.176        2.304        0.682      179.552       45.269        0.064      334.739        4.908      858.031
01/30/2014  01:18:00     -140.326      121.501      -34.355       57.156       41.732       31.923     3266.827     1741.556     1019.054        2.083        0.301      185.617       29.164        0.025      334.703        4.847      858.046
01/30/2014  01:19:00      -67.671      123.113      -15.904       58.763       72.821       26.192     3453.112     5302.938      685.997        1.471        0.472      140.486       25.792        0.034      334.640        4.746      858.008
01/30/2014  01:20:00       -8.039      146.641      -18.535       26.016       44.498       24.568      676.819     1980.075      603.580        1.259        0.163      146.861       22.557        0.024      334.611        4.697      857.965
01/30/2014  01:21:00      -20.864      104.908       -8.964       46.703       61.158       25.252     2181.156     3740.250      637.653        0.904        0.328      106.962       20.912        0.038      334.652        4.765      857.930
01/30/2014  01:22:00       26.659       97.809       -8.624       83.437       80.025       53.326     6961.665     6403.937     2843.613        1.328        0.810      101.377       53.100        0.274      334.524        4.551      857.893
01/30/2014  01:23:00     -103.673       83.986      -19.403       68.661       67.463       26.879     4714.329     4551.192      722.504        1.408        0.499      133.423       31.321        0.055      334.589        4.659      857.873
01/30/2014  01:24:00     -113.124        6.542       -6.903       63.722       47.686       26.996     4060.527     2273.978      728.761        0.997        0.353      113.313       31.170        0.076      334.554        4.603      857.879
01/30/2014  01:25:00      -79.263       29.133      -16.876       28.173       30.978       19.383      793.727      959.655      375.706        0.477        0.106       84.447       17.135        0.041      334.525        4.554      857.901
01/30/2014  01:26:00      -64.509        6.299      -11.772       23.753       18.418       19.546      564.225      339.209      382.047        0.281        0.064       64.816       13.576        0.044      334.561        4.613      857.897
01/30/2014  01:27:00      -60.329      -25.962        4.244       59.749       39.551       22.718     3569.905     1564.291      516.115        0.499        0.283       65.678       19.438        0.088      334.602        4.683      857.873
01/30/2014  01:28:00      -57.119      -24.642        4.442       41.906       16.422       15.709     1756.076      269.679      246.778        0.308        0.114       62.208       22.265        0.128      334.600        4.679      857.830
01/30/2014  01:29:00        1.941       17.383       31.320       10.982       17.232        8.143      120.610      296.945       66.313        0.089        0.024       17.491        7.375        0.178      334.702        4.849      857.781
01/30/2014  01:30:00      -36.998      -17.339       16.746       31.747       35.615       20.101     1007.890     1268.439      404.034        0.231        0.134       40.860       26.247        0.413      334.662        4.782      857.762
01/30/2014  01:31:00      -63.431      -34.301       -3.068       39.815       28.991       19.425     1585.222      840.477      377.334        0.401        0.140       72.112       15.207        0.044      334.684        4.820      857.756
01/30/2014  01:32:00      -62.646      -43.187        7.521       44.936       26.392       19.214     2019.276      696.527      369.177        0.447        0.154       76.090       19.720        0.067      334.663        4.784      857.752
01/30/2014  01:33:00      -95.443      -30.759       -2.027       52.070       25.526       20.976     2711.289      651.557      439.996        0.693        0.190      100.277       27.060        0.073      334.660        4.780      857.779
01/30/2014  01:34:00      -93.830      -16.393       -4.589       23.859       23.418       15.880      569.239      548.416      252.161        0.523        0.068       95.251       11.916        0.016      334.607        4.691      857.818
01/30/2014  01:35:00      -89.565      -13.563        1.396       28.158       26.015       18.032      792.845      676.768      325.144        0.500        0.090       90.586       17.959        0.039      334.601        4.682      857.826
01/30/2014  01:36:00      -45.487      -31.000        4.061       28.285       29.167       15.005      800.037      850.695      225.138        0.246        0.094       55.046       14.775        0.072      334.668        4.794      857.798
01/30/2014  01:37:00      -78.869      -29.650        3.729       53.100       33.084       21.983     2819.558     1094.584      483.265        0.575        0.220       84.258       24.659        0.086      334.640        4.746      857.763
01/30/2014  01:38:00     -152.173      -52.997        4.515       66.340       45.684       35.733     4400.963     2087.043     1276.865        1.687        0.388      161.137       37.631        0.055      334.553        4.599      857.747
01/30/2014  01:39:00     -170.145      -77.884        2.622       68.109       67.184       35.310     4638.897     4513.668     1246.786        2.271        0.520      187.124       41.496        0.049      334.531        4.561      857.741
01/30/2014  01:40:00     -191.735      -34.348        2.215       64.590       54.635       38.627     4171.898     2984.963     1492.043        2.330        0.432      194.787       38.818        0.040      334.528        4.556      857.730
01/30/2014  01:41:00     -196.136      -48.409       -6.588      100.228       58.867       41.571    10045.565     3465.295     1728.156        2.805        0.762      202.022       45.371        0.050      334.556        4.604      857.723
01/30/2014  01:42:00     -214.294      -15.501       -5.366       95.165       50.798       33.831     9056.369     2580.394     1144.540        2.948        0.639      214.854       25.343        0.014      334.546        4.586      857.697
01/30/2014  01:43:00     -159.885     -137.831       -0.287      119.250       73.283       50.959    14220.480     5370.420     2596.787        3.337        1.109      211.094       56.562        0.072      334.565        4.618      857.669
01/30/2014  01:44:00     -193.171     -145.408        0.507      101.357       73.477       51.578    10273.334     5398.800     2660.269        3.839        0.917      241.782       52.672        0.047      334.508        4.522      857.664
01/30/2014  01:45:00     -157.493      -78.717        6.881       65.447       78.034       47.185     4283.321     6089.327     2226.389        2.182        0.630      176.069       45.551        0.067      334.489        4.493      857.687
01/30/2014  01:46:00     -115.274     -105.060        0.582       71.331       58.820       40.158     5088.061     3459.796     1612.674        1.724        0.508      155.967       31.382        0.040      334.526        4.555      857.690
01/30/2014  01:47:00     -158.202      -67.583        4.090      107.412       76.179       42.696    11537.299     5803.176     1822.922        2.438        0.958      172.033       56.247        0.107      334.496        4.505      857.693
01/30/2014  01:48:00     -154.050      -67.436      -16.089       46.358       38.892       24.704     2149.096     1512.606      610.299        1.640        0.214      168.164       20.652        0.015      334.438        4.411      857.701
01/30/2014  01:49:00     -144.846       -8.570       -5.464       68.439       58.938       32.592     4683.922     3473.671     1062.262        1.515        0.461      145.100       28.512        0.039      334.413        4.369      857.710
01/30/2014  01:50:00      -69.036      -34.207        7.538       45.349       48.578       27.967     2056.487     2359.844      782.179        0.559        0.260       77.046       15.458        0.040      334.449        4.430      857.696
01/30/2014  01:51:00      -48.763     -106.673       10.855       59.633       65.973       30.489     3556.071     4352.381      929.601        1.135        0.442      117.290       24.943        0.045      334.512        4.532      857.671
01/30/2014  01:52:00     -127.241      -62.086        0.981       82.501       63.191       32.004     6806.458     3993.102     1024.276        1.593        0.591      141.580       37.869        0.072      334.431        4.398      857.653
01/30/2014  01:53:00     -179.868      -53.188       -0.400       80.386       58.628       36.405     6461.940     3437.218     1325.306        2.320        0.561      187.568       34.969        0.035      334.425        4.388      857.665
01/30/2014  01:54:00     -136.111      -66.316       -2.896       58.541       53.189       30.905     3427.052     2829.075      955.111        1.507        0.361      151.407       30.358        0.040      334.369        4.297      857.676
01/30/2014  01:55:00     -133.461      -27.480       -5.676       65.868       47.687       23.728     4338.615     2274.004      563.016        1.289        0.359      136.260       27.701        0.041      334.346        4.258      857.652
01/30/2014  01:56:00     -106.691      -24.534        6.250       96.217       51.998       35.125     9257.719     2703.816     1233.762        1.261        0.660      109.475       40.095        0.134      334.392        4.335      857.622
01/30/2014  01:57:00     -104.855      -66.728        5.070       51.936       45.113       28.220     2697.350     2035.168      796.394        1.050        0.276      124.286       27.941        0.051      334.366        4.292      857.590
01/30/2014  01:58:00     -186.438       51.151       -8.554       72.895       49.697       38.602     5313.670     2469.744     1490.122        2.336        0.464      193.327       39.280        0.041      334.304        4.185      857.545
01/30/2014  01:59:00     -140.015       -8.878       -3.693       55.777       46.915       27.308     3111.046     2201.013      745.706        1.288        0.303      140.297       25.318        0.033      334.285        4.157      857.518
01/30/2014  02:00:00     -127.272      -33.908       -1.977       48.218       38.327       23.905     2325.021     1468.951      571.440        1.086        0.218      131.712       21.728        0.027      334.349        4.264      857.521
01/30/2014  02:01:00     -185.163      -65.788       -5.603       84.113       57.064       31.623     7074.920     3256.333     1000.014        2.499        0.567      196.503       33.410        0.029      334.332        4.233      857.520
01/30/2014  02:02:00     -199.481      -53.985      -14.366       69.855       87.309       34.181     4879.710     7622.786     1168.357        2.829        0.684      206.657       34.590        0.028      334.329        4.228      857.492
01/30/2014  02:03:00     -172.209      -66.810      -16.085       86.055       57.552       37.148     7405.502     3312.237     1380.004        2.324        0.605      184.714       25.935        0.020      334.338        4.241      857.461
01/30/2014  02:04:00     -110.495     -106.300        4.173      101.270       52.939       38.486    10255.548     2802.584     1481.149        1.903        0.727      153.326       41.099        0.072      334.322        4.217      857.455
01/30/2014  02:05:00      -80.494      -25.116        7.680       47.672       58.776       26.846     2272.596     3454.632      720.707        0.681        0.322       84.322       22.809        0.073      334.303        4.187      857.458
01/30/2014  02:06:00     -138.706      -18.661       -8.069       32.881       23.535       19.597     1081.185      553.881      384.029        1.084        0.101      139.956       19.058        0.019      334.260        4.117      857.446
01/30/2014  02:07:00     -152.881      -37.751       -3.041       75.510       43.798       34.164     5701.835     1918.243     1167.194        1.680        0.439      157.472       38.684        0.060      334.252        4.100      857.425
01/30/2014  02:08:00     -159.712        8.193        1.446       69.883       51.054       36.636     4883.660     2606.474     1342.172        1.720        0.442      159.922       38.797        0.059      334.225        4.055      857.394
01/30/2014  02:09:00     -290.231      -78.973      -18.855       62.619       69.186       37.877     3921.200     4786.699     1434.649        5.048        0.507      300.784       28.374        0.009      334.195        4.003      857.361
01/30/2014  02:10:00     -151.822      -32.909        3.660       83.999       61.401       36.340     7055.840     3770.074     1320.620        1.814        0.607      155.348       43.952        0.080      334.225        4.056      857.356
01/30/2014  02:11:00     -202.753       12.594      -15.449       57.473       41.006       28.688     3303.161     1681.521      822.998        2.366        0.290      203.144       28.922        0.020      334.183        3.983      857.371
01/30/2014  02:12:00     -168.433       -3.376      -15.207       52.457       40.815       28.718     2751.685     1665.836      824.739        1.693        0.262      168.466       27.213        0.026      334.186        3.990      857.372
01/30/2014  02:13:00      -94.114        6.306       -2.217       46.685       34.792       22.929     2179.497     1210.457      525.737        0.641        0.196       94.325       25.579        0.074      334.181        3.986      857.364
01/30/2014  02:14:00     -172.929      -51.482      -24.357       63.747       42.164       26.339     4063.641     1777.786      693.746        1.984        0.327      180.430       14.159        0.006      334.190        3.996      857.344
01/30/2014  02:15:00     -205.310      -67.495        0.609       69.882       61.110       36.916     4883.438     3734.480     1362.798        2.834        0.499      216.120       36.613        0.029      334.181        3.980      857.322
01/30/2014  02:16:00     -145.225     -102.749        1.044       84.336       96.261       44.048     7112.632     9266.149     1940.204        2.498        0.916      177.898       51.897        0.085      334.252        4.100      857.296
01/30/2014  02:17:00     -223.983      -28.025       -8.795       76.919       61.405       44.414     5916.589     3770.630     1972.580        3.134        0.583      225.730       45.144        0.040      334.229        4.060      857.267
01/30/2014  02:18:00     -241.963      -23.760      -22.286       60.459       68.388       35.593     3655.242     4676.924     1266.871        3.460        0.480      243.126       28.686        0.014      334.192        3.997      857.261
01/30/2014  02:19:00     -196.931      -38.039       -7.804       98.970       42.298       31.075     9795.088     1789.141      965.643        2.642        0.627      200.572       39.852        0.039      334.183        3.984      857.240
01/30/2014  02:20:00     -122.696       -2.590       -8.356       73.918       36.190       27.695     5463.834     1309.736      767.020        1.133        0.377      122.723       30.204        0.061      334.151        3.934      857.222
01/30/2014  02:21:00     -136.070       -5.554      -14.720       38.363       31.636       26.013     1471.739     1000.816      676.695        1.096        0.157      136.183       22.214        0.027      334.141        3.918      857.221
01/30/2014  02:22:00     -102.268      -22.443      -10.983       49.236       42.798       24.938     2424.208     1831.661      621.880        0.798        0.244      104.702       22.061        0.044      334.150        3.934      857.246
01/30/2014  02:23:00     -152.908       52.396      -10.683       35.899       27.792       25.149     1288.713      772.410      632.490        1.447        0.135      161.636       16.955        0.011      334.127        3.894      857.280
01/30/2014  02:24:00     -109.913       11.958       -9.058       42.770       26.599       15.130     1829.261      707.525      228.920        0.754        0.138      110.562       17.616        0.025      334.142        3.919      857.312
01/30/2014  02:25:00     -104.446      -46.751        0.117       51.874       41.864       21.295     2690.946     1752.635      453.462        0.900        0.245      114.432       22.268        0.038      334.185        3.991      857.338
01/30/2014  02:26:00     -117.726      -14.059       -0.686       53.655       47.432       25.053     2878.821     2249.780      627.637        0.991        0.288      118.562       25.454        0.046      334.151        3.936      857.355
01/30/2014  02:27:00     -213.430      -72.627      -16.496       43.991       45.067       36.925     1935.175     2031.009     1363.478        2.821        0.266      225.448       26.627        0.014      334.118        3.875      857.381
01/30/2014  02:28:00     -155.863      -63.019        1.403       55.036       52.181       34.944     3028.923     2722.862     1221.109        1.762        0.349      168.121       37.163        0.049      334.139        3.915      857.395
01/30/2014  02:29:00     -248.925        5.007      -19.513       49.532       55.662       34.034     2453.389     3098.222     1158.319        3.454        0.335      248.975       29.527        0.014      334.066        3.789      857.387
01/30/2014  02:30:00     -189.707      -63.639       -5.929       56.632       51.962       28.138     3207.156     2700.046      791.768        2.339        0.335      200.097       32.557        0.026      334.090        3.830      857.343
01/30/2014  02:31:00     -241.332      -54.783       -2.908       37.815       42.230       28.031     1429.996     1783.372      785.718        3.262        0.200      247.472       19.479        0.006      334.080        3.811      857.331
01/30/2014  02:32:00     -148.463      -48.105       -2.403       75.992       52.114       25.953     5774.718     2715.832      673.538        1.676        0.458      156.062       34.002        0.047      334.091        3.833      857.313
01/30/2014  02:33:00     -140.254      -39.306       -5.512       82.653       59.634       39.165     6831.454     3556.204     1533.905        1.658        0.596      145.658       41.876        0.083      334.097        3.843      857.299
01/30/2014  02:34:00     -100.957      -28.125        0.119       42.114       30.100       23.313     1773.592      906.022      543.500        0.710        0.161      104.802       20.242        0.037      334.102        3.851      857.300
01/30/2014  02:35:00     -124.530      -38.152        1.239       65.305       45.784       32.039     4264.802     2096.151     1026.505        1.217        0.369      130.243       35.353        0.074      334.118        3.877      857.330
01/30/2014  02:36:00     -138.045      -49.233        0.221       86.961       51.713       34.472     7562.229     2674.255     1188.347        1.645        0.571      146.561       41.489        0.080      334.118        3.878      857.358
01/30/2014  02:37:00     -133.187      -16.283       -4.621       75.336       39.466       32.219     5675.517     1557.599     1038.033        1.315        0.414      134.178       32.084        0.057      334.120        3.882      857.383
01/30/2014  02:38:00      -97.912        3.087        4.060       47.384       37.981       29.050     2245.250     1442.594      843.898        0.707        0.227       97.960       26.230        0.072      334.111        3.868      857.378
01/30/2014  02:39:00     -117.726       10.316       -0.425       49.903       30.811       24.574     2490.349      949.336      603.904        0.900        0.202      118.177       25.676        0.047      334.065        3.791      857.360
01/30/2014  02:40:00     -150.007      -16.625      -16.756       48.355       49.142       28.348     2338.209     2414.961      803.588        1.431        0.278      150.926       23.573        0.024      334.089        3.830      857.348
01/30/2014  02:41:00     -144.636      -61.678        0.750       60.311       50.563       30.047     3637.389     2556.606      902.818        1.591        0.355      157.238       29.746        0.036      334.115        3.874      857.375
01/30/2014  02:42:00     -151.299      -44.578      -10.309       48.277       45.825       26.494     2330.691     2099.902      701.938        1.506        0.257      157.730       19.480        0.015      334.072        3.802      857.381
01/30/2014  02:43:00     -156.134      -85.658       -1.012       46.830       45.881       23.412     2193.080     2105.038      548.128        1.828        0.242      178.087       20.830        0.014      334.064        3.789      857.360
01/30/2014  02:44:00     -156.716     -111.939       -9.229       91.616       89.650       42.643     8393.566     8037.196     1818.385        2.771        0.912      192.588       40.449        0.044      334.065        3.789      857.342
01/30/2014  02:45:00     -171.987      -92.387       -8.015      103.149       77.069       38.583    10639.705     5939.560     1488.677        2.812        0.903      195.230       40.881        0.044      334.008        3.696      857.345
01/30/2014  02:46:00     -110.784      -29.097       -1.885       47.028       43.520       34.428     2211.615     1893.967     1185.300        0.921        0.265      114.541       24.034        0.044      334.068        3.796      857.339
01/30/2014  02:47:00      -83.245      -28.362        4.407       62.320       45.233       33.531     3883.723     2046.036     1124.344        0.740        0.353       87.944       30.191        0.118      334.058        3.780      857.329
01/30/2014  02:48:00      -60.862      -34.301       19.078       56.288       62.125       38.291     3168.303     3859.471     1466.207        0.687        0.425       69.862       29.018        0.173      334.159        3.948      857.327
01/30/2014  02:49:00     -228.517      -22.313      -10.158       86.974       67.789       39.459     7564.563     4595.281     1557.037        3.327        0.686      229.604       35.687        0.024      334.044        3.754      857.330
01/30/2014  02:50:00     -183.033      -36.327       -0.906       81.726      110.667       49.074     6679.075    12247.245     2408.252        2.807        1.067      186.603       42.291        0.051      334.056        3.775      857.318
01/30/2014  02:51:00     -229.602      -58.343      -10.859       83.325       50.920       41.806     6943.005     2592.812     1747.712        3.376        0.564      236.899       41.952        0.031      334.008        3.694      857.321
01/30/2014  02:52:00     -133.244      -19.829        3.774      148.173       65.594       53.154    21955.286     4302.593     2825.380        2.362        1.454      134.712       63.896        0.225      334.069        3.796      857.290
01/30/2014  02:53:00     -261.109      -26.308      -27.556       65.599       59.324       37.062     4303.247     3519.289     1373.581        3.941        0.460      262.431       29.263        0.012      333.944        3.587      857.271
01/30/2014  02:54:00     -211.789      -18.645       -7.764       73.124       55.987       38.621     5347.184     3134.577     1491.593        2.762        0.499      212.608       38.962        0.034      333.919        3.547      857.257
01/30/2014  02:55:00     -173.823      -38.450       -5.237       51.472       38.812       35.187     2649.329     1506.337     1238.140        1.856        0.270      178.025       32.880        0.034      333.932        3.570      857.257
01/30/2014  02:56:00     -123.613      -20.594       -8.280       41.466       42.135       25.934     1719.400     1775.332      672.578        0.997        0.208      125.317       21.931        0.031      333.965        3.626      857.275
01/30/2014  02:57:00     -254.298      -32.505      -10.876       99.952       64.365       37.266     9990.369     4142.815     1388.773        4.068        0.776      256.367       44.020        0.029      333.909        3.529      857.291
01/30/2014  02:58:00     -189.278       -7.251      -15.793       94.179       87.458       37.721     8869.756     7648.933     1422.867        2.703        0.897      189.417       43.890        0.054      333.889        3.496      857.295
01/30/2014  02:59:00      -80.968        5.368        9.531       48.392       42.685       37.658     2341.799     1822.009     1418.113        0.613        0.279       81.146       33.759        0.173      333.953        3.607      857.298
01/30/2014  03:00:00     -143.321      -49.346       -8.249       50.894       50.337       32.534     2590.160     2533.765     1058.481        1.461        0.309      151.578       30.217        0.040      333.913        3.541      857.304
01/30/2014  03:01:00     -204.026      -20.559      -19.829       55.840       45.282       26.781     3118.143     2050.456      717.239        2.416        0.294      205.059       18.671        0.008      333.865        3.456      857.309
01/30/2014  03:02:00     -229.351       34.503      -16.289       94.037       39.747       30.692     8842.955     1579.798      941.999        3.271        0.568      231.931       39.645        0.029      333.862        3.452      857.300
01/30/2014  03:03:00     -136.716        6.897      -12.103       62.824       33.056       24.767     3946.850     1092.672      613.408        1.227        0.283      136.890       28.870        0.044      333.865        3.459      857.292
01/30/2014  03:04:00      -15.844      -15.465       11.965       34.985       31.240       22.918     1223.945      975.924      525.221        0.168        0.136       22.141       20.538        0.860      334.026        3.728      857.276
01/30/2014  03:05:00      -58.741        1.570        4.001       55.524       49.291       24.384     3082.911     2429.635      594.596        0.479        0.305       58.762       25.609        0.190      333.962        3.621      857.272
01/30/2014  03:06:00     -229.329       24.935      -23.604       73.852       39.841       32.134     5454.139     1587.272     1032.564        3.092        0.404      230.681       36.210        0.025      333.864        3.453      857.257
01/30/2014  03:07:00     -191.064        5.654      -15.797       56.171       57.898       29.364     3155.231     3352.122      862.271        2.208        0.368      191.147       24.351        0.016      333.861        3.450      857.238
01/30/2014  03:08:00     -167.668      -44.484       -7.460       65.502       51.300       30.015     4290.516     2631.712      900.924        1.898        0.391      173.469       28.179        0.026      333.852        3.437      857.204
01/30/2014  03:09:00     -140.032       15.947       -3.245       43.969       57.335       24.075     1933.280     3287.263      579.615        1.284        0.290      140.937       22.177        0.025      333.838        3.416      857.181
01/30/2014  03:10:00     -125.319      -96.277       -2.057       51.317       45.433       32.738     2633.452     2064.176     1071.790        1.537        0.288      158.032       28.520        0.033      333.888        3.498      857.176
01/30/2014  03:11:00      -96.317      -55.906       -9.903       69.192       33.901       32.310     4787.551     1149.248     1043.938        0.974        0.349      111.366       22.871        0.042      333.932        3.571      857.195
01/30/2014  03:12:00     -111.798      -55.384        5.326       71.337       49.057       31.037     5089.008     2406.588      963.282        1.203        0.423      124.764       28.033        0.050      333.870        3.468      857.200
01/30/2014  03:13:00     -104.780      -29.345       -0.997       50.623       41.177       24.463     2562.675     1695.517      598.461        0.835        0.243      108.812       24.075        0.049      333.853        3.440      857.193
01/30/2014  03:14:00      -67.999      -30.951       -1.473       67.284       37.255       25.409     4527.177     1387.947      645.606        0.607        0.328       74.712       31.207        0.174      333.872        3.472      857.168
01/30/2014  03:15:00      -10.080        5.967        8.197       26.302       23.553       19.122      691.782      554.763      365.657        0.091        0.081       11.714       14.282        1.486      333.950        3.601      857.134
01/30/2014  03:16:00      -53.085        5.740        1.523       34.887       32.469       19.731     1217.073     1054.265      389.311        0.276        0.133       53.394       14.659        0.075      333.823        3.391      857.128
01/30/2014  03:17:00      -97.532        4.210        0.171       51.878       39.945       20.560     2691.282     1595.618      422.723        0.712        0.235       97.623       22.594        0.054      333.840        3.419      857.141
01/30/2014  03:18:00     -115.366      -11.866        2.440       64.913       48.370       32.400     4213.762     2339.696     1049.753        1.053        0.380      115.974       33.692        0.084      333.820        3.385      857.161
01/30/2014  03:19:00     -124.957      -40.552       10.259       64.141       56.716       29.949     4114.022     3216.753      896.959        1.279        0.411      131.373       32.743        0.062      333.819        3.382      857.178
01/30/2014  03:20:00     -104.539      -55.367       -7.109       45.987       67.892       29.360     2114.761     4609.363      861.981        1.081        0.379      118.296       23.597        0.040      333.748        3.266      857.167
01/30/2014  03:21:00      -47.332      -10.507        5.339       49.044       41.411       23.749     2405.337     1714.908      564.031        0.353        0.234       48.484       24.256        0.250      333.788        3.333      857.148
01/30/2014  03:22:00     -143.638      -26.425        6.089       75.854       45.991       34.988     5753.784     2115.159     1224.188        1.523        0.455      146.048       39.167        0.072      333.725        3.227      857.135
01/30/2014  03:23:00     -210.184      -65.142       -7.049       46.827       42.598       25.762     2192.742     1814.552      663.672        2.657        0.234      220.048       21.021        0.009      333.676        3.144      857.125
01/30/2014  03:24:00     -152.850      -23.421        0.833       76.647       59.925       34.612     5874.800     3591.026     1197.983        1.729        0.533      154.634       33.383        0.047      333.731        3.235      857.114
01/30/2014  03:25:00     -231.996      -78.425       -4.383       63.625       45.628       31.190     4048.086     2081.895      972.813        3.355        0.355      244.893       35.194        0.021      333.626        3.060      857.088
01/30/2014  03:26:00     -192.001      -68.681        2.278       68.673       62.572       33.050     4716.002     3915.211     1092.280        2.565        0.486      203.916       32.882        0.026      333.613        3.040      857.064
01/30/2014  03:27:00     -141.876      -96.108       -1.978       87.010       63.028       38.888     7570.817     3972.578     1512.254        2.121        0.653      171.364       38.048        0.049      333.652        3.105      857.027
01/30/2014  03:28:00     -113.990      -72.738        1.998       69.309       69.687       41.647     4803.716     4856.212     1734.477        1.484        0.570      135.220       32.285        0.057      333.660        3.121      856.985
01/30/2014  03:29:00     -141.877      -54.581       12.982      106.074       58.623       41.320    11251.660     3436.602     1707.371        1.983        0.820      152.014       56.651        0.139      333.664        3.125      856.960
01/30/2014  03:30:00      -79.241      -34.795        7.078       49.045       41.585       29.085     2405.443     1729.295      845.961        0.626        0.249       86.544       29.536        0.116      333.700        3.188      856.959
01/30/2014  03:31:00     -172.583      -33.262       -5.414       82.042       47.812       35.092     6730.921     2286.028     1231.422        2.058        0.512      175.759       39.586        0.051      333.650        3.101      856.960
01/30/2014  03:32:00     -148.275      -53.321       13.188       83.313       64.003       44.071     6941.093     4096.380     1942.264        1.899        0.649      157.571       50.304        0.102      333.633        3.074      856.975
01/30/2014  03:33:00     -220.717      -16.129      -17.823       79.878       43.702       30.846     6380.489     1909.887      951.448        2.927        0.462      221.306       32.759        0.022      333.593        3.007      856.983
01/30/2014  03:34:00     -100.436      -36.504       -6.116       65.726       56.107       31.405     4319.876     3148.008      986.290        0.995        0.423      106.864       38.389        0.129      333.575        2.977      856.983
01/30/2014  03:35:00     -110.333      -43.069       -4.965       49.482       54.701       33.276     2448.448     2992.156     1107.292        1.030        0.327      118.441       32.791        0.077      333.619        3.052      856.994
01/30/2014  03:36:00      -89.667      -24.282       11.216       70.119       51.523       41.689     4916.687     2654.612     1737.966        0.903        0.465       92.897       39.268        0.179      333.605        3.029      856.990
01/30/2014  03:37:00     -145.962     -127.293       -7.591       52.838       47.959       33.632     2791.838     2300.096     1131.122        2.189        0.311      193.671       27.749        0.021      333.601        3.021      856.970
01/30/2014  03:38:00     -163.558      -34.529      -12.760       57.701       53.655       27.876     3329.358     2878.853      777.074        1.754        0.349      167.163       25.922        0.024      333.616        3.046      856.950
01/30/2014  03:39:00     -168.146      -12.735       -7.670       53.099       39.154       34.301     2819.543     1533.043     1176.574        1.701        0.276      168.628       28.601        0.029      333.608        3.034      856.925
01/30/2014  03:40:00     -114.480      -43.597        0.135       65.568       48.177       30.007     4299.148     2321.061      900.400        1.126        0.376      122.500       21.937        0.032      333.626        3.063      856.903
01/30/2014  03:41:00     -119.996      -55.216       -8.372       46.339       43.643       22.426     2147.308     1904.675      502.938        1.104        0.228      132.091       18.506        0.020      333.600        3.022      856.915
01/30/2014  03:42:00     -168.770      -66.463      -10.633       43.009       47.900       25.715     1849.792     2294.447      661.244        1.891        0.240      181.386       17.657        0.009      333.611        3.039      856.934
01/30/2014  03:43:00     -170.518      -49.896       -7.931       59.626       56.117       25.374     3555.248     3149.127      643.855        1.949        0.367      177.668       26.935        0.023      333.555        2.944      856.933
01/30/2014  03:44:00     -172.964      -58.314       -6.648       75.948       63.251       38.744     5768.066     4000.635     1501.074        2.231        0.563      182.529       41.308        0.051      333.601        3.021      856.912
01/30/2014  03:45:00     -151.923        2.783      -11.455       66.608       61.749       30.286     4436.566     3812.931      917.225        1.619        0.458      151.949       28.290        0.035      333.609        3.035      856.892
01/30/2014  03:46:00     -189.104      -26.570       -0.258      108.082       44.922       37.845    11681.768     2017.989     1432.207        2.580        0.757      190.962       51.245        0.072      333.636        3.077      856.890
01/30/2014  03:47:00     -179.335      -56.742      -17.256      108.750       75.688       44.237    11826.594     5728.724     1956.896        2.759        0.976      188.098       58.159        0.096      333.602        3.023      856.906
01/30/2014  03:48:00     -151.534      -34.950        0.502       65.881       51.555       34.563     4340.285     2657.871     1194.567        1.619        0.410      155.512       30.540        0.039      333.617        3.048      856.923
01/30/2014  03:49:00      -61.304      -20.168       11.261       70.498       77.484       44.885     4969.960     6003.759     2014.636        0.864        0.649       64.536       44.663        0.479      333.735        3.244      856.920
01/30/2014  03:50:00     -210.827     -110.163       -4.748      107.348       63.097       49.914    11523.678     3981.191     2491.392        3.730        0.900      237.874       46.994        0.039      333.616        3.045      856.928
01/30/2014  03:51:00     -246.480      -47.307       -9.568      111.486       98.850       63.263    12429.051     9771.285     4002.260        4.464        1.310      250.979       62.943        0.063      333.590        3.001      856.958
01/30/2014  03:52:00     -141.342     -109.778        1.055      119.340       92.805       60.131    14242.154     8612.733     3615.704        2.925        1.324      178.966       72.681        0.165      333.681        3.152      856.983
01/30/2014  03:53:00     -218.068      -64.966       -6.330      112.970      106.987       50.285    12762.212    11446.150     2528.532        3.927        1.337      227.539       38.253        0.028      333.668        3.132      856.995
01/30/2014  03:54:00     -301.942     -146.816      -13.813       98.086       98.232       64.317     9620.797     9649.444     4136.632        6.816        1.170      335.744       49.671        0.022      333.664        3.123      856.983
01/30/2014  03:55:00     -253.004     -144.484       14.257      199.612      136.563       93.830    39845.033    18649.533     8804.099        7.618        3.365      291.353      106.368        0.133      333.711        3.202      856.951
01/30/2014  03:56:00     -243.634     -122.378      -22.675      122.585      119.103       64.862    15027.204    14185.643     4207.056        5.413        1.671      272.642       53.859        0.039      333.672        3.138      856.949
01/30/2014  03:57:00     -132.701      -49.696       13.900      147.089       79.664       65.606    21635.179     6346.317     4304.160        2.627        1.614      141.701       71.676        0.256      333.729        3.233      856.927
01/30/2014  03:58:00     -277.740     -101.289      -18.877      192.300      135.899       67.000    36979.423    18468.411     4488.957        7.384        2.997      295.633       75.001        0.064      333.661        3.119      856.917
01/30/2014  03:59:00     -205.899      -61.371        5.227       99.614      100.532       58.223     9922.963    10106.685     3389.911        3.480        1.171      214.851       56.190        0.068      333.660        3.118      856.918
01/30/2014  04:00:00     -210.513      -76.551        6.770      139.938      106.096       66.433    19582.572    11256.302     4413.397        4.273        1.763      223.999       81.445        0.132      333.661        3.121      856.921
01/30/2014  04:01:00     -247.877      -75.673      -11.162       85.193      100.959       45.306     7257.868    10192.729     2052.648        4.340        0.975      259.170       44.372        0.029      333.630        3.068      856.914
01/30/2014  04:02:00     -301.332     -121.574       -9.139       95.058       95.359       52.048     9036.006     9093.398     2708.985        6.325        1.042      324.933       49.426        0.023      333.616        3.046      856.928
01/30/2014  04:03:00     -215.859      -94.325      -15.279       91.157       81.290       47.784     8309.587     6608.024     2283.300        3.646        0.860      235.568       45.556        0.037      333.651        3.103      856.960
01/30/2014  04:04:00     -108.823      -98.233       -0.762       81.000       62.437       48.268     6560.960     3898.321     2329.755        1.714        0.639      146.602       49.093        0.112      333.688        3.165      856.963
01/30/2014  04:05:00     -172.262      -55.054      -10.556      114.685       55.823       40.234    13152.704     3116.196     1618.759        2.535        0.894      180.846       45.292        0.063      333.646        3.095      856.927
01/30/2014  04:06:00     -227.972      -39.819        9.125      104.807       91.889       53.190    10984.502     8443.535     2829.229        3.794        1.113      231.424       54.784        0.056      333.622        3.055      856.878
01/30/2014  04:07:00     -259.734      -85.653      -14.725       98.331       74.851       48.305     9669.069     5602.603     2333.389        4.631        0.880      273.492       44.622        0.027      333.589        3.001      856.821
01/30/2014  04:08:00     -213.383      -78.213       -2.909      131.120       92.190       47.274    17192.520     8498.983     2234.794        3.979        1.396      227.266       58.172        0.066      333.594        3.008      856.761
01/30/2014  04:09:00     -312.116     -141.950      -17.400      121.493       80.033       55.123    14760.532     6405.207     3038.567        7.103        1.210      342.879       51.472        0.023      333.560        2.952      856.734
01/30/2014  04:10:00     -220.207      -59.367       -6.312      103.608      110.296       53.713    10734.692    12165.307     2885.048        3.892        1.289      228.069       39.192        0.030      333.596        3.010      856.755
01/30/2014  04:11:00     -222.452     -119.199      -11.763       96.200       84.812       47.755     9254.388     7193.147     2280.506        4.128        0.936      252.376       52.999        0.044      333.608        3.032      856.770
01/30/2014  04:12:00     -111.395      -13.608       -1.273       93.167       78.760       46.246     8680.125     6203.200     2138.695        1.481        0.851      112.223       38.804        0.120      333.634        3.078      856.759
01/30/2014  04:13:00     -177.866      -37.321       -3.840       70.313       45.440       29.341     4943.931     2064.814      860.879        2.046        0.393      181.740       32.150        0.031      333.582        2.990      856.735
01/30/2014  04:14:00     -199.382        0.292       -7.509       63.548       57.918       34.624     4038.298     3354.538     1198.808        2.420        0.430      199.382       31.151        0.024      333.553        2.941      856.681
01/30/2014  04:15:00     -152.013      -27.083       -5.849       71.882       34.721       31.791     5167.022     1205.543     1010.697        1.563        0.369      154.407       39.776        0.066      333.567        2.965      856.632
01/30/2014  04:16:00     -204.110      -51.099      -16.053       38.789       43.874       22.572     1504.567     1924.958      509.514        2.423        0.197      210.409       19.939        0.009      333.535        2.908      856.605
01/30/2014  04:17:00     -131.803      -10.742       -7.197       38.257       50.904       27.270     1463.598     2591.215      743.680        1.117        0.240      132.240       23.594        0.032      333.571        2.974      856.585
01/30/2014  04:18:00     -219.394       47.076      -32.325       81.205       43.023       35.117     6594.228     1851.008     1233.230        3.053        0.484      224.388       31.911        0.020      333.517        2.880      856.545
01/30/2014  04:19:00     -111.937       16.868      -14.833       46.001       52.706       27.544     2116.097     2777.893      758.669        0.934        0.283      113.201       22.367        0.039      333.610        3.037      856.521
01/30/2014  04:20:00     -126.177      -66.650       -8.107       91.662       47.401       34.914     8401.987     2246.812     1218.971        1.615        0.593      142.698       31.049        0.047      333.600        3.019      856.512
01/30/2014  04:21:00     -127.033      -74.997        6.431       75.622       66.442       34.245     5718.742     4414.496     1172.718        1.655        0.565      147.519       32.973        0.050      333.594        3.010      856.521
01/30/2014  04:22:00     -209.774      -65.318      -10.662       54.675       54.384       34.079     2989.377     2957.571     1161.378        2.775        0.355      219.708       33.182        0.023      333.552        2.938      856.508
01/30/2014  04:23:00     -157.259      -28.889        2.890       86.042       67.917       40.758     7403.246     4612.683     1661.183        1.962        0.684      159.890       41.266        0.067      333.587        2.997      856.504
01/30/2014  04:24:00     -176.768      -80.624        8.685      105.191       83.991       48.263    11065.185     7054.417     2329.277        2.913        1.022      194.287       52.665        0.073      333.601        3.020      856.488
01/30/2014  04:25:00     -233.921     -103.818      -13.796      102.109       75.021       47.715    10426.224     5628.146     2276.678        4.201        0.917      255.924       50.606        0.039      333.548        2.932      856.456
01/30/2014  04:26:00      -85.918      -84.054       13.126       77.965       93.005       53.066     6078.537     8649.893     2816.034        1.608        0.877      120.196       52.607        0.192      333.611        3.038      856.395
01/30/2014  04:27:00      -90.695      -48.509        7.697       95.699       99.577       46.657     9158.319     9915.578     2176.856        1.594        1.063      102.853       47.083        0.210      333.599        3.017      856.350
01/30/2014  04:28:00     -206.861      -83.380        0.343      132.620       68.640       41.784    17588.175     4711.476     1745.872        3.689        1.202      223.033       57.236        0.066      333.504        2.860      856.314
01/30/2014  04:29:00     -121.865     -125.985       -4.313      101.772       84.022       54.794    10357.626     7059.734     3002.400        2.558        1.021      175.280       58.316        0.111      333.573        2.974      856.293
01/30/2014  04:30:00     -140.430     -125.689        3.918       90.757       91.407       50.248     8236.747     8355.324     2524.909        2.732        0.956      188.463       39.632        0.044      333.580        2.985      856.261
01/30/2014  04:31:00     -122.828      -74.506        8.456       78.489       72.766       48.272     6160.575     5294.823     2330.226        1.725        0.689      143.659       44.819        0.097      333.547        2.932      856.226
01/30/2014  04:32:00     -151.735      -67.389        4.012       73.261       81.883       42.852     5367.243     6704.802     1836.323        2.074        0.695      166.027       44.383        0.071      333.562        2.956      856.216
01/30/2014  04:33:00     -112.245      -73.926        1.635       99.521       63.418       48.955     9904.491     4021.854     2396.569        1.719        0.816      134.402       63.934        0.226      333.592        3.006      856.208
01/30/2014  04:34:00      -88.386      -43.448       11.399       79.221       52.550       35.489     6275.899     2761.489     1259.480        1.006        0.515       98.487       41.962        0.182      333.580        2.986      856.227
01/30/2014  04:35:00     -169.915      -77.957       -6.376       69.451       57.507       31.329     4823.382     3307.082      981.476        2.205        0.456      186.945       32.572        0.030      333.485        2.829      856.263
01/30/2014  04:36:00     -117.098      -36.949        9.258       70.781       80.493       40.258     5009.885     6479.158     1620.690        1.413        0.655      122.789       42.801        0.122      333.498        2.851      856.293
01/30/2014  04:37:00     -126.850      -30.041       -7.076       39.632       34.168       17.283     1570.727     1167.460      298.703        1.004        0.152      130.359       13.586        0.011      333.500        2.854      856.300
01/30/2014  04:38:00     -124.157      -24.551       -0.591       55.086       46.799       27.924     3034.484     2190.116      779.740        1.101        0.300      126.561       27.506        0.047      333.593        3.008      856.277
01/30/2014  04:39:00     -144.213       20.802       -0.681       56.394       33.910       25.495     3180.315     1149.916      649.983        1.310        0.249      145.705       29.360        0.041      333.489        2.836      856.251
01/30/2014  04:40:00      -66.520      -32.274        4.280       45.290       29.915       22.110     2051.149      894.928      488.830        0.446        0.172       73.936       20.919        0.080      333.532        2.909      856.229
01/30/2014  04:41:00     -122.993      -38.449       -2.006       58.118       36.356       20.029     3377.721     1321.767      401.149        1.085        0.255      128.863       13.800        0.011      333.517        2.882      856.231
01/30/2014  04:42:00     -218.141      -43.770       -8.185       54.112       44.782       30.390     2928.061     2005.432      923.553        2.771        0.293      222.489       25.271        0.013      333.478        2.815      856.250
01/30/2014  04:43:00     -209.280      -82.097       -7.853       83.001       56.098       34.455     6889.207     3146.965     1187.124        3.091        0.561      224.807       39.418        0.031      333.482        2.821      856.275
01/30/2014  04:44:00     -149.664      -60.567       -0.841       66.528       50.242       29.209     4425.942     2524.302      853.145        1.693        0.390      161.455       29.236        0.033      333.545        2.928      856.311
01/30/2014  04:45:00     -133.980      -14.981        0.121       68.092       38.183       28.393     4636.509     1457.928      806.180        1.254        0.345      134.815       33.594        0.062      333.496        2.848      856.354
01/30/2014  04:46:00      -95.262      -77.722        6.463       76.435       58.849       41.581     5842.366     3463.185     1728.961        1.309        0.552      122.945       49.430        0.162      333.600        3.021      856.373
01/30/2014  04:47:00      -61.159      -68.372      -15.120       54.346       41.267       23.191     2953.519     1702.955      537.815        0.692        0.260       91.734       12.136        0.018      333.543        2.927      856.374
01/30/2014  04:48:00     -157.936      -18.541       -5.530       52.739       47.887       30.233     2781.359     2293.127      914.057        1.565        0.299      159.021       30.785        0.037      333.525        2.896      856.355
01/30/2014  04:49:00     -137.484       -0.311       -3.659       55.053       49.994       29.976     3030.887     2499.438      898.540        1.267        0.321      137.485       28.044        0.042      333.530        2.904      856.328
01/30/2014  04:50:00      -28.540      -33.103       14.793       56.217       35.840       29.573     3160.398     1284.471      874.573        0.372        0.266       43.707       35.624        0.664      333.642        3.090      856.289
01/30/2014  04:51:00      -76.568      -58.091        0.325       40.752       37.253       24.275     1660.701     1387.795      589.268        0.644        0.182       96.111       14.261        0.022      333.645        3.097      856.252
01/30/2014  04:52:00      -78.609      -27.546       -1.612       38.458       35.267       24.145     1479.031     1243.790      582.959        0.512        0.165       83.295       24.700        0.088      333.595        3.012      856.241
01/30/2014  04:53:00     -117.827      -35.924       -4.039       44.059       35.352       21.332     1941.221     1249.793      455.034        0.942        0.182      123.181       22.515        0.033      333.594        3.012      856.255
01/30/2014  04:54:00     -101.766      -75.974        1.363       65.549       46.157       30.564     4296.729     2130.448      934.136        1.174        0.368      126.998       34.072        0.072      333.658        3.117      856.267
01/30/2014  04:55:00     -114.581      -87.214        5.307       71.365       50.384       35.172     5092.973     2538.595     1237.073        1.481        0.443      143.997       33.518        0.054      333.643        3.091      856.274
01/30/2014  04:56:00      -93.765       10.735        0.712       47.026       48.481       35.057     2211.432     2350.388     1229.016        0.735        0.290       94.377       31.202        0.109      333.602        3.025      856.247
01/30/2014  04:57:00      -58.301      -68.195        5.241       53.900       50.562       27.367     2905.186     2556.546      748.960        0.714        0.311       89.719       26.674        0.088      333.653        3.108      856.195
01/30/2014  04:58:00     -116.064     -105.544        7.132       81.556       62.128       41.587     6651.386     3859.857     1729.460        1.845        0.612      156.877       47.926        0.093      333.646        3.096      856.109
01/30/2014  04:59:00     -175.462      -84.650        1.971       95.428       69.506       40.528     9106.587     4831.151     1642.510        2.677        0.779      194.814       51.739        0.071      333.564        2.959      856.020
01/30/2014  05:00:00      -19.630      -92.454        8.662       33.953       56.084       25.266     1152.833     3145.396      638.381        0.697        0.247       94.515       16.927        0.032      333.640        3.087      855.973
01/30/2014  05:01:00     -131.303     -136.456        0.285       68.425       63.415       44.527     4682.035     4021.505     1982.628        2.327        0.534      189.370       38.749        0.042      333.647        3.097      855.940
01/30/2014  05:02:00      -82.885      -75.906        4.791       49.112       38.491       27.398     2411.959     1481.555      750.629        0.865        0.232      112.391       27.515        0.060      333.689        3.168      855.908
01/30/2014  05:03:00      -89.033      -41.563       -8.911       39.456       27.440       17.004     1556.752      752.965      289.148        0.617        0.130       98.256       11.582        0.014      333.669        3.136      855.869
01/30/2014  05:04:00      -38.901      -98.838       -4.691       45.194       59.306       18.498     2042.476     3517.188      342.176        0.860        0.295      106.218       12.808        0.015      333.746        3.263      855.834
01/30/2014  05:05:00      -72.375      -62.789       -1.168       54.456       35.215       28.907     2965.434     1240.131      835.596        0.711        0.252       95.815       28.550        0.089      333.682        3.157      855.799
01/30/2014  05:06:00      -76.256      -74.984        1.385       39.911       41.977       27.316     1592.869     1762.083      746.139        0.777        0.205      106.947       21.183        0.039      333.755        3.278      855.804
01/30/2014  05:07:00     -100.980      -86.648       -8.027       68.334       42.469       29.273     4669.516     1803.578      856.894        1.255        0.366      133.060       13.200        0.010      333.761        3.287      855.839
01/30/2014  05:08:00      -61.970      -74.513        8.449       63.239       44.606       31.025     3999.166     1989.661      962.564        0.821        0.348       96.915       29.901        0.095      333.774        3.308      855.855
01/30/2014  05:09:00     -118.733      -97.313        8.131       76.716       52.861       39.870     5885.324     2794.251     1589.604        1.695        0.513      153.516       37.517        0.060      333.732        3.239      855.830
01/30/2014  05:10:00     -146.292     -131.861        4.227       82.641       56.774       35.572     6829.465     3223.231     1265.349        2.506        0.566      196.948       37.599        0.036      333.715        3.207      855.788
01/30/2014  05:11:00     -131.088     -151.202       -5.634       63.824       55.298       34.605     4073.503     3057.915     1197.489        2.420        0.416      200.115       29.213        0.021      333.707        3.195      855.743
01/30/2014  05:12:00     -144.249     -153.593      -18.313       64.545       57.275       37.678     4166.109     3280.460     1419.620        2.680        0.443      210.710       29.102        0.019      333.696        3.178      855.690
01/30/2014  05:13:00     -121.057     -114.035       -5.504       79.586       51.827       36.679     6333.985     2686.011     1345.332        1.903        0.518      166.309       32.326        0.038      333.732        3.238      855.639
01/30/2014  05:14:00     -151.889     -158.829       -9.694       36.019       47.854       26.889     1297.390     2289.969      723.001        2.635        0.216      219.766       21.156        0.009      333.677        3.146      855.597
01/30/2014  05:15:00     -179.438     -132.065       -4.749       66.707       48.369       41.704     4449.817     2339.583     1739.204        2.909        0.426      222.799       40.558        0.033      333.726        3.225      855.574
01/30/2014  05:16:00     -238.342     -102.879        8.916       75.342       56.465       44.121     5676.348     3188.256     1946.646        3.914        0.541      259.598       35.080        0.018      333.697        3.177      855.547
01/30/2014  05:17:00     -143.687      -36.991       10.562       94.179       46.855       42.102     8869.773     2195.358     1772.577        1.748        0.642      148.372       47.842        0.104      333.697        3.180      855.532
01/30/2014  05:18:00     -217.209      -58.227        5.385       85.397       77.460       42.517     7292.625     6000.105     1807.685        3.285        0.755      224.878       43.283        0.037      333.692        3.169      855.521
01/30/2014  05:19:00     -180.884      -79.489       -5.505       68.041       51.842       31.136     4629.536     2687.541      969.437        2.368        0.414      197.580       23.050        0.014      333.685        3.160      855.504
01/30/2014  05:20:00     -168.118      -87.296       -4.286       78.358       89.273       38.577     6139.901     7969.600     1488.194        2.575        0.780      189.431       40.174        0.045      333.699        3.182      855.469
01/30/2014  05:21:00     -160.203      -40.797       -1.202       72.230       54.755       33.019     5217.111     2998.091     1090.286        1.832        0.465      165.316       31.286        0.036      333.712        3.204      855.424
01/30/2014  05:22:00     -217.081     -115.474      -12.277       65.889       71.297       39.586     4341.333     5083.316     1567.025        3.580        0.550      245.883       33.848        0.019      333.669        3.131      855.387
01/30/2014  05:23:00     -111.915      -76.686        3.693       73.285       42.575       32.346     5370.718     1812.594     1046.239        1.332        0.411      135.668       37.410        0.076      333.722        3.222      855.368
01/30/2014  05:24:00     -137.235     -151.111       -9.636       48.780       70.107       31.727     2379.455     4914.922     1006.606        2.503        0.415      204.128       30.589        0.022      333.710        3.201      855.358
01/30/2014  05:25:00      -98.451      -77.387        2.725       58.501       49.885       30.225     3422.317     2488.551      913.541        1.126        0.341      125.225       21.499        0.029      333.744        3.261      855.360
01/30/2014  05:26:00      -72.019      -58.136        2.145       52.109       49.072       34.328     2715.392     2408.051     1178.440        0.744        0.315       92.556       23.218        0.063      333.757        3.281      855.362
01/30/2014  05:27:00     -121.688      -84.842      -12.137       61.175       55.386       28.644     3742.423     3067.621      820.456        1.489        0.382      148.345       27.473        0.034      333.693        3.173      855.366
01/30/2014  05:28:00      -80.855      -74.120        4.911       66.150       41.715       35.320     4375.865     1740.102     1247.509        0.971        0.368      109.687       24.068        0.048      333.749        3.267      855.363
01/30/2014  05:29:00     -129.925      -69.141        4.083       41.753       44.776       23.227     1743.305     2004.884      539.501        1.298        0.214      147.177       25.381        0.030      333.704        3.193      855.370
01/30/2014  05:30:00     -148.445      -42.865        0.605       61.704       44.341       26.781     3807.337     1966.145      717.222        1.518        0.325      154.510       22.691        0.022      333.659        3.119      855.362
01/30/2014  05:31:00     -101.777      -38.562       13.471       57.119       40.342       30.233     3262.580     1627.503      914.024        0.891        0.290      108.838       25.532        0.055      333.736        3.246      855.353
01/30/2014  05:32:00     -119.658     -113.988       -4.195       61.640       45.187       35.947     3799.504     2041.904     1292.162        1.723        0.357      165.261       25.408        0.024      333.723        3.223      855.356
01/30/2014  05:33:00      -97.678     -138.243       -6.195       86.453       46.692       29.991     7474.147     2180.117      899.437        1.962        0.528      169.269       34.428        0.041      333.751        3.271      855.364
01/30/2014  05:34:00      -86.979      -83.347        0.201       56.536       38.117       32.730     3196.358     1452.929     1071.245        1.012        0.286      120.466       28.140        0.055      333.747        3.264      855.383
01/30/2014  05:35:00      -60.980      -80.022       -3.018       42.534       36.855       22.291     1809.160     1358.301      496.905        0.690        0.183      100.609       16.331        0.026      333.826        3.396      855.401
01/30/2014  05:36:00      -41.086      -12.202        3.514       49.236       33.446       23.495     2424.151     1118.638      552.011        0.297        0.205       42.859       25.534        0.355      333.886        3.496      855.411
01/30/2014  05:37:00      -28.920      -33.472       13.831       31.199       52.895       22.687      973.369     2797.898      514.694        0.322        0.214       44.236       11.636        0.069      333.894        3.508      855.420
01/30/2014  05:38:00      -28.762      -69.029        5.742       26.968       49.743       33.106      727.272     2474.348     1096.003        0.496        0.215       74.781       33.487        0.201      333.943        3.591      855.414
01/30/2014  05:39:00      -20.757      -52.675       32.251       26.852       63.406       36.466      721.019     4020.358     1329.739        0.516        0.304       56.618       26.983        0.227      333.883        3.489      855.382
01/30/2014  05:40:00      109.090     -148.610        1.500       88.478       90.591       61.874     7828.298     8206.739     3828.421        2.692        0.993      184.352       68.490        0.138      333.782        3.319      855.339
01/30/2014  05:41:00       43.190       -6.799       83.562       67.759       76.093       56.927     4591.340     5790.215     3240.632        1.126        0.681       43.722       41.497        0.901      333.713        3.207      855.302
01/30/2014  05:42:00        6.397      -15.673       77.798       40.731      106.739       60.916     1658.983    11393.158     3710.719        1.155        0.838       16.929       66.014       15.206      333.709        3.200      855.267
01/30/2014  05:43:00        2.153      -10.588       45.629       36.805       57.487       40.253     1354.619     3304.749     1620.339        0.424        0.314       10.805       28.759        7.084      333.755        3.279      855.266
01/30/2014  05:44:00       -1.644      -59.735       15.566       38.130       59.748       41.271     1453.906     3569.800     1703.316        0.527        0.336       59.758       31.202        0.273      333.841        3.421      855.251
01/30/2014  05:45:00       -1.415     -103.594       -4.479       39.316       40.706       35.532     1545.773     1656.951     1262.536        0.761        0.223      103.603       20.108        0.038      333.869        3.467      855.226
01/30/2014  05:46:00       91.053     -119.483      -10.589       86.772       68.356       38.061     7529.299     4672.548     1448.624        1.816        0.683      150.223       37.341        0.062      333.821        3.384      855.185
01/30/2014  05:47:00      -29.239      -55.730        1.432       37.957       38.198       30.410     1440.734     1459.056      924.772        0.389        0.191       62.934       10.666        0.029      333.989        3.666      855.161
01/30/2014  05:48:00      -16.875      -71.432        8.333       49.010       58.602       29.012     2402.022     3434.199      841.684        0.607        0.334       73.398       26.281        0.128      334.054        3.773      855.159
01/30/2014  05:49:00      -88.554      -70.313        2.743       48.354       50.050       34.730     2338.141     2505.041     1206.203        0.942        0.302      113.074       27.064        0.057      333.953        3.606      855.169
01/30/2014  05:50:00      -39.452      -22.722       25.254       52.909       50.664       38.153     2799.386     2566.883     1455.639        0.477        0.341       45.527       34.602        0.578      333.901        3.520      855.178
01/30/2014  05:51:00      -83.069     -104.367        2.883       60.110       54.268       33.078     3613.193     2944.967     1094.174        1.273        0.383      133.390       25.778        0.037      333.839        3.416      855.182
01/30/2014  05:52:00      -73.163     -139.305       -4.147       55.571       66.936       30.991     3088.131     4480.478      960.430        1.665        0.426      157.349       26.669        0.029      333.845        3.428      855.173
01/30/2014  05:53:00      -87.618      -94.477        1.010       76.002       31.247       33.087     5776.264      976.364     1094.728        1.222        0.392      128.852       39.218        0.093      333.877        3.479      855.187
01/30/2014  05:54:00      -81.015     -137.215      -10.727       70.266       68.481       32.533     4937.293     4689.654     1058.397        1.809        0.534      159.347       28.768        0.033      333.865        3.459      855.201
01/30/2014  05:55:00      -77.695      -51.979        3.357       63.661       39.478       28.612     4052.664     1558.476      818.652        0.759        0.321       93.479       19.059        0.042      333.977        3.647      855.201
01/30/2014  05:56:00      -25.678      -30.794       16.763       39.084       39.124       24.516     1527.562     1530.679      601.034        0.277        0.183       40.095       21.238        0.281      334.031        3.736      855.200
01/30/2014  05:57:00       33.862     -121.421      -19.730       58.470       63.737       46.270     3418.772     4062.372     2140.921        1.295        0.481      126.054       29.850        0.056      334.058        3.780      855.199
01/30/2014  05:58:00       47.781     -106.498       -6.284      101.494       89.514       51.171    10301.100     8012.724     2618.479        1.729        1.047      116.726       59.233        0.258      333.949        3.597      855.197
01/30/2014  05:59:00       -9.839      -42.146       33.497       67.357       78.876       44.153     4537.004     6221.433     1949.516        0.785        0.635       43.279       41.057        0.900      333.914        3.541      855.173
01/30/2014  06:00:00      -38.915      -79.339       -5.721       49.334       52.158       31.350     2433.862     2720.438      982.851        0.699        0.307       88.369       28.741        0.106      334.034        3.740      855.175
01/30/2014  06:01:00      -27.273      -61.850        5.835       53.010       48.101       36.889     2810.071     2313.660     1360.835        0.554        0.324       67.596       27.214        0.162      334.061        3.784      855.170
01/30/2014  06:02:00      -67.484      -41.949        1.543       49.425       31.224       18.786     2442.789      974.936      352.910        0.504        0.189       79.459       11.647        0.021      333.889        3.499      855.155
01/30/2014  06:03:00      -17.811      -30.242       -1.961       32.838       35.848       26.211     1078.355     1285.099      687.031        0.214        0.153       35.097       20.486        0.341      333.901        3.519      855.151
01/30/2014  06:04:00      -26.521      -41.643      -12.246       47.504       83.035       29.933     2256.637     6894.767      895.964        0.632        0.502       49.371       23.732        0.231      333.891        3.503      855.154
01/30/2014  06:05:00        8.700      -44.545       20.250       63.765       56.918       44.078     4065.981     3239.620     1942.888        0.586        0.462       45.386       41.368        0.831      333.983        3.657      855.184
01/30/2014  06:06:00      -38.590      -41.845       -1.695       44.731       44.524       26.348     2000.907     1982.402      694.230        0.396        0.234       56.923       23.823        0.175      333.869        3.467      855.211
01/30/2014  06:07:00      -48.985      -26.484       -3.740       44.056       47.685       26.379     1940.952     2273.904      695.852        0.401        0.246       55.686       11.460        0.042      333.793        3.341      855.223
01/30/2014  06:08:00      -36.497      -34.355        5.508       41.156       61.643       19.561     1693.846     3799.825      382.616        0.421        0.294       50.123       19.565        0.152      333.851        3.437      855.229
01/30/2014  06:09:00       -9.932     -116.627      -12.066       83.351       54.973       35.641     6947.307     3022.055     1270.291        1.254        0.562      117.049       32.847        0.079      334.076        3.810      855.240
01/30/2014  06:10:00      -38.495     -115.575      -17.617       35.295       68.399       38.890     1245.733     4678.377     1512.453        1.129        0.372      121.817       41.530        0.116      334.002        3.687      855.278
01/30/2014  06:11:00       10.275      -91.745       -3.398       58.494       51.036       32.886     3421.518     2604.656     1081.484        0.782        0.355       92.319       27.885        0.091      334.136        3.908      855.300
01/30/2014  06:12:00       28.294      -82.486       14.880       80.195       76.917       55.425     6431.251     5916.208     3071.950        1.162        0.771       87.204       45.173        0.268      333.891        3.505      855.305
01/30/2014  06:13:00      -28.458      -35.881       10.807       52.685       56.258       31.797     2775.718     3164.929     1011.066        0.458        0.348       45.796       19.250        0.177      333.911        3.537      855.312
01/30/2014  06:14:00       40.761      -47.188       17.405       74.111       88.684       51.737     5492.475     7864.776     2676.684        1.011        0.802       62.355       62.056        0.990      333.872        3.471      855.295
01/30/2014  06:15:00       43.293      -46.641       37.454       53.638       97.661       49.001     2877.048     9537.659     2401.105        1.013        0.741       63.637       58.246        0.838      333.991        3.668      855.276
01/30/2014  06:16:00       11.691      -18.506       51.896       48.990       84.105       47.111     2399.988     7073.654     2219.463        0.743        0.585       21.890       51.652        5.568      333.927        3.564      855.251
01/30/2014  06:17:00       25.320       18.124       70.000       50.515       60.423       49.562     2551.793     3650.982     2456.423        0.726        0.433       31.138       50.307        2.610      333.844        3.424      855.237
01/30/2014  06:18:00       33.769     -102.274       10.974       63.133      111.411       68.809     3985.763    12412.370     4734.723        1.642        1.057      107.705       69.395        0.415      333.925        3.558      855.235
01/30/2014  06:19:00       38.816     -135.485      -15.671       71.177       79.435       49.306     5066.218     6309.946     2431.090        1.696        0.690      140.936       40.140        0.081      333.981        3.651      855.272
01/30/2014  06:20:00       38.904      -57.680       22.880       65.731       75.510       44.701     4320.599     5701.813     1998.138        0.869        0.601       69.574       49.203        0.500      334.018        3.713      855.306
01/30/2014  06:21:00        5.973      -88.382       16.800       50.604       51.893       34.711     2560.759     2692.888     1204.845        0.729        0.323       88.584       26.284        0.088      333.990        3.666      855.308
01/30/2014  06:22:00      -14.105      -10.206       28.616       43.519       61.369       47.216     1893.883     3766.145     2229.367        0.450        0.394       17.411       41.684        5.732      334.058        3.780      855.305
01/30/2014  06:23:00       18.047      -37.034       27.565       42.522       57.653       31.303     1808.103     3323.839      979.904        0.428        0.306       41.197       22.389        0.295      334.013        3.705      855.293
01/30/2014  06:24:00       -5.876      -26.514       46.973       38.724       38.397       24.106     1499.557     1474.330      581.101        0.325        0.178       27.157       21.042        0.600      334.008        3.699      855.298
01/30/2014  06:25:00       15.164      -25.582        3.842       53.902       53.660       34.156     2905.436     2879.432     1166.606        0.392        0.348       29.738       28.814        0.939      333.993        3.674      855.314
01/30/2014  06:26:00        5.917       -9.761       15.419       34.185       50.744       29.079     1168.642     2574.998      845.594        0.248        0.229       11.415       22.872        4.015      334.052        3.771      855.332
01/30/2014  06:27:00      -23.966        4.535       21.369       26.380       22.889       24.542      695.903      523.909      602.308        0.144        0.091       24.391       16.718        0.470      333.976        3.645      855.340
01/30/2014  06:28:00       50.401      -27.744       30.435       59.502       76.506       39.526     3540.546     5853.222     1562.271        0.759        0.548       57.533       47.482        0.681      333.894        3.508      855.346
01/30/2014  06:29:00       78.532      -52.890       16.081       48.133       80.449       33.799     2316.811     6472.060     1142.382        0.958        0.497       94.681       39.605        0.175      333.963        3.622      855.347
01/30/2014  06:30:00       41.829      -45.941       10.751       43.269       64.022       45.820     1872.169     4098.814     2099.485        0.602        0.404       62.131       44.836        0.521      334.151        3.935      855.346
01/30/2014  06:31:00       58.027      -60.057       31.613       52.950       76.181       42.337     2803.740     5803.577     1792.462        0.918        0.520       83.511       45.681        0.299      334.121        3.885      855.352
01/30/2014  06:32:00        9.761       27.328       69.382       44.409       56.793       47.969     1972.134     3225.450     2301.039        0.658        0.375       29.018       34.363        1.402      334.069        3.798      855.364
01/30/2014  06:33:00      -26.099      -49.805       43.280       53.719       61.116       47.829     2885.773     3735.133     2287.587        0.697        0.445       56.229       38.888        0.478      333.992        3.671      855.364
01/30/2014  06:34:00       16.938      -26.824       30.797       75.533       87.699       48.890     5705.272     7691.108     2390.185        0.887        0.789       31.724       59.227        3.486      334.039        3.748      855.378
01/30/2014  06:35:00       80.477      -89.662        1.476       57.324       57.523       42.319     3286.005     3308.883     1790.919        1.145        0.419      120.481       37.354        0.096      334.006        3.694      855.396
01/30/2014  06:36:00       31.390      -16.295       30.521       55.703       72.884       49.958     3102.859     5312.106     2495.817        0.654        0.546       35.367       52.550        2.208      334.004        3.691      855.406
01/30/2014  06:37:00       32.907      -40.954       46.027       53.262       85.489       51.957     2836.875     7308.395     2699.567        0.886        0.642       52.537       57.685        1.206      334.022        3.721      855.412
01/30/2014  06:38:00       99.647      -94.119       14.504       81.395       97.914       49.542     6625.139     9587.186     2454.411        1.883        0.933      137.069       57.547        0.176      333.976        3.643      855.420
01/30/2014  06:39:00       61.005      -50.056       32.117       72.401       68.221       51.623     5241.887     4654.052     2664.919        0.991        0.628       78.912       47.986        0.370      333.966        3.627      855.450
01/30/2014  06:40:00       -2.588      -24.428       56.816       31.784       65.994       34.306     1010.203     4355.255     1176.936        0.519        0.327       24.565       26.763        1.187      334.038        3.748      855.489
01/30/2014  06:41:00        1.256       28.237       91.106       40.155       57.501       47.862     1612.449     3306.380     2290.785        0.815        0.360       28.265       37.401        1.751      334.011        3.703      855.507
01/30/2014  06:42:00      -45.476      -56.891       33.910       55.542       59.899       41.489     3084.880     3587.843     1721.296        0.742        0.420       72.833       28.728        0.156      334.058        3.780      855.526
01/30/2014  06:43:00      -46.782      -19.759       12.388       29.299       35.535       22.527      858.444     1262.713      507.478        0.268        0.131       50.783       15.898        0.098      334.243        4.088      855.539
01/30/2014  06:44:00       38.519      -70.360       23.646       61.042       67.269       38.479     3726.186     4525.129     1480.670        0.836        0.487       80.214       38.407        0.229      334.090        3.833      855.540
01/30/2014  06:45:00       -5.304        0.893       45.126       24.062       37.003       25.825      578.978     1369.217      666.927        0.234        0.131        5.379       24.519       20.779      334.094        3.839      855.557
01/30/2014  06:46:00      -16.931       -1.971       12.490       17.804       23.467       19.609      316.967      550.700      384.498        0.085        0.063       17.045       15.889        0.869      334.198        4.013      855.586
01/30/2014  06:47:00      -14.243      -20.713        9.036       34.284       28.801       20.837     1175.366      829.470      434.176        0.158        0.122       25.137       15.817        0.396      334.246        4.092      855.596
01/30/2014  06:48:00      -47.414      -45.769        4.817       27.602       34.086       16.282      761.892     1161.867      265.118        0.328        0.109       65.901        9.237        0.020      334.252        4.101      855.579
01/30/2014  06:49:00       20.413      -52.739        6.447       36.797       30.385       31.310     1354.038      923.278      980.308        0.325        0.163       56.552       27.356        0.234      334.276        4.141      855.547
01/30/2014  06:50:00      -18.803      -14.751      -10.137       26.362       41.003       23.089      694.945     1681.207      533.089        0.179        0.145       23.899       22.956        0.923      334.178        3.979      855.516
01/30/2014  06:51:00      -18.196      -11.728       -5.978       32.914       23.055       19.135     1083.336      531.518      366.136        0.124        0.099       21.648       16.341        0.570      334.081        3.819      855.494
01/30/2014  06:52:00      -48.685      -69.900       13.786       43.231       37.231       23.215     1868.950     1386.118      538.950        0.562        0.190       85.184       18.509        0.047      334.194        4.005      855.492
01/30/2014  06:53:00      -10.045      -82.394       -3.025       34.525       50.368       27.040     1192.006     2536.984      731.161        0.568        0.223       83.005       27.792        0.112      334.257        4.111      855.525
01/30/2014  06:54:00      -37.968      -58.715       -1.076       35.711       45.002       27.863     1275.306     2025.153      776.365        0.448        0.204       69.922       25.018        0.128      334.269        4.131      855.578
01/30/2014  06:55:00       -7.034      -58.748      -14.664       42.968       28.541       24.820     1846.266      814.573      616.013        0.350        0.164       59.167       10.672        0.033      334.271        4.135      855.626
01/30/2014  06:56:00      -44.444      -30.650       18.225       46.775       33.137       22.461     2187.886     1098.070      504.517        0.352        0.190       53.988       13.881        0.066      334.254        4.107      855.649
01/30/2014  06:57:00       17.829      -29.111       15.503       31.028       33.459       24.897      962.708     1119.519      619.859        0.205        0.135       34.136       20.436        0.358      334.244        4.089      855.665
01/30/2014  06:58:00        5.788      -76.757       -3.601       45.713       26.949       27.607     2089.721      726.228      762.126        0.476        0.179       76.975       27.737        0.130      334.219        4.048      855.664
01/30/2014  06:59:00      -48.932        3.699      -10.637       19.201       37.157       15.023      368.680     1380.620      225.679        0.225        0.099       49.072        4.030        0.007      334.137        3.911      855.629
01/30/2014  07:00:00      -15.367       -5.930        7.272       21.575       28.207       19.739      465.463      795.626      389.612        0.099        0.083       16.471       11.680        0.503      334.083        3.821      855.571
01/30/2014  07:01:00       16.990      -29.421        6.755       43.332       24.830       22.405     1877.691      616.532      501.964        0.210        0.150       33.974       15.952        0.220      334.145        3.924      855.512
01/30/2014  07:02:00       34.209      -61.398       11.480       94.932       66.253       32.740     9012.141     4389.425     1071.893        0.977        0.724       70.285       39.292        0.313      334.079        3.814      855.468
01/30/2014  07:03:00       38.413      -26.259       26.801       35.488       65.559       32.526     1259.384     4297.963     1057.933        0.475        0.331       46.531       39.909        0.736      334.115        3.874      855.458
01/30/2014  07:04:00        5.616       -9.998       16.230       49.994       39.692       37.301     2499.431     1575.436     1391.397        0.293        0.273       11.468       34.369        8.982      334.107        3.862      855.465
01/30/2014  07:05:00      -15.603      -12.850       19.445       24.255       51.348       38.909      588.290     2636.569     1513.930        0.276        0.237       20.213       38.225        3.576      334.017        3.711      855.459
01/30/2014  07:06:00      -66.927      -87.829        4.182       45.705       56.242       32.964     2088.941     3163.173     1086.652        0.927        0.317      110.423       29.390        0.071      334.021        3.720      855.468
01/30/2014  07:07:00      -34.944      -32.065       33.867       36.381       50.639       23.971     1323.588     2564.343      574.632        0.393        0.223       47.426       18.685        0.155      334.052        3.769      855.464
01/30/2014  07:08:00      -14.673        0.965       10.474       32.168       30.857       21.792     1034.761      952.161      474.877        0.139        0.123       14.705       13.913        0.895      333.966        3.630      855.466
01/30/2014  07:09:00      -13.853       -6.776       16.623       23.638       26.976       21.074      558.747      727.705      444.095        0.112        0.087       15.421       12.253        0.631      333.959        3.618      855.460
01/30/2014  07:10:00      -47.953       -1.772       -2.403       28.042       29.406       21.575      786.347      864.737      465.481        0.221        0.106       47.985       14.644        0.093      333.920        3.553      855.449
01/30/2014  07:11:00      -19.688      -19.505        7.821       37.381       18.090       15.862     1397.333      327.264      251.615        0.140        0.099       27.714       14.317        0.267      334.034        3.739      855.442
01/30/2014  07:12:00        2.374      -30.945       -7.936       38.471       34.312       31.296     1480.031     1177.296      979.470        0.233        0.182       31.036       21.202        0.467      334.078        3.813      855.433
01/30/2014  07:13:00      -63.737      -46.156       -7.426       53.888       29.300       21.561     2903.878      858.509      464.878        0.524        0.211       78.694       17.619        0.050      333.974        3.640      855.441
01/30/2014  07:14:00       11.174       11.910        0.159       22.172       26.863       21.140      491.617      721.629      446.898        0.096        0.083       16.332       15.652        0.919      333.953        3.608      855.443
01/30/2014  07:15:00      -14.068       -3.689        7.193       34.731       23.883       18.598     1206.242      570.391      345.885        0.119        0.106       14.544       15.913        1.197      334.003        3.689      855.454
01/30/2014  07:16:00      -11.864        6.898       -2.513       22.699       18.454       20.291      515.263      340.542      411.722        0.073        0.063       13.724       14.376        1.097      334.001        3.688      855.468
01/30/2014  07:17:00      -13.766      -15.449       -6.927       36.009       35.261       21.654     1296.669     1243.359      468.887        0.174        0.150       20.693       20.809        1.011      333.999        3.684      855.468
01/30/2014  07:18:00      -30.273       24.698       -8.893       34.025       30.568       22.335     1157.675      934.401      498.840        0.210        0.130       39.070       17.885        0.210      333.892        3.505      855.474
01/30/2014  07:19:00       -8.424        1.748       22.225       12.439       15.179       17.764      154.729      230.401      315.571        0.063        0.035        8.603        6.967        0.656      333.994        3.674      855.487
01/30/2014  07:20:00      -22.971      -14.569       -0.603       22.767       41.515       17.372      518.327     1723.474      301.786        0.164        0.127       27.201       16.694        0.377      333.977        3.646      855.498
01/30/2014  07:21:00      -19.968      -25.726      -13.646       26.599       30.526       16.897      707.493      931.811      285.515        0.159        0.096       32.566       14.669        0.203      334.014        3.708      855.499
01/30/2014  07:22:00       -6.327       18.459       10.827       23.501       28.467       17.717      552.278      810.374      313.897        0.109        0.084       19.513       12.882        0.436      333.978        3.649      855.481
01/30/2014  07:23:00       -6.794       -4.424        3.799       19.289       20.775       14.406      372.076      431.582      207.519        0.055        0.051        8.107        9.914        1.495      333.878        3.482      855.448
01/30/2014  07:24:00      -41.353       -2.932      -15.055       39.491       27.488       17.309     1559.574      755.618      299.616        0.228        0.131       41.457        9.152        0.049      333.932        3.572      855.405
01/30/2014  07:25:00       14.381      -34.704       12.602       39.367       63.800       37.558     1549.733     4070.380     1410.592        0.430        0.352       37.566       44.193        1.384      333.851        3.437      855.369
01/30/2014  07:26:00      -16.491       -4.187       29.940       27.685       33.523       27.311      766.437     1123.772      745.866        0.191        0.132       17.014       13.398        0.620      333.938        3.582      855.356
01/30/2014  07:27:00       19.401      -28.086        6.450       70.108       45.647       27.188     4915.176     2083.650      739.200        0.447        0.387       34.136       29.515        0.748      333.819        3.385      855.368
01/30/2014  07:28:00       -7.170      -76.611       -4.610       37.468       49.587       28.258     1403.851     2458.853      798.532        0.530        0.233       76.945       26.688        0.120      333.932        3.573      855.387
01/30/2014  07:29:00      -73.687      -48.650       -4.591       32.272       32.132       18.240     1041.504     1032.484      332.708        0.511        0.120       88.298       14.252        0.026      333.841        3.421      855.414
01/30/2014  07:30:00      -37.698      -13.963        8.228       41.567       35.395       20.366     1727.791     1252.801      414.779        0.254        0.170       40.201       24.480        0.371      333.858        3.449      855.442
01/30/2014  07:31:00      -26.418      -14.036       -4.354       44.682       24.417       14.920     1996.477      596.214      222.617        0.186        0.141       29.915       11.141        0.139      333.862        3.455      855.477
01/30/2014  07:32:00        4.483      -29.613       -3.692       24.138       19.585       22.875      582.660      383.588      523.255        0.120        0.074       29.950       17.123        0.327      333.917        3.548      855.509
01/30/2014  07:33:00       -4.646      -31.034       -3.767       32.424       20.124       17.689     1051.337      404.966      312.918        0.138        0.088       31.380        8.268        0.069      333.961        3.620      855.528
01/30/2014  07:34:00      -48.882      -32.546        5.433       47.192       25.170       20.960     2227.046      633.528      439.337        0.339        0.165       58.725       16.484        0.079      333.879        3.484      855.559
01/30/2014  07:35:00      -24.286      -13.994       17.771       41.871       29.605       22.663     1753.168      876.440      513.589        0.212        0.157       28.030       20.714        0.546      333.924        3.558      855.582
01/30/2014  07:36:00      -63.485      -38.549       18.376       60.012       52.656       36.037     3601.408     2772.616     1298.693        0.676        0.384       74.272       32.921        0.196      333.836        3.412      855.591
01/30/2014  07:37:00      -28.529      -38.093       13.719       38.190       23.103       19.030     1458.468      533.740      362.147        0.240        0.118       47.592        5.696        0.014      333.829        3.399      855.609
01/30/2014  07:38:00      -34.667        4.462       24.168       29.225       36.347       20.719      854.103     1321.085      429.264        0.220        0.130       34.953       18.231        0.272      333.834        3.407      855.622
01/30/2014  07:39:00      -30.220      -42.429        2.860       69.692       39.747       29.793     4856.964     1579.853      887.649        0.502        0.366       52.091       25.370        0.237      333.797        3.348      855.658
01/30/2014  07:40:00      -24.808      -51.893       -8.105       50.110       34.236       28.063     2510.982     1172.131      787.529        0.392        0.224       57.518       22.993        0.160      333.848        3.432      855.711
01/30/2014  07:41:00      -76.585      -65.599       -3.211       69.395       35.017       26.594     4815.614     1226.190      707.217        0.846        0.337      100.839       23.394        0.054      333.725        3.228      855.748
01/30/2014  07:42:00      -78.077      -74.547        0.095       61.555       41.867       31.152     3789.008     1752.881      970.467        0.908        0.326      107.950       30.883        0.082      333.613        3.043      855.757
01/30/2014  07:43:00      -32.719      -56.443        0.519       39.718       42.252       21.735     1577.524     1785.220      472.398        0.405        0.192       65.241       15.901        0.059      333.659        3.119      855.745
01/30/2014  07:44:00       -9.171      -25.350        6.741       24.772       32.211       21.225      613.666     1037.539      450.480        0.144        0.105       26.958       11.351        0.177      333.726        3.230      855.720
01/30/2014  07:45:00      -39.018      -20.974        2.058       35.375       34.799       14.651     1251.373     1210.973      214.657        0.232        0.134       44.298        9.564        0.047      333.682        3.158      855.685
01/30/2014  07:46:00      -13.513       21.907       -2.289       35.220       22.526       24.372     1240.439      507.415      593.986        0.150        0.117       25.739       13.467        0.274      333.640        3.089      855.650
01/30/2014  07:47:00       15.204       16.024       51.924       26.892       22.365       17.696      723.195      500.202      313.138        0.236        0.077       22.089       11.270        0.260      333.640        3.089      855.624
01/30/2014  07:48:00       41.550       26.790       51.829       32.214       29.595       20.490     1037.757      875.880      419.856        0.373        0.117       49.438       18.817        0.145      333.527        2.901      855.615
01/30/2014  07:49:00       25.210      -39.221       -2.768       32.743       57.970       35.153     1072.108     3360.527     1235.708        0.392        0.283       46.625       31.253        0.449      333.627        3.066      855.618
01/30/2014  07:50:00      -53.319      -13.799      -19.483       23.330       30.562       19.260      544.302      934.035      370.949        0.263        0.092       55.076       17.090        0.096      333.656        3.113      855.630
01/30/2014  07:51:00      -32.276      -11.215        5.356       31.648       26.058       20.690     1001.626      679.025      428.080        0.165        0.105       34.169       17.851        0.273      333.719        3.218      855.637
01/30/2014  07:52:00      -57.925      -31.678       -9.288       24.746       14.771       12.238      612.340      218.171      149.767        0.271        0.049       66.021       10.520        0.025      333.476        2.816      855.633
01/30/2014  07:53:00      -29.577      -12.765        6.314       23.206       17.893       12.312      538.529      320.159      151.573        0.104        0.051       32.215        8.073        0.063      333.595        3.013      855.614
01/30/2014  07:54:00       -0.039      -22.168       -2.019       18.287       19.715       16.919      334.431      388.692      286.264        0.075        0.050       22.168       11.074        0.250      333.725        3.229      855.580
01/30/2014  07:55:00      -19.291       -9.285       -4.126       15.531       13.932       13.241      241.205      194.089      175.327        0.054        0.031       21.410       10.939        0.261      333.574        2.979      855.524
01/30/2014  07:56:00      -12.460       29.078       14.758       12.523       25.780       20.995      156.827      664.610      440.774        0.124        0.063       31.635       17.453        0.304      333.658        3.118      855.470
01/30/2014  07:57:00       -8.831       28.680        8.524       18.119       32.347       14.444      328.316     1046.311      208.642        0.128        0.079       30.009       10.528        0.123      333.574        2.977      855.426
01/30/2014  07:58:00      -21.445       -3.740        2.367       20.666       19.112       14.811      427.066      365.280      219.376        0.075        0.051       21.768       16.098        0.547      333.631        3.075      855.391
01/30/2014  07:59:00      -64.797        3.537      -10.478       12.601       23.749        5.816      158.792      563.994       33.826        0.254        0.038       64.893       12.502        0.037      333.635        3.080      855.382
01/30/2014  08:00:00      -81.000      -27.000       -3.000        0.000        0.000        0.000        0.000        0.000        0.000        0.365        0.000       85.381        0.000        0.000      333.660        3.130      855.370
01/30/2014  08:01:00      -24.619       15.721       -5.397       32.777       23.291       24.942     1074.348      542.449      622.085        0.156        0.112       29.210       19.813        0.460      333.637        3.087      855.362
01/30/2014  08:02:00      -22.000       33.000      -28.000        0.000        0.000        0.000        0.000        0.000        0.000        0.118        0.000       39.661        0.000        0.000      333.560        2.960      855.360
01/30/2014  08:03:00      -10.800        4.887        8.582       18.109       29.515       31.151      327.923      871.149      970.376        0.119        0.108       11.854       17.167        2.097      333.602        3.025      855.371
01/30/2014  08:04:00       47.482      -21.760       13.503       46.922       29.417       26.549     2201.698      865.354      704.861        0.334        0.189       52.230       22.995        0.194      333.540        2.923      855.382
01/30/2014  08:05:00       -9.896        7.871        4.558       34.867       13.728       16.913     1215.690      188.459      286.049        0.094        0.085       12.645       15.050        1.417      333.595        3.017      855.412
01/30/2014  08:06:00      -39.963      -14.336      -14.743       39.912       22.872       12.431     1592.999      523.123      154.518        0.214        0.114       42.456       15.393        0.131      333.640        3.088      855.450
01/30/2014  08:07:00       -9.601       -7.835       -7.193       20.654       13.449       19.635      426.588      180.883      385.545        0.060        0.050       12.392       11.796        0.906      333.617        3.054      855.481
01/30/2014  08:08:00      -17.824      -45.773      -22.854       30.651       48.217       21.233      939.464     2324.919      450.826        0.332        0.186       49.120       18.135        0.136      333.628        3.066      855.530
01/30/2014  08:09:00        3.840      -50.544       11.634       35.212       59.823       25.795     1239.895     3578.843      665.356        0.409        0.274       50.689       32.812        0.419      333.554        2.944      855.556
01/30/2014  08:10:00      -14.290       19.107       42.249       24.961       46.755       23.733      623.040     2186.010      563.234        0.286        0.169       23.859       15.142        0.403      333.426        2.733      855.556
01/30/2014  08:11:00        9.391       18.338       48.917       30.977       47.766       32.967      959.597     2281.603     1086.836        0.357        0.216       20.602       34.348        2.780      333.454        2.779      855.545
01/30/2014  08:12:00       43.929      -27.274       25.280       37.993       41.158       27.879     1443.430     1693.986      777.212        0.361        0.196       51.708       18.920        0.134      333.433        2.744      855.539
01/30/2014  08:13:00       51.545      -91.903       -1.989       30.626       33.523       21.376      937.947     1123.782      456.933        0.681        0.126      105.371       19.401        0.034      333.446        2.766      855.552
01/30/2014  08:14:00       19.248      -55.037      -11.687       33.512       30.266       21.630     1123.070      916.003      467.842        0.302        0.125       58.306       17.471        0.090      333.605        3.030      855.583
01/30/2014  08:15:00        8.020        3.333       12.997       22.438       23.698       21.127      503.446      561.600      446.360        0.088        0.076        8.685       15.579        3.218      333.590        3.004      855.619
01/30/2014  08:16:00      -23.250      -25.148        1.982       38.313       30.335       22.806     1467.918      920.189      520.103        0.204        0.145       34.248       16.267        0.226      333.502        2.859      855.678
01/30/2014  08:17:00        4.998      -37.068        2.403       24.904       28.859       19.640      620.203      832.825      385.744        0.162        0.092       37.403        8.917        0.057      333.557        2.951      855.747
01/30/2014  08:18:00      -65.941      -48.250       14.458       50.984       37.049       28.310     2599.365     1372.596      801.464        0.583        0.239       81.708       23.379        0.082      333.461        2.789      855.831
01/30/2014  08:19:00      -87.020     -135.584       15.447       49.812       50.951       33.029     2481.268     2595.975     1090.891        1.618        0.308      161.107       31.496        0.038      333.389        2.668      855.900
01/30/2014  08:20:00     -112.982      -67.324       10.540       88.105       54.547       36.575     7762.545     2975.407     1337.753        1.474        0.604      131.519       35.826        0.074      333.423        2.730      855.931
01/30/2014  08:21:00     -119.085      -92.789       -8.955       46.806       50.143       27.795     2190.809     2514.332      772.563        1.417        0.274      150.967       19.587        0.017      333.385        2.664      855.958
01/30/2014  08:22:00     -103.243      -94.875       14.314       84.378       69.672       36.369     7119.631     4854.197     1322.727        1.658        0.665      140.215       43.730        0.097      333.351        2.605      855.989
01/30/2014  08:23:00     -112.705     -123.697       -5.761       43.344       66.516       26.983     1878.714     4424.345      728.101        1.753        0.352      167.343        8.489        0.003      333.239        2.423      856.004
01/30/2014  08:24:00     -135.262      -90.030       -7.541       46.129       36.366       31.075     2127.898     1322.509      965.644        1.544        0.221      162.484       19.051        0.014      333.202        2.363      856.002
01/30/2014  08:25:00      -52.929      -89.963       -2.438       24.246       65.813       21.934      587.851     4331.396      481.113        0.815        0.270      104.378       14.214        0.019      333.198        2.356      855.998
01/30/2014  08:26:00      -86.725      -31.324      -17.423       10.695       19.161       14.362      114.381      367.127      206.270        0.475        0.034       92.209       10.791        0.014      333.344        2.602      855.989
01/30/2014  08:27:00      -84.846     -101.146      -29.852       54.411       76.633       46.812     2960.527     5872.654     2191.383        1.467        0.551      132.020       62.844        0.227      333.106        2.202      855.958
01/30/2014  08:28:00      -88.979     -132.949      -21.980       54.385       72.270       47.543     2957.730     5222.889     2260.384        1.826        0.522      159.977       60.004        0.141      333.082        2.162      855.942
01/30/2014  08:29:00      -83.191      -55.173      -22.125       42.690       35.380       29.891     1822.433     1251.742      893.469        0.721        0.198       99.824       27.561        0.076      333.185        2.336      855.931
01/30/2014  08:30:00      -92.360     -105.528       -2.039       34.941       40.003       27.961     1220.892     1600.212      781.834        1.164        0.180      140.237       20.411        0.021      333.176        2.319      855.956
01/30/2014  08:31:00      -82.468      -82.649        0.971       40.558       55.313       24.040     1644.962     3059.561      577.910        0.946        0.264      116.755       19.985        0.029      333.163        2.297      855.977
01/30/2014  08:32:00     -130.095     -127.971       -9.424       45.965       48.887       30.035     2112.767     2389.937      902.103        1.940        0.270      182.486       29.251        0.026      333.091        2.177      856.009
01/30/2014  08:33:00     -109.231      -82.634       20.497       55.288       95.825       49.579     3056.742     9182.491     2458.102        1.694        0.735      136.966       64.426        0.221      332.952        1.949      856.039
01/30/2014  08:34:00      -77.751       -8.699       31.250       61.461       87.188       51.046     3777.433     7601.799     2605.665        1.054        0.699       78.236       65.252        0.696      332.868        1.811      856.060
01/30/2014  08:35:00     -100.756      -82.080        0.542       58.172       37.854       30.266     3383.989     1432.955      916.002        1.131        0.287      129.957       29.762        0.052      333.198        2.356      856.063
01/30/2014  08:36:00      -69.796      -33.215       10.663       42.901       36.963       21.066     1840.472     1366.247      443.762        0.487        0.183       77.296       17.078        0.049      333.294        2.514      856.063
01/30/2014  08:37:00      -96.338      -88.712       -9.081       41.019       49.436       23.342     1682.524     2443.910      544.850        1.095        0.234      130.962       21.092        0.026      333.243        2.428      856.059
01/30/2014  08:38:00      -35.061      -62.306        3.488       28.535       30.105       16.268      814.233      906.286      264.648        0.355        0.099       71.493       13.731        0.037      333.325        2.564      856.044
01/30/2014  08:39:00      -65.151      -46.423        3.209       42.934       45.567       31.321     1843.326     2076.348      980.985        0.565        0.245       79.999       31.706        0.157      333.326        2.567      856.033
01/30/2014  08:40:00     -108.815     -108.137      -33.911       72.335       87.127       54.077     5232.392     7591.036     2924.338        2.021        0.787      153.409       73.843        0.232      332.993        2.016      856.045
01/30/2014  08:41:00      -34.881      -75.737      -18.866       81.836      109.209       61.996     6697.154    11926.580     3843.528        1.488        1.123       83.384       87.338        1.097      332.597        1.362      856.043
01/30/2014  08:42:00      -65.888      -63.612      -13.239       87.617      123.365       66.556     7676.708    15218.915     4429.751        1.794        1.366       91.584       97.438        1.132      332.852        1.782      856.044
01/30/2014  08:43:00       -3.164        5.241       10.896       31.079       27.567       23.049      965.902      759.925      531.271        0.121        0.113        6.122       23.048       14.174      333.307        2.538      856.040
01/30/2014  08:44:00        6.366      -27.717        7.284       22.560       39.332       27.287      508.974     1546.975      744.575        0.183        0.140       28.439       18.212        0.410      333.344        2.598      856.022
01/30/2014  08:45:00       11.564      -33.609        3.405       19.877       33.089       29.196      395.106     1094.915      852.396        0.181        0.117       35.543       25.695        0.523      333.393        2.679      856.012
01/30/2014  08:46:00      -23.208       10.695       22.163       22.089       22.928       24.025      487.935      525.711      577.222        0.137        0.080       25.553       13.724        0.288      333.352        2.611      856.019
01/30/2014  08:47:00        1.849        8.187       28.685       28.515       38.638       20.726      813.123     1492.922      429.565        0.181        0.137        8.393       28.821       11.792      333.315        2.550      856.022
01/30/2014  08:48:00       -7.013       11.110       13.194       23.369       25.195       16.961      546.120      634.796      287.688        0.091        0.073       13.138       17.498        1.774      333.341        2.592      856.022
01/30/2014  08:49:00      -35.678      -45.051       -4.581       42.199       69.660       40.150     1780.792     4852.530     1612.008        0.578        0.412       57.468       53.816        0.877      333.191        2.344      856.025
01/30/2014  08:50:00      -44.679      -56.044       -4.299       33.408       50.713       29.907     1116.073     2571.835      894.457        0.487        0.229       71.675       38.272        0.285      333.254        2.449      856.038
01/30/2014  08:51:00       -3.342      -49.928        4.429       33.107       31.003       26.090     1096.083      961.159      680.696        0.263        0.137       50.040       25.006        0.250      333.322        2.562      856.056
01/30/2014  08:52:00       -3.965      -31.528        6.525       21.351       39.841       25.431      455.871     1587.341      646.737        0.187        0.134       31.777       26.261        0.683      333.331        2.577      856.048
01/30/2014  08:53:00      -10.133      -54.706        9.465       46.251       57.842       37.856     2139.187     3345.734     1433.055        0.505        0.346       55.637       42.503        0.584      333.158        2.288      856.029
01/30/2014  08:54:00       -5.518       20.136       69.998       31.397       60.613       24.730      985.770     3673.957      611.579        0.530        0.264       20.878       31.055        2.212      333.109        2.210      856.017
01/30/2014  08:55:00      -33.397      -16.160       35.880       34.714       30.649       26.277     1205.064      939.389      690.486        0.275        0.142       37.101        9.647        0.068      333.208        2.373      856.014
01/30/2014  08:56:00      -16.489      -27.110       15.687       25.620       31.556       26.086      656.362      995.788      680.496        0.179        0.117       31.731       24.686        0.605      333.269        2.473      856.028
01/30/2014  08:57:00      -44.138      -51.759       -3.450       20.251       26.846       19.108      410.107      720.728      365.104        0.307        0.075       68.023       11.026        0.026      333.364        2.630      856.046
01/30/2014  08:58:00      -25.510      -32.205        6.769       35.331       23.417       16.194     1248.269      548.376      262.262        0.190        0.103       41.084        8.201        0.040      333.423        2.727      856.062
01/30/2014  08:59:00       -7.018       -4.558       10.188       17.764       19.234       18.370      315.553      369.947      337.453        0.060        0.051        8.368        9.613        1.320      333.533        2.910      856.072
01/30/2014  09:00:00       23.882      -27.576       37.544       41.463       59.877       41.439     1719.187     3585.296     1717.171        0.488        0.351       36.480       33.504        0.844      333.301        2.526      856.068
01/30/2014  09:01:00       -0.541      -48.473       25.409       41.437       36.582       39.999     1717.059     1338.243     1599.959        0.382        0.233       48.476       25.178        0.270      333.321        2.559      856.047
01/30/2014  09:02:00        3.953      -35.011       36.700       27.299       38.675       22.462      745.227     1495.791      504.550        0.267        0.137       35.234       17.603        0.250      333.478        2.819      856.017
01/30/2014  09:03:00       -7.886        2.376       34.591       24.303       29.472       22.463      590.624      868.598      504.575        0.161        0.098        8.236       10.949        1.767      333.437        2.751      855.974
01/30/2014  09:04:00       -1.474       20.487       45.674       19.969       24.488       15.599      398.777      599.683      243.337        0.187        0.062       20.540       13.536        0.434      333.397        2.684      855.924
01/30/2014  09:05:00      -11.127       26.234       50.836       18.864       35.074       25.625      355.845     1230.181      656.629        0.282        0.112       28.497       20.580        0.522      333.302        2.528      855.860
01/30/2014  09:06:00      -10.785       26.321       55.619       13.931       25.228       14.183      194.085      636.427      201.147        0.247        0.052       28.444       10.132        0.127      333.324        2.563      855.802
01/30/2014  09:07:00        3.048        8.137       40.284       24.385       39.862       26.616      594.617     1589.010      708.430        0.229        0.145        8.689       27.233        9.824      333.356        2.618      855.763
01/30/2014  09:08:00       53.997      -68.559        9.237       31.887       58.344       33.372     1016.810     3404.009     1113.669        0.662        0.277       87.270       36.341        0.173      333.297        2.519      855.740
01/30/2014  09:09:00       15.811       47.328       43.063       26.834       25.702       24.144      720.051      660.611      582.944        0.315        0.098       49.899       22.382        0.201      333.283        2.495      855.741
01/30/2014  09:10:00       84.506       44.037        6.990       17.541       17.119       18.948      307.680      293.062      359.008        0.504        0.048       95.291        7.629        0.006      333.126        2.237      855.748
01/30/2014  09:11:00       62.424       53.041       31.875       29.834       31.948       21.189      890.094     1020.680      448.994        0.504        0.118       81.915       15.353        0.035      333.170        2.309      855.756
01/30/2014  09:12:00       94.109       56.986       21.668       32.472       22.797       22.274     1054.427      519.717      496.123        0.732        0.104      110.017       14.512        0.017      333.068        2.143      855.751
01/30/2014  09:13:00       70.909       26.647       46.570       36.480       28.090       28.742     1330.764      789.029      826.118        0.543        0.147       75.751       22.324        0.087      333.136        2.253      855.743
01/30/2014  09:14:00       57.716       36.117       25.024       22.331       11.659       19.400      498.690      135.924      376.364        0.314        0.051       68.085        7.639        0.013      333.102        2.197      855.745
01/30/2014  09:15:00       -0.721       22.341        2.764       18.912       12.074        6.153      357.647      145.793       37.862        0.052        0.027       22.353        4.720        0.045      333.119        2.228      855.751
01/30/2014  09:16:00      -65.860       28.331       -9.091       39.020       19.717       15.732     1522.525      388.745      247.507        0.369        0.108       71.695       15.237        0.045      333.148        2.274      855.755
01/30/2014  09:17:00      -82.914        8.135       -4.540       42.365       28.556       16.709     1794.771      815.455      279.182        0.493        0.144       83.313       18.595        0.050      333.119        2.226      855.768
01/30/2014  09:18:00      -70.651       14.099      -10.759       26.145       24.165       10.987      683.570      583.952      120.721        0.335        0.069       72.044       11.940        0.027      333.166        2.300      855.790
01/30/2014  09:19:00      -54.824       -5.185        0.503       30.598       26.359       20.724      936.232      694.779      429.496        0.255        0.103       55.069       14.829        0.073      333.302        2.527      855.830
01/30/2014  09:20:00      -20.310      -32.626       20.300       44.690       27.552       24.062     1997.182      759.119      578.971        0.261        0.167       38.432       15.560        0.164      333.465        2.795      855.878
01/30/2014  09:21:00       -7.827      -62.634       13.671       34.522       39.254       24.431     1191.736     1540.854      596.865        0.375        0.166       63.121       22.087        0.122      333.487        2.834      855.915
01/30/2014  09:22:00      -56.040      -70.528        1.211       48.584       43.254       26.632     2360.421     1870.880      709.258        0.653        0.247       90.081       26.414        0.086      333.393        2.676      855.932
01/30/2014  09:23:00      -37.632     -117.422        3.589       31.838       60.781       26.914     1013.640     3694.369      724.359        1.032        0.272      123.305       31.268        0.064      333.298        2.519      855.924
01/30/2014  09:24:00      -72.732      -63.196       -2.045       47.283       40.751       25.119     2235.683     1660.670      630.958        0.691        0.226       96.351       20.712        0.046      333.343        2.596      855.874
01/30/2014  09:25:00      -13.263      -53.423        5.614       30.334       20.834       19.628      920.163      434.047      385.242        0.240        0.087       55.045       10.239        0.035      333.383        2.662      855.808
01/30/2014  09:26:00      -33.535      -21.080       19.846       44.985       43.321       25.803     2023.672     1876.680      665.790        0.326        0.228       39.610       27.178        0.471      333.371        2.642      855.744
01/30/2014  09:27:00      -37.236        4.782        9.423       35.884       35.025       24.922     1287.631     1226.769      621.095        0.232        0.157       37.542       19.816        0.279      333.392        2.677      855.692
01/30/2014  09:28:00      -46.510      -28.141        0.862       26.983       22.452       18.989      728.098      504.108      360.572        0.227        0.080       54.361       16.598        0.093      333.357        2.619      855.687
01/30/2014  09:29:00       -8.877      -23.939        4.634       38.295       18.866       19.319     1466.480      355.913      373.235        0.143        0.110       25.532       19.252        0.569      333.507        2.868      855.698
01/30/2014  09:30:00       -2.722      -37.053        3.471       48.442       24.760       25.428     2346.580      613.082      646.605        0.250        0.180       37.153       12.030        0.105      333.545        2.930      855.739
01/30/2014  09:31:00      -21.812      -27.776       11.552       43.794       31.071       22.929     1917.919      965.400      525.743        0.239        0.170       35.317       15.258        0.187      333.526        2.898      855.799
01/30/2014  09:32:00      -51.083      -61.960        6.742       47.937       31.634       21.574     2298.001     1000.738      465.450        0.513        0.188       80.303       11.575        0.021      333.527        2.900      855.875
01/30/2014  09:33:00      -46.852      -31.609        1.350       59.797       56.453       26.159     3575.654     3186.939      684.278        0.532        0.372       56.517       24.805        0.193      333.597        3.016      855.948
01/30/2014  09:34:00       -8.571      -30.820        3.775       37.728       36.078       32.281     1423.385     1301.626     1042.054        0.240        0.188       31.990       28.156        0.775      333.688        3.167      855.999
01/30/2014  09:35:00      -26.048       -2.909       15.841       41.215       27.765       19.923     1698.645      770.868      396.907        0.190        0.143       26.209       12.450        0.226      333.705        3.193      856.030
01/30/2014  09:36:00      -16.652      -15.752       17.608       38.175       30.754       21.818     1457.322      945.819      476.042        0.186        0.144       22.922       20.902        0.832      333.696        3.181      856.046
01/30/2014  09:37:00      -13.420      -15.155       11.671       40.421       21.983       20.326     1633.850      483.241      413.145        0.154        0.127       20.243       22.512        1.237      333.738        3.250      856.056
01/30/2014  09:38:00       -2.631        1.883       12.882       20.216       20.367       15.961      408.676      414.816      254.765        0.063        0.054        3.236       10.265       10.064      333.724        3.227      856.055
01/30/2014  09:39:00      -40.764      -35.187        3.079       52.705       34.934       18.888     2777.772     1220.395      356.745        0.363        0.218       53.850       22.150        0.169      333.660        3.120      856.041
01/30/2014  09:40:00      -99.348      -48.221       -1.506       50.898       47.803       27.122     2590.571     2285.106      735.591        0.890        0.281      110.432       18.664        0.029      333.438        2.754      856.022
01/30/2014  09:41:00      -94.320      -76.502       10.881       42.556       33.000       22.962     1810.993     1089.018      527.234        0.915        0.171      121.445       16.029        0.017      333.430        2.740      856.011
01/30/2014  09:42:00      -44.775      -21.827      -11.581       16.544       36.154       17.293      273.693     1307.136      299.053        0.225        0.094       49.812       19.461        0.153      333.283        2.496      855.992
01/30/2014  09:43:00      -63.134      -34.733       -0.337       55.892       38.370       21.932     3123.955     1472.259      481.027        0.513        0.254       72.057       14.950        0.043      333.507        2.866      855.985
01/30/2014  09:44:00      -98.735      -65.768       -5.446       37.439       42.496       21.030     1401.681     1805.877      442.272        0.888        0.182      118.634       17.457        0.022      333.420        2.723      855.996
01/30/2014  09:45:00      -89.847      -53.899        4.995       53.804       41.185       29.611     2894.889     1696.217      876.810        0.823        0.273      104.774       22.141        0.045      333.438        2.753      856.019
01/30/2014  09:46:00      -35.825      -37.403       -0.537       37.532       40.007       16.538     1408.650     1600.578      273.489        0.298        0.164       51.792       15.133        0.085      333.351        2.608      856.048
01/30/2014  09:47:00      -75.239      -46.019        7.086       62.551       37.259       19.943     3912.606     1388.245      397.715        0.676        0.285       88.197       18.884        0.046      333.381        2.659      856.081
01/30/2014  09:48:00      -96.452      -50.022       -3.098       44.497       26.761       19.078     1980.000      716.152      363.962        0.744        0.153      108.652       12.479        0.013      333.338        2.586      856.101
01/30/2014  09:49:00      -40.404     -104.356        4.856       29.282       33.165       23.378      857.431     1099.911      546.516        0.752        0.125      111.905       22.298        0.040      333.428        2.737      856.114
01/30/2014  09:50:00      -39.505      -63.450       -3.329       36.640       44.063       23.612     1342.500     1941.543      557.513        0.472        0.192       74.743       23.845        0.102      333.415        2.715      856.100
01/30/2014  09:51:00      -88.132      -59.315        9.511       61.842       33.741       21.845     3824.462     1138.426      477.205        0.841        0.272      106.234       25.763        0.059      333.402        2.693      856.085
01/30/2014  09:52:00      -79.107      -76.209       11.229       64.477       48.498       29.416     4157.241     2352.010      865.277        0.978        0.369      109.845       37.668        0.118      333.379        2.654      856.087
01/30/2014  09:53:00      -83.133     -121.904       -9.714       59.472       48.987       29.912     3536.861     2399.711      894.710        1.435        0.342      147.552       17.802        0.015      333.360        2.623      856.093
01/30/2014  09:54:00     -135.939     -160.804      -11.691       33.818       24.237       20.611     1143.672      587.422      424.818        2.331        0.108      210.564       13.937        0.004      333.243        2.428      856.117
01/30/2014  09:55:00      -52.451     -114.815        1.150       40.209       44.353       24.138     1616.740     1967.193      582.638        1.005        0.208      126.228       13.295        0.011      333.370        2.638      856.151
01/30/2014  09:56:00     -144.545     -159.654       -3.948       52.976       50.173       28.534     2806.415     2517.291      814.196        2.627        0.307      215.366       20.109        0.009      333.297        2.518      856.184
01/30/2014  09:57:00     -139.844     -132.901       -6.652       49.655       44.723       25.420     2465.666     2000.147      646.172        2.119        0.256      192.923       13.700        0.005      333.298        2.520      856.224
01/30/2014  09:58:00     -135.329     -118.764      -11.085       68.261       49.329       31.916     4659.570     2433.305     1018.627        2.033        0.406      180.052       23.959        0.018      333.309        2.538      856.256
01/30/2014  09:59:00     -146.274     -125.435        4.573       79.440       46.844       39.657     6310.720     2194.314     1572.686        2.361        0.504      192.692       39.558        0.042      333.340        2.589      856.283
01/30/2014  10:00:00     -121.293     -115.537       -4.942       62.729       58.783       39.291     3934.989     3455.396     1543.795        1.851        0.447      167.514       30.094        0.032      333.322        2.559      856.305
01/30/2014  10:01:00     -114.916     -110.306       -5.300       65.577       60.506       33.245     4300.279     3660.934     1105.204        1.723        0.453      159.289       31.500        0.039      333.384        2.662      856.314
01/30/2014  10:02:00      -83.713      -95.551       -5.442       54.028       63.093       33.239     2918.992     3980.754     1104.839        1.208        0.400      127.035       27.846        0.048      333.407        2.699      856.320
01/30/2014  10:03:00      -89.119      -42.218        7.498       62.856       40.463       29.700     3950.819     1637.277      882.093        0.812        0.324       98.613       25.197        0.065      333.415        2.714      856.313
01/30/2014  10:04:00      -67.520      -42.926       -0.529       61.635       40.622       24.130     3798.902     1650.163      582.279        0.622        0.302       80.010       12.430        0.024      333.358        2.620      856.296
01/30/2014  10:05:00      -30.441     -157.057        8.921       34.358       40.713       25.623     1180.468     1657.573      656.514        1.458        0.175      159.980       20.837        0.017      333.356        2.616      856.267
01/30/2014  10:06:00       -9.266     -142.979        3.853       30.933       54.339       24.009      956.843     2952.743      576.412        1.251        0.224      143.279       18.103        0.016      333.339        2.588      856.228
01/30/2014  10:07:00      -31.681      -97.855        7.587       52.313       41.472       27.283     2736.695     1719.944      744.346        0.792        0.260      102.856       26.966        0.069      333.429        2.737      856.197
01/30/2014  10:08:00      -19.930      -24.501       13.989       33.863       55.073       25.866     1146.735     3032.991      669.044        0.302        0.242       31.584       23.562        0.557      333.430        2.739      856.170
01/30/2014  10:09:00      -85.612      -44.530       -7.290       70.465       66.738       25.339     4965.331     4453.982      642.040        0.971        0.503       96.501       25.604        0.070      333.333        2.579      856.151
01/30/2014  10:10:00     -125.816      -30.624        4.207       66.210       47.682       30.728     4383.706     2273.564      944.238        1.219        0.380      129.490       23.040        0.032      333.339        2.589      856.129
01/30/2014  10:11:00     -169.368      -34.786       -8.533       43.855       36.009       27.057     1923.270     1296.617      732.103        1.696        0.198      172.904       24.865        0.021      333.279        2.490      856.101
01/30/2014  10:12:00      -81.595      -26.089       -0.217       42.904       20.471       20.920     1840.756      419.081      437.630        0.502        0.135       85.664       23.990        0.078      333.288        2.504      856.080
01/30/2014  10:13:00      -68.027       -9.563        4.903       50.910       26.131       21.786     2591.817      682.829      474.626        0.425        0.187       68.696       27.851        0.164      333.448        2.770      856.046
01/30/2014  10:14:00      -98.488      -51.603        6.067       36.262       33.686       20.765     1314.938     1134.773      431.199        0.764        0.144      111.188       13.156        0.014      333.446        2.765      856.022
01/30/2014  10:15:00     -123.283      -77.078       -4.134       41.406       22.201       19.970     1714.458      492.889      398.814        1.188        0.130      145.395       18.402        0.016      333.295        2.517      856.006
01/30/2014  10:16:00      -85.505      -48.893        4.556       27.488       30.989       17.207      755.565      960.339      296.081        0.587        0.101       98.497       12.983        0.017      333.359        2.621      856.000
01/30/2014  10:17:00      -34.980      -51.174       13.393       48.573       33.386       27.543     2359.300     1114.630      758.621        0.413        0.212       61.987       27.162        0.192      333.491        2.838      856.013
01/30/2014  10:18:00      -58.281     -109.570        0.691       32.362       32.823       26.125     1047.272     1077.380      682.515        0.910        0.140      124.106       20.183        0.026      333.465        2.797      856.034
01/30/2014  10:19:00      -68.441      -40.969      -10.114       45.838       30.035       18.260     2101.149      902.130      333.413        0.490        0.167       79.766       21.845        0.075      333.380        2.656      856.057
01/30/2014  10:20:00      -48.833      -33.692       11.790       60.719       35.163       22.411     3686.854     1236.469      502.260        0.454        0.271       59.328       22.546        0.144      333.539        2.920      856.079
01/30/2014  10:21:00      -46.103      -32.375       16.354       42.809       31.274       24.974     1832.612      978.092      623.678        0.344        0.172       56.335       18.953        0.113      333.566        2.965      856.093
01/30/2014  10:22:00      -10.858        3.113       10.680       33.680       18.681       21.726     1134.314      348.985      472.029        0.110        0.098       11.295       11.889        1.108      333.596        3.014      856.114
01/30/2014  10:23:00      -19.479      -18.300       -6.698       29.799       28.797       14.929      887.955      829.272      222.879        0.135        0.097       26.727       16.503        0.381      333.577        2.983      856.142
01/30/2014  10:24:00      -26.105      -48.869       -0.524       24.860       30.280       19.363      618.041      916.863      374.936        0.249        0.095       55.404       11.019        0.040      333.730        3.237      856.173
01/30/2014  10:25:00      -11.414       -7.378       14.089       38.478       20.999       23.189     1480.548      440.937      537.729        0.142        0.123       13.591       25.119        3.416      333.804        3.359      856.210
01/30/2014  10:26:00      -23.550      -79.211        0.158       32.524       32.873       27.841     1057.821     1080.661      775.138        0.487        0.146       82.638       14.248        0.030      333.725        3.227      856.236
01/30/2014  10:27:00      -26.234      -87.914        0.759       28.618       43.075       24.567      819.007     1855.487      603.528        0.585        0.164       91.744        8.618        0.009      333.740        3.252      856.256
01/30/2014  10:28:00       -6.353      -21.922        5.222       35.207       33.216       31.298     1239.536     1103.284      979.558        0.193        0.166       22.824       32.315        2.005      333.920        3.551      856.264
01/30/2014  10:29:00      -48.885      -35.329       -5.198       36.211       25.345       24.022     1311.258      642.393      577.077        0.310        0.127       60.315       22.120        0.134      333.870        3.469      856.261
01/30/2014  10:30:00       -0.634      -20.046        6.308       27.770       17.657       15.080      771.182      311.782      227.406        0.088        0.066       20.056        8.556        0.182      333.982        3.655      856.262
01/30/2014  10:31:00      -61.907      -34.461       -6.461       31.504       35.211       16.560      992.503     1239.834      274.245        0.378        0.125       70.852        9.643        0.019      333.836        3.414      856.270
01/30/2014  10:32:00      -55.739      -81.346       -9.774       41.250       47.083       24.548     1701.548     2216.849      602.591        0.717        0.226       98.610       21.323        0.047      333.912        3.538      856.285
01/30/2014  10:33:00      -58.966      -61.898       -3.940       46.360       39.322       25.262     2149.221     1546.253      638.146        0.583        0.217       85.489        6.868        0.006      333.818        3.383      856.293
01/30/2014  10:34:00      -25.922      -26.032       21.100       29.704       38.166       21.787      882.337     1456.628      474.674        0.230        0.141       36.737       16.053        0.191      333.966        3.628      856.298
01/30/2014  10:35:00      -21.060      -16.092       15.735       42.530       29.120       21.139     1808.766      847.968      446.862        0.203        0.155       26.504       20.335        0.589      333.995        3.677      856.298
01/30/2014  10:36:00      -47.036       -6.339       13.015       60.267       39.889       26.320     3632.143     1591.094      692.754        0.417        0.296       47.461       32.280        0.463      333.774        3.309      856.288
01/30/2014  10:37:00      -35.745       -1.956        4.745       36.289       24.675       23.572     1316.865      608.855      555.620        0.189        0.124       35.798       22.950        0.411      333.734        3.245      856.284
01/30/2014  10:38:00      -13.940      -32.743       11.511       33.277       30.800       23.417     1107.359      948.654      548.338        0.200        0.130       35.587       14.238        0.160      333.848        3.433      856.270
01/30/2014  10:39:00      -51.999      -97.861        8.164       43.441       35.476       35.102     1887.101     1258.576     1232.149        0.836        0.219      110.818       18.746        0.029      333.912        3.537      856.251
01/30/2014  10:40:00      -30.841      -28.646       -4.433       32.758       27.357       22.104     1073.073      748.411      488.580        0.205        0.116       42.092        9.522        0.051      333.984        3.659      856.251
01/30/2014  10:41:00      -24.370      -37.420        9.382       44.067       34.656       26.306     1941.915     1201.005      691.983        0.296        0.192       44.656       21.169        0.225      334.037        3.745      856.260
01/30/2014  10:42:00      -55.938      -23.881        8.508       38.844       34.183       24.094     1508.841     1168.485      580.519        0.351        0.163       60.822       14.533        0.057      333.941        3.587      856.260
01/30/2014  10:43:00      -46.008      -42.384        9.774       44.380       37.749       26.160     1969.582     1425.021      684.352        0.404        0.204       62.555       26.030        0.173      333.961        3.620      856.271
01/30/2014  10:44:00      -29.282      -59.092       13.906       39.945       44.887       20.750     1595.570     2014.832      430.572        0.429        0.202       65.949       15.480        0.055      333.957        3.614      856.283
01/30/2014  10:45:00      -47.122     -117.251       -2.065       49.730       71.850       31.162     2473.032     5162.457      971.060        1.229        0.430      126.366       33.346        0.070      333.695        3.178      856.281
01/30/2014  10:46:00      -63.629      -77.990       -2.203       48.031       59.475       31.505     2306.997     3537.236      992.541        0.849        0.342      100.653       28.607        0.081      333.702        3.189      856.297
01/30/2014  10:47:00      -83.790      -86.567       -1.773       50.479       43.539       25.377     2548.168     1895.666      644.008        0.980        0.254      120.476       21.353        0.031      333.773        3.306      856.283
01/30/2014  10:48:00      -83.503      -51.167       15.478       57.104       47.392       30.165     3260.846     2246.046      909.938        0.812        0.321       97.933       27.125        0.077      333.803        3.358      856.293
01/30/2014  10:49:00      -77.428     -106.050        9.580       52.311       73.608       32.926     2736.419     5418.141     1084.114        1.328        0.462      131.307       31.978        0.059      333.710        3.202      856.294
01/30/2014  10:50:00      -83.365      -95.954       -0.120       56.473       56.678       24.035     3189.164     3212.369      577.699        1.157        0.349      127.109       25.139        0.039      333.658        3.116      856.291
01/30/2014  10:51:00      -25.588      -35.684       11.860       49.240       37.604       22.591     2424.616     1414.071      510.335        0.321        0.217       43.910       18.065        0.169      333.725        3.228      856.270
01/30/2014  10:52:00      -39.393      -27.802        9.047       43.722       25.726       22.059     1911.576      661.850      486.604        0.273        0.153       48.216       23.211        0.232      333.759        3.285      856.260
01/30/2014  10:53:00      -53.059      -41.494        5.944       55.677       38.935       22.311     3099.952     1515.930      497.795        0.484        0.256       67.357       23.788        0.125      333.667        3.133      856.248
01/30/2014  10:54:00      -57.809      -81.735        1.253       51.951       47.286       25.271     2698.935     2235.919      638.643        0.780        0.279      100.112       24.910        0.062      333.633        3.075      856.241
01/30/2014  10:55:00     -100.071      -49.172       -4.441       45.758       53.702       34.527     2093.781     2883.900     1192.108        0.931        0.308      111.499       19.767        0.031      333.631        3.073      856.224
01/30/2014  10:56:00      -98.383      -71.843        2.972       59.271       40.808       33.066     3513.033     1665.327     1093.382        1.056        0.314      121.823       32.688        0.072      333.597        3.016      856.228
01/30/2014  10:57:00     -125.028     -102.831       -5.250       51.292       56.661       31.882     2630.886     3210.497     1016.446        1.654        0.343      161.883       23.969        0.022      333.595        3.011      856.214
01/30/2014  10:58:00     -128.106     -150.702      -13.435       53.990       61.758       30.376     2914.964     3814.038      922.720        2.348        0.383      197.793       24.856        0.016      333.525        2.893      856.224
01/30/2014  10:59:00      -74.146     -125.871      -13.774       69.793       68.967       35.950     4871.123     4756.418     1292.374        1.622        0.546      146.087       31.979        0.048      333.468        2.800      856.226
01/30/2014  11:00:00      -99.779      -93.082       -1.823       82.589       44.483       31.159     6820.949     1978.773      970.906        1.420        0.489      136.456       38.609        0.080      333.477        2.817      856.230
01/30/2014  11:01:00     -122.844      -45.147       13.999       73.153       46.770       30.895     5351.309     2187.465      954.526        1.291        0.425      130.878       36.181        0.076      333.583        2.991      856.216
01/30/2014  11:02:00      -53.770     -143.856       -2.817       37.394       37.589       24.528     1398.310     1412.952      601.635        1.350        0.171      153.576       12.798        0.007      333.589        3.002      856.216
01/30/2014  11:03:00      -69.046      -64.685       -3.585       49.109       37.963       26.414     2411.698     1441.194      697.678        0.676        0.228       94.612       16.617        0.031      333.667        3.131      856.216
01/30/2014  11:04:00      -94.572      -96.340       -2.162       42.805       37.573       22.284     1832.270     1411.746      496.572        1.098        0.187      135.001       17.058        0.016      333.628        3.066      856.209
01/30/2014  11:05:00      -86.514      -55.207        8.581       70.022       45.609       28.100     4903.040     2080.176      789.590        0.919        0.389      102.628       30.512        0.088      333.654        3.111      856.199
01/30/2014  11:06:00      -95.915     -110.965       -3.231       71.089       55.101       24.678     5053.666     3036.087      609.023        1.511        0.435      146.673       31.683        0.047      333.642        3.089      856.199
01/30/2014  11:07:00      -92.125     -102.198       -7.696       53.958       58.763       28.618     2911.513     3453.073      818.981        1.309        0.359      137.591       21.668        0.025      333.590        3.005      856.175
01/30/2014  11:08:00      -91.187      -75.326        2.716       72.501       59.908       28.410     5256.441     3588.962      807.107        1.182        0.483      118.276       32.157        0.074      333.594        3.011      856.162
01/30/2014  11:09:00     -111.194      -56.611       11.313       61.645       52.765       29.846     3800.059     2784.151      890.786        1.158        0.374      124.776       19.974        0.026      333.665        3.128      856.156
01/30/2014  11:10:00     -129.013      -78.612       -9.558       61.084       53.412       29.420     3731.287     2852.855      865.515        1.518        0.372      151.077       27.171        0.032      333.581        2.990      856.159
01/30/2014  11:11:00      -86.272     -123.878      -12.232       40.432       53.411       29.773     1634.739     2852.725      886.439        1.416        0.269      150.959       28.936        0.037      333.617        3.049      856.136
01/30/2014  11:12:00     -103.255      -77.327      -10.559       54.050       36.042       24.039     2921.366     1299.012      577.875        1.077        0.240      129.000       18.150        0.020      333.653        3.109      856.133
01/30/2014  11:13:00      -71.521      -42.132       -7.613       48.751       38.750       17.793     2376.669     1501.524      316.590        0.557        0.210       83.008       18.138        0.048      333.758        3.283      856.131
01/30/2014  11:14:00      -40.669      -22.668        7.268       27.535       29.836       22.783      758.152      890.216      519.076        0.219        0.108       46.560       16.459        0.125      333.872        3.473      856.126
01/30/2014  11:15:00      -72.275      -60.881        5.484       46.290       33.267       21.828     2142.767     1106.685      476.440        0.634        0.186       94.500       18.396        0.038      333.961        3.620      856.103
01/30/2014  11:16:00      -53.076     -105.336       -2.146       44.542       83.320       27.345     1984.010     6942.261      747.771        1.179        0.484      117.953       20.005        0.029      333.796        3.345      856.094
01/30/2014  11:17:00     -112.349      -85.772       -7.406       41.442       45.237       24.776     1717.481     2046.385      613.875        1.221        0.219      141.347       14.841        0.011      333.715        3.211      856.077
01/30/2014  11:18:00      -40.292      -83.035       -1.144       60.325       40.388       29.065     3639.062     1631.216      844.775        0.732        0.306       92.295       30.132        0.107      333.745        3.261      856.057
01/30/2014  11:19:00     -123.510     -116.862       -3.115       66.196       55.555       33.844     4381.871     3086.404     1145.411        1.877        0.431      170.034       25.556        0.023      333.718        3.215      856.037
01/30/2014  11:20:00     -108.307      -59.248        1.695       70.316       55.429       28.670     4944.302     3072.408      821.952        1.204        0.442      123.453       33.021        0.072      333.746        3.261      856.033
01/30/2014  11:21:00     -153.346      -86.214        4.978       66.138       56.373       35.480     4374.265     3177.914     1258.851        1.989        0.441      175.920       36.298        0.043      333.692        3.171      856.028
01/30/2014  11:22:00      -71.068      -39.998       16.224       46.436       42.131       27.138     2156.291     1775.003      736.455        0.579        0.233       81.551       27.012        0.110      333.789        3.334      856.035
01/30/2014  11:23:00      -17.792      -20.740       10.324       51.337       46.004       17.545     2635.480     2116.336      307.816        0.296        0.253       27.326       20.704        0.574      334.034        3.739      856.040
01/30/2014  11:24:00      -48.577      -20.519       13.911       50.781       50.001       29.598     2578.734     2500.148      876.063        0.446        0.298       52.733       32.425        0.378      333.958        3.614      856.024
01/30/2014  11:25:00        4.384        5.021       11.913       29.807       12.546       16.809      888.450      157.402      282.534        0.076        0.066        6.666       12.529        3.533      333.845        3.426      856.013
01/30/2014  11:26:00      -42.024      -30.264       11.172       46.410       48.876       30.487     2153.871     2388.845      929.432        0.414        0.274       51.787       30.952        0.357      333.964        3.625      856.000
01/30/2014  11:27:00      -22.614      -35.078        4.847       29.081       42.759       24.366      845.690     1828.313      593.680        0.252        0.163       41.735       23.387        0.314      333.921        3.553      855.977
01/30/2014  11:28:00        8.653       -4.885       -5.000       15.188       28.385       18.496      230.690      805.682      342.106        0.075        0.069        9.937       14.109        2.016      334.077        3.813      855.940
01/30/2014  11:29:00      -25.063      -14.095        3.860       29.550       17.820       11.171      873.196      317.546      124.789        0.108        0.066       28.755        5.368        0.035      334.180        3.981      855.924
01/30/2014  11:30:00      -25.983      -26.567       -2.847       42.944       31.123       18.381     1844.193      968.617      337.843        0.227        0.158       37.161        7.741        0.043      334.100        3.850      855.901
01/30/2014  11:31:00      -32.992      -32.958        7.323       49.401       37.603       24.665     2440.430     1413.997      608.376        0.334        0.223       46.634       20.224        0.188      334.216        4.042      855.873
01/30/2014  11:32:00      -17.540        5.958       29.974       36.248       20.295       19.327     1313.930      411.883      373.550        0.167        0.105       18.524       19.033        1.056      334.143        3.922      855.870
01/30/2014  11:33:00      -57.867      -17.356       -3.398       52.919       39.831       19.685     2800.369     1586.539      387.486        0.422        0.239       60.414       13.741        0.052      334.022        3.721      855.842
01/30/2014  11:34:00     -104.529      -47.530        3.158       48.213       42.580       23.997     2324.513     1813.062      575.834        0.895        0.236      114.828       25.000        0.047      334.091        3.833      855.818
01/30/2014  11:35:00      -54.888      -53.525        4.090       53.206       45.691       29.885     2830.846     2087.663      893.100        0.585        0.291       76.665       29.806        0.151      334.059        3.783      855.799
01/30/2014  11:36:00      -67.258     -151.890       -3.227       59.984       47.186       32.224     3598.023     2226.509     1038.369        1.723        0.343      166.116       22.417        0.018      333.856        3.444      855.769
01/30/2014  11:37:00      -75.649     -111.890      -12.276       53.839       50.520       29.059     2898.587     2552.282      844.433        1.234        0.315      135.064       24.593        0.033      333.855        3.444      855.744
01/30/2014  11:38:00      -77.044      -49.598       -0.492       52.125       31.607       25.828     2717.032      999.021      667.083        0.639        0.219       91.628       25.238        0.076      333.919        3.549      855.713
01/30/2014  11:39:00      -65.905      -15.933        7.415       37.878       22.391       19.218     1434.732      501.367      369.343        0.348        0.115       67.804       18.048        0.071      333.895        3.511      855.677
01/30/2014  11:40:00      -31.135      -45.608       12.108       55.307       45.038       29.171     3058.909     2028.451      850.932        0.457        0.297       55.222       27.652        0.251      334.095        3.841      855.645
01/30/2014  11:41:00      -56.885      -29.864        7.461       63.365       29.333       26.861     4015.073      860.398      721.497        0.489        0.280       64.248       31.979        0.248      334.218        4.046      855.609
01/30/2014  11:42:00        8.963        9.597       11.553       23.915       22.122       17.501      571.910      489.364      306.279        0.084        0.068       13.131       10.942        0.694      334.387        4.327      855.573
01/30/2014  11:43:00      -25.095      -44.508       -2.870       42.416       32.479       20.116     1799.107     1054.869      404.640        0.294        0.163       51.096        5.804        0.013      334.191        4.001      855.533
01/30/2014  11:44:00      -41.561      -27.480        9.927       41.550       35.784       25.129     1726.381     1280.516      631.447        0.311        0.182       49.824       21.284        0.182      334.301        4.184      855.508
01/30/2014  11:45:00      -31.537      -35.489        0.481       41.340       25.871       17.239     1709.026      669.332      297.170        0.246        0.134       47.477       13.957        0.086      334.273        4.138      855.480
01/30/2014  11:46:00      -49.257      -29.381       11.499       46.947       51.379       29.850     2204.007     2639.751      891.007        0.458        0.287       57.354       19.736        0.118      334.349        4.264      855.473
01/30/2014  11:47:00       45.597      -42.190        8.672       87.051       59.914       55.285     7577.815     3589.713     3056.443        0.908        0.711       62.122       53.236        0.734      334.346        4.257      855.467
01/30/2014  11:48:00       -8.720      -41.226        3.746       56.058       47.888       34.988     3142.469     2293.264     1224.134        0.422        0.333       42.139       25.780        0.374      334.448        4.427      855.474
01/30/2014  11:49:00      -39.157      -34.038       10.747       56.907       26.417       22.047     3238.371      697.839      486.063        0.361        0.221       51.883       21.547        0.172      334.489        4.495      855.492
01/30/2014  11:50:00      -52.768       -9.843       11.915       47.754       26.707       25.761     2280.438      713.276      663.626        0.334        0.183       53.678       14.375        0.072      334.236        4.075      855.508
01/30/2014  11:51:00      -39.926      -22.446       -1.266       24.732       25.200       17.683      611.656      635.064      312.704        0.183        0.078       45.803       14.864        0.105      334.288        4.162      855.528
01/30/2014  11:52:00      -67.379      -75.682       -4.654       46.665       54.774       30.345     2177.585     3000.171      920.840        0.819        0.305      101.330       22.401        0.049      334.043        3.755      855.534
01/30/2014  11:53:00      -48.515      -41.978       12.579       50.533       35.266       24.595     2553.591     1243.694      604.936        0.434        0.220       64.155       18.843        0.086      334.288        4.162      855.535
01/30/2014  11:54:00      -19.580      -18.874       -1.444       26.432       18.449       19.128      698.650      340.372      365.880        0.107        0.070       27.195        8.464        0.097      334.182        3.986      855.536
01/30/2014  11:55:00       25.957       23.547        3.239       25.582       27.542       24.723      654.416      758.547      611.226        0.163        0.101       35.046       17.536        0.250      334.152        3.935      855.525
01/30/2014  11:56:00      -47.166        6.987        0.648       60.285       37.123       23.779     3634.321     1378.112      565.455        0.392        0.279       47.681       21.337        0.200      334.226        4.059      855.519
01/30/2014  11:57:00      -38.440       11.645       24.931       42.136       40.334       29.456     1775.455     1626.820      867.664        0.325        0.213       40.165       30.229        0.566      334.311        4.199      855.505
01/30/2014  11:58:00      -42.357      -12.231        4.488       32.318       35.577       23.472     1044.434     1265.732      550.948        0.241        0.143       44.088       16.020        0.132      334.407        4.360      855.486
01/30/2014  11:59:00     -101.810      -18.336       -4.208       46.532       33.912       26.678     2165.267     1150.051      711.711        0.737        0.201      103.448       17.272        0.028      334.099        3.850      855.476
01/30/2014  12:00:00      -40.519       36.322       43.312       49.279       36.600       32.516     2428.465     1339.547     1057.284        0.483        0.241       54.416       24.631        0.205      334.304        4.189      855.462
01/30/2014  12:01:00      -74.368      -21.348       14.344       54.279       45.714       29.788     2946.210     2089.755      887.336        0.606        0.296       77.371       18.084        0.055      334.330        4.232      855.456
01/30/2014  12:02:00      -34.717        4.458       18.813       44.314       35.162       23.502     1963.707     1236.339      552.359        0.267        0.188       35.002       20.413        0.340      334.321        4.217      855.450
01/30/2014  12:03:00      -90.773      -75.168      -10.952       49.996       35.340       25.011     2499.628     1248.899      625.538        0.919        0.219      117.856       12.982        0.012      334.080        3.818      855.434
01/30/2014  12:04:00      -52.379     -132.382        1.984       58.250       37.690       37.370     3393.104     1420.504     1396.520        1.324        0.311      142.368       31.859        0.050      334.135        3.907      855.412
01/30/2014  12:05:00      -48.584      -67.102       -2.844       51.252       55.118       28.469     2626.803     3038.034      810.491        0.667        0.324       82.844       23.541        0.081      334.273        4.137      855.399
01/30/2014  12:06:00      -33.630      -23.296        9.273       35.738       25.597       22.137     1277.189      655.216      490.032        0.209        0.121       40.911       22.107        0.292      334.358        4.279      855.383
01/30/2014  12:07:00      -64.499      -64.195        7.121       42.559       37.137       23.406     1811.266     1379.127      547.822        0.603        0.187       91.001       23.137        0.065      334.276        4.143      855.372
01/30/2014  12:08:00     -108.222     -115.325      -11.114       47.950       44.481       25.094     2299.244     1978.578      629.724        1.502        0.245      158.151       23.822        0.023      334.087        3.827      855.360
01/30/2014  12:09:00      -56.877      -83.542       -0.995       43.465       49.682       25.245     1889.209     2468.296      637.306        0.760        0.250      101.066       27.362        0.073      334.154        3.939      855.351
01/30/2014  12:10:00      -85.495      -68.008       -1.389       35.001       47.159       18.667     1225.043     2223.927      348.439        0.787        0.190      109.245       15.341        0.020      334.117        3.879      855.343
01/30/2014  12:11:00      -18.119       14.914        3.620       26.755       25.091       20.387      715.813      629.541      415.639        0.116        0.088       23.467       12.070        0.265      334.418        4.379      855.340
01/30/2014  12:12:00       -6.038       17.751       28.037       24.814       22.022       24.045      615.718      484.957      578.185        0.141        0.084       18.750       14.223        0.575      334.647        4.757      855.336
01/30/2014  12:13:00       13.544      -76.808       13.114       39.921       59.803       41.865     1593.686     3576.396     1752.710        0.659        0.346       77.993       41.419        0.282      334.490        4.496      855.320
01/30/2014  12:14:00       76.463      -54.608       13.720       33.974       49.590       33.492     1154.241     2459.185     1121.699        0.688        0.237       93.961       32.149        0.117      334.412        4.368      855.318
01/30/2014  12:15:00      -21.945      -71.530       24.367       61.295       75.042       41.728     3757.109     5631.281     1741.260        0.866        0.556       74.820       43.673        0.341      334.522        4.550      855.303
01/30/2014  12:16:00      -41.339      -87.952       -6.051       53.480       37.407       32.857     2860.077     1399.297     1079.556        0.741        0.267       97.182       16.539        0.029      334.567        4.625      855.290
01/30/2014  12:17:00      -46.162       -7.833       24.032       42.014       32.431       30.443     1765.136     1051.755      926.803        0.326        0.187       46.822       28.768        0.378      334.482        4.484      855.262
01/30/2014  12:18:00      -13.079        8.106       25.189       44.059       36.983       31.793     1941.198     1367.753     1010.804        0.259        0.216       15.388        8.561        0.310      334.543        4.585      855.232
01/30/2014  12:19:00       85.307     -153.430      -16.724       89.641       97.885       52.865     8035.564     9581.382     2794.711        2.575        1.021      175.551       53.227        0.092      334.391        4.329      855.214
01/30/2014  12:20:00       77.119     -172.642       -6.872       36.370       67.610       34.698     1322.811     4571.099     1203.931        2.145        0.355      189.083       29.124        0.024      334.356        4.271      855.194
01/30/2014  12:21:00      142.050     -138.724      -36.425      104.344      116.369       69.357    10887.683    13541.650     4810.337        3.499        1.462      198.551       84.751        0.182      334.354        4.270      855.171
01/30/2014  12:22:00       82.208      -59.671       -8.201       96.353      123.003       74.593     9283.844    15129.848     5564.138        2.018        1.499      101.582       83.810        0.681      334.397        4.341      855.164
01/30/2014  12:23:00       20.211       79.105      107.521       44.559       77.601       50.758     1985.507     6021.975     2576.364        1.440        0.529       81.646       51.445        0.397      334.410        4.364      855.153
01/30/2014  12:24:00      139.092     -149.350      -40.268       86.511       97.050       60.562     7484.146     9418.686     3667.785        3.192        1.029      204.088       54.272        0.071      334.248        4.092      855.151
01/30/2014  12:25:00      130.361     -114.117      -23.423       88.773       97.685       69.055     7880.711     9542.330     4768.583        2.637        1.110      173.253       64.427        0.138      334.285        4.154      855.143
01/30/2014  12:26:00       38.912      -17.374       68.064       57.526       64.234       60.294     3309.235     4125.996     3635.400        0.876        0.554       42.615       43.976        1.065      334.454        4.437      855.143
01/30/2014  12:27:00       36.314       20.176       79.024       53.256       55.514       42.294     2836.159     3081.841     1788.756        0.784        0.385       41.543       30.217        0.529      334.441        4.416      855.125
01/30/2014  12:28:00       14.763       54.281       98.195       58.020       77.889       47.604     3366.310     6066.652     2266.142        1.225        0.585       56.252       52.298        0.864      334.461        4.449      855.118
01/30/2014  12:29:00      129.439     -129.214      -24.589       73.324       76.854       44.939     5376.393     5906.508     2019.490        2.368        0.665      182.895       50.840        0.077      334.313        4.201      855.115
01/30/2014  12:30:00       63.492      -26.167       22.375       72.656       83.611       70.704     5278.830     6990.753     4999.111        1.124        0.863       68.672       72.661        1.120      334.406        4.357      855.095
01/30/2014  12:31:00       13.221       58.971      102.764       40.928       62.223       44.055     1675.093     3871.736     1940.852        1.085        0.374       60.435       42.869        0.503      334.412        4.366      855.078
01/30/2014  12:32:00       70.298       44.874       78.959       55.717       49.900       43.996     3104.433     2489.982     1935.659        1.036        0.377       83.400       30.896        0.137      334.383        4.320      855.063
01/30/2014  12:33:00       74.662      -68.519       -2.974       45.653       50.239       29.200     2084.186     2523.952      852.632        0.787        0.273      101.337       30.770        0.092      334.336        4.241      855.054
01/30/2014  12:34:00       -0.623       -0.902       29.821       19.077       37.111       26.726      363.937     1377.263      714.255        0.167        0.123        1.096       13.030      141.294      334.617        4.709      855.026
01/30/2014  12:35:00       63.582       60.686       71.998       45.386       30.458       27.949     2059.917      927.720      781.143        0.834        0.188       87.894       19.071        0.047      334.509        4.528      854.995
01/30/2014  12:36:00       62.501       61.218       60.930       53.438       42.272       35.227     2855.629     1786.898     1240.968        0.862        0.294       87.487       36.949        0.178      334.483        4.485      854.971
01/30/2014  12:37:00       76.948      115.337       97.526       67.624       56.652       47.357     4573.023     3209.470     2242.732        1.938        0.501      138.649       43.329        0.098      334.405        4.354      854.939
01/30/2014  12:38:00      136.588      100.479       61.094       71.882       56.213       48.571     5167.011     3159.870     2359.134        2.158        0.534      169.565       39.552        0.054      334.327        4.225      854.907
01/30/2014  12:39:00       22.868       61.287       84.091       50.297       55.733       33.650     2529.801     3106.171     1132.345        0.906        0.338       65.414       27.029        0.171      334.714        4.869      854.875
01/30/2014  12:40:00       34.037      -15.975       37.531       41.924       56.824       37.004     1757.634     3228.972     1369.304        0.459        0.318       37.600       39.619        1.110      334.686        4.823      854.863
01/30/2014  12:41:00       87.988      -81.309        5.301       65.743       60.136       43.408     4322.097     3616.380     1884.268        1.210        0.491      119.804       39.810        0.110      334.642        4.749      854.858
01/30/2014  12:42:00       86.407      -54.357       32.574       82.532      126.250       86.417     6811.505    15939.055     7467.916        2.085        1.511      102.083       85.692        0.705      334.578        4.642      854.829
01/30/2014  12:43:00       52.167      -89.194       -5.094       63.010       89.480       55.166     3970.226     8006.722     3043.296        1.286        0.751      103.329       53.147        0.265      334.745        4.921      854.821
01/30/2014  12:44:00       -4.905       51.879       97.074       30.600       57.075       33.670      936.338     3257.516     1133.637        0.873        0.266       52.110       39.472        0.574      334.704        4.851      854.817
01/30/2014  12:45:00       46.611       23.613       53.840       36.253       39.900       33.314     1314.261     1592.035     1109.794        0.482        0.201       52.251       34.156        0.427      334.431        4.399      854.811
01/30/2014  12:46:00       55.565      -15.002       11.269       28.618       30.515       23.630      819.007      931.184      558.380        0.287        0.115       57.555       13.835        0.058      334.401        4.351      854.795
01/30/2014  12:47:00       22.280       51.119       60.796       29.967       33.698       25.363      898.006     1135.563      643.278        0.474        0.134       55.763       20.253        0.132      334.620        4.712      854.786
01/30/2014  12:48:00       70.192      -73.387       16.824       49.989       70.407       44.777     2498.869     4957.093     2004.936        1.003        0.473      101.551       47.030        0.214      334.613        4.701      854.773
01/30/2014  12:49:00       46.028       23.093       76.145       46.308       89.169       47.856     2144.404     7951.098     2290.191        1.042        0.619       51.496       56.432        1.201      334.631        4.731      854.763
01/30/2014  12:50:00       62.050       65.978       70.990       49.293       27.986       28.147     2429.775      783.203      792.279        0.862        0.200       90.572       25.118        0.077      334.509        4.528      854.743
01/30/2014  12:51:00       46.609       49.316       69.508       49.584       40.112       34.946     2458.585     1608.946     1221.243        0.736        0.264       67.857       26.400        0.151      334.550        4.596      854.715
01/30/2014  12:52:00       61.219      -26.411       32.499       50.227       74.882       40.098     2522.728     5607.313     1607.877        0.762        0.487       66.673       49.691        0.555      334.500        4.512      854.695
01/30/2014  12:53:00       42.773       57.313       49.155       60.401       41.272       32.563     3648.295     1703.409     1060.321        0.697        0.321       71.514       36.183        0.256      334.659        4.778      854.673
01/30/2014  12:54:00       77.242       54.145       45.521       53.007       29.505       35.792     2809.775      870.571     1281.032        0.796        0.248       94.329       16.245        0.030      334.511        4.531      854.654
01/30/2014  12:55:00       61.567       44.424       13.687       18.919       22.827       16.705      357.911      521.071      279.040        0.355        0.058       75.921        9.734        0.016      334.317        4.211      854.649
01/30/2014  12:56:00       36.235       70.533       -5.905       20.847       25.412       20.678      434.618      645.756      427.579        0.392        0.075       79.297       14.550        0.034      334.317        4.212      854.629
01/30/2014  12:57:00       32.029       82.894       -4.794       31.070       31.826       24.061      965.368     1012.896      578.946        0.524        0.128       88.867       20.630        0.054      334.401        4.350      854.605
01/30/2014  12:58:00       28.822       39.485       -3.695       31.166       37.055       22.130      971.314     1373.057      489.738        0.262        0.142       48.885       11.468        0.055      334.614        4.703      854.601
01/30/2014  12:59:00       23.167       23.578       21.775       21.651       25.286       22.957      468.753      639.357      527.034        0.160        0.082       33.055       10.503        0.101      334.833        5.066      854.586
01/30/2014  13:00:00       37.111      -10.817       13.405       46.512       49.286       32.105     2163.395     2429.122     1030.741        0.365        0.281       38.655       32.595        0.711      334.799        5.011      854.596
01/30/2014  13:01:00       52.032      -43.605       25.661       54.064       73.240       53.661     2922.910     5364.151     2879.496        0.822        0.558       67.888       54.640        0.648      334.737        4.906      854.586
01/30/2014  13:02:00       84.835     -138.262      -30.780       55.672       57.200       34.076     3099.370     3271.850     1161.199        1.740        0.377      162.214       27.489        0.029      334.653        4.766      854.592
01/30/2014  13:03:00       40.842      -19.162       38.846       56.576      101.570       60.290     3200.882    10316.393     3634.906        1.035        0.858       45.114       67.608        2.246      334.750        4.928      854.590
01/30/2014  13:04:00       74.730      -61.131      -11.656       57.362       66.177       42.501     3290.405     4379.422     1806.372        0.947        0.474       96.548       49.189        0.260      334.599        4.679      854.602
01/30/2014  13:05:00       64.047     -110.272      -17.547       33.194       40.780       29.891     1101.830     1663.010      893.462        1.011        0.183      127.522       21.743        0.029      334.560        4.613      854.605
01/30/2014  13:06:00       40.695       -7.102        5.819       24.386       50.255       30.549      594.672     2525.582      933.254        0.290        0.203       41.310       20.107        0.237      334.591        4.665      854.609
01/30/2014  13:07:00       -9.251       28.180      -13.220       22.773       14.183       14.785      518.597      201.171      218.602        0.100        0.047       29.659        8.102        0.075      334.635        4.738      854.597
01/30/2014  13:08:00       17.768       20.337       -2.049       13.476       15.756       10.090      181.598      248.266      101.805        0.063        0.027       27.006        4.785        0.031      334.688        4.827      854.585
01/30/2014  13:09:00       39.986       38.544       21.590       26.624       16.733       23.384      708.812      279.994      546.809        0.254        0.077       55.539       10.427        0.035      334.806        5.022      854.577
01/30/2014  13:10:00       52.805       51.574       49.577       47.645       28.941       24.728     2270.075      837.573      611.451        0.581        0.186       73.812       23.789        0.104      334.807        5.023      854.561
01/30/2014  13:11:00       34.341       46.216       26.054       39.938       24.775       35.278     1595.039      613.811     1244.568        0.372        0.173       57.579       30.345        0.278      334.616        4.706      854.541
01/30/2014  13:12:00       49.430       40.109       46.415       44.912       38.526       34.612     2017.128     1484.256     1198.017        0.545        0.235       63.656       18.526        0.085      334.747        4.925      854.530
01/30/2014  13:13:00       -0.388       12.270       43.052       24.335       33.683       26.090      592.184     1134.560      680.713        0.221        0.120       12.277       26.368        4.613      334.933        5.233      854.513
01/30/2014  13:14:00        1.450       19.446       43.912       36.305       27.063       32.745     1318.024      732.406     1072.221        0.272        0.156       19.500       32.254        2.736      334.943        5.248      854.488
01/30/2014  13:15:00       -0.033       29.395       53.419       27.482       27.663       26.828      755.258      765.260      719.719        0.298        0.112       29.395       26.115        0.789      334.893        5.167      854.481
01/30/2014  13:16:00       26.628       -1.002       22.889       42.786       23.537       19.808     1830.600      553.976      392.354        0.200        0.139       26.647       24.206        0.825      335.004        5.351      854.460
01/30/2014  13:17:00       -0.286       25.262        5.134       15.239       20.557       17.662      232.216      422.580      311.937        0.082        0.048       25.264       11.746        0.216      334.855        5.103      854.434
01/30/2014  13:18:00       14.475       22.207       -0.421       22.740       11.587       14.995      517.090      134.263      224.846        0.079        0.044       26.509        7.196        0.074      334.795        5.004      854.415
01/30/2014  13:19:00      -32.059       15.034       -1.294       16.433       20.065       21.664      270.053      402.612      469.315        0.120        0.057       35.409       14.059        0.158      334.855        5.103      854.396
01/30/2014  13:20:00       -3.837        0.656        0.338       13.842       23.246       17.872      191.613      540.378      319.417        0.053        0.053        3.893        7.879        4.096      334.941        5.246      854.388
01/30/2014  13:21:00       29.836       10.110       26.126       57.392       34.779       32.515     3293.842     1209.598     1057.235        0.362        0.278       31.502       32.579        1.070      335.094        5.499      854.369
01/30/2014  13:22:00        0.154        0.081       60.289       47.333       93.120       44.957     2240.383     8671.357     2021.088        0.828        0.647        0.174       52.473    90441.705      335.123        5.548      854.342
01/30/2014  13:23:00      -47.235      -21.349       33.136       55.135       48.259       32.970     3039.890     2328.965     1086.997        0.512        0.323       51.836       32.924        0.403      335.077        5.472      854.342
01/30/2014  13:24:00      125.624     -127.331      -34.251       42.046       45.889       27.291     1767.905     2105.841      744.791        1.889        0.231      178.871       23.675        0.018      334.561        4.614      854.325
01/30/2014  13:25:00       83.820      -39.224       17.459       59.812       85.609       52.028     3577.472     7328.938     2706.884        1.124        0.681       92.544       67.423        0.531      334.659        4.776      854.304
01/30/2014  13:26:00       38.782       28.864       52.093       39.536       54.630       35.410     1563.079     2984.409     1253.860        0.543        0.290       48.344       37.008        0.586      334.741        4.913      854.280
01/30/2014  13:27:00       26.110      -53.226       11.568       39.825       49.075       31.050     1586.018     2408.314      964.114        0.430        0.248       59.285       28.859        0.237      334.925        5.220      854.249
01/30/2014  13:28:00       32.510       14.289       52.623       43.019      105.770       64.346     1850.599    11187.333     4140.389        1.060        0.859       35.511       76.680        4.663      334.970        5.294      854.222
01/30/2014  13:29:00       25.537       56.428       75.029       38.089       48.097       27.221     1450.777     2313.312      740.958        0.698        0.225       61.938       27.906        0.203      334.852        5.097      854.185
01/30/2014  13:30:00       83.644     -143.575       -4.609       66.343       75.206       34.657     4401.341     5655.987     1201.101        1.944        0.563      166.163       29.556        0.032      334.842        5.080      854.157
01/30/2014  13:31:00       57.672      -53.978       12.489       51.449       51.365       40.907     2646.982     2638.379     1673.359        0.668        0.348       78.991       38.326        0.235      334.853        5.100      854.120
01/30/2014  13:32:00       45.553      -11.901       40.046       48.533       91.632       65.420     2355.479     8396.360     4279.734        0.942        0.752       47.082       72.666        2.382      334.851        5.096      854.083
01/30/2014  13:33:00       57.613       -0.614       49.249       66.905       73.933       58.521     4476.223     5466.077     3424.663        0.955        0.668       57.616       58.428        1.028      334.943        5.249      854.043
01/30/2014  13:34:00       51.147       60.993       90.725       59.173       76.073       51.221     3501.475     5787.156     2623.611        1.324        0.596       79.600       53.100        0.445      334.883        5.148      854.015
01/30/2014  13:35:00       77.552      -65.172       10.155       49.706       66.070       47.706     2470.724     4365.277     2275.880        0.974        0.456      101.300       50.703        0.251      334.765        4.953      853.997
01/30/2014  13:36:00       60.970     -133.373        2.979       69.357       92.546       52.219     4810.448     8564.826     2726.805        1.881        0.805      146.649       43.088        0.086      334.870        5.125      853.983
01/30/2014  13:37:00       16.783      -48.720       22.935       25.826       57.905       28.278      666.999     3352.966      799.619        0.400        0.241       51.530       16.404        0.101      335.013        5.366      853.992
01/30/2014  13:38:00       49.504      -46.983       18.905       57.911       53.755       34.018     3353.627     2889.649     1157.249        0.621        0.370       68.250       25.864        0.144      335.051        5.428      854.010
01/30/2014  13:39:00       69.282       35.801       68.916       51.194       69.435       43.455     2620.797     4821.220     1888.346        1.008        0.467       77.985       44.300        0.323      334.921        5.213      854.027
01/30/2014  13:40:00       31.535      -20.579       11.842       28.494       41.560       35.465      811.902     1727.247     1257.755        0.268        0.190       37.656       31.243        0.688      335.071        5.462      854.067
01/30/2014  13:41:00       48.294       41.762       24.581       40.804       29.178       31.528     1664.953      851.338      994.033        0.409        0.176       63.846       22.323        0.122      335.073        5.465      854.105
01/30/2014  13:42:00       65.457       42.309       18.503       46.153       35.933       24.075     2130.112     1291.159      579.596        0.521        0.200       77.940       12.627        0.026      335.065        5.451      854.137
01/30/2014  13:43:00       54.104       72.522       44.970       42.434       34.370       34.451     1800.608     1181.287     1186.850        0.719        0.208       90.480       27.194        0.090      334.893        5.166      854.141
01/30/2014  13:44:00       60.009       58.932       49.160       38.620       25.378       25.905     1491.485      644.049      671.083        0.615        0.140       84.108       15.617        0.034      334.762        4.949      854.124
01/30/2014  13:45:00       13.565       16.607       36.017       27.155       32.839       18.874      737.372     1078.404      356.209        0.196        0.109       21.443       19.464        0.824      335.195        5.668      854.105
01/30/2014  13:46:00       54.647       34.953       45.862       65.884       40.918       37.028     4340.723     1674.295     1371.046        0.685        0.369       64.869       35.345        0.297      335.161        5.611      854.074
01/30/2014  13:47:00       17.951       17.401       67.464       39.784       75.801       47.083     1582.798     5745.824     2216.797        0.736        0.477       25.001       56.848        5.170      335.281        5.810      854.053
01/30/2014  13:48:00       50.851       -3.903       51.705       71.406       91.603       52.098     5098.758     8391.029     2714.225        1.074        0.810       51.001       55.729        1.194      335.128        5.555      854.008
01/30/2014  13:49:00      109.008      137.337       96.458       69.525       54.879       63.215     4833.679     3011.690     3996.117        2.594        0.592      175.340       53.000        0.091      334.763        4.947      853.978
01/30/2014  13:50:00       22.760       56.022       75.412       55.916       35.292       31.145     3126.636     1245.495      970.026        0.734        0.267       60.469       25.674        0.180      334.859        5.108      853.972
01/30/2014  13:51:00      -10.832       -1.854       28.056       19.400       41.870       26.438      376.360     1753.129      698.981        0.187        0.141       10.990       29.805        7.355      335.239        5.740      853.971
01/30/2014  13:52:00      -73.263     -106.087      -14.800       74.285       83.604       38.488     5518.299     6989.565     1481.312        1.541        0.699      128.925       28.451        0.049      335.217        5.702      853.973
01/30/2014  13:53:00      -23.965      -95.975       -4.999       74.935       68.781       40.230     5615.329     4730.838     1618.489        1.089        0.598       98.922       37.534        0.144      335.325        5.883      853.969
01/30/2014  13:54:00      -53.399      -87.022        0.128       75.435       75.707       41.749     5690.493     5731.610     1742.991        1.179        0.658      102.099       19.793        0.038      335.168        5.621      853.959
01/30/2014  13:55:00     -112.429      -54.939        9.296       74.466       52.465       32.881     5545.138     2752.575     1081.140        1.256        0.469      125.134       22.457        0.032      335.214        5.699      853.951
01/30/2014  13:56:00      -58.145      -62.752        6.542       75.964       46.444       34.300     5770.461     2157.067     1176.523        0.823        0.455       85.549       31.382        0.135      335.218        5.705      853.955
01/30/2014  13:57:00       -6.205      -39.585       -0.955       45.636       52.097       28.139     2082.687     2714.081      791.818        0.360        0.279       40.068       13.203        0.109      335.201        5.677      853.967
01/30/2014  13:58:00       21.714      -14.787       49.657       42.521       49.536       48.016     1808.025     2453.817     2305.527        0.486        0.328       26.271       31.499        1.438      335.305        5.851      853.963
01/30/2014  13:59:00      -28.384       -0.753       30.990       39.511       41.025       34.031     1561.122     1683.030     1158.130        0.308        0.220       28.394       26.217        0.853      335.365        5.951      853.952
01/30/2014  14:00:00      -54.374      -18.604        9.786       52.905       35.964       23.250     2798.978     1293.374      540.576        0.401        0.232       57.469       18.218        0.100      335.377        5.970      853.949
01/30/2014  14:01:00      -73.268      -96.539        0.165       50.916       74.272       36.239     2592.433     5516.338     1313.234        1.205        0.471      121.194       16.389        0.018      335.015        5.368      853.946
01/30/2014  14:02:00      -69.322      -72.637       -0.980       62.506       67.741       31.829     3906.988     4588.888     1013.060        0.979        0.475      100.407       25.098        0.062      335.014        5.368      853.942
01/30/2014  14:03:00      -30.469     -149.105      -13.799       65.168       44.078       38.977     4246.855     1942.904     1519.172        1.553        0.385      152.186       33.573        0.049      334.911        5.195      853.946
01/30/2014  14:04:00      -84.971     -137.808        4.295       66.215       80.322       36.217     4384.362     6451.605     1311.704        1.919        0.607      161.898       32.471        0.040      335.012        5.362      853.943
01/30/2014  14:05:00     -139.177      -56.677      -24.773       72.041       45.044       34.974     5189.914     2028.961     1223.166        1.582        0.422      150.274       39.201        0.068      334.830        5.060      853.933
01/30/2014  14:06:00      -78.602      -12.006       -2.545       23.989       30.689       20.488      575.463      941.799      419.763        0.413        0.097       79.514        9.080        0.013      334.925        5.219      853.922
01/30/2014  14:07:00      -26.597        6.925        7.226       32.206       29.487       26.352     1037.238      869.496      694.420        0.170        0.130       27.484       12.112        0.194      335.009        5.360      853.920
01/30/2014  14:08:00      -41.301      -36.929        0.459       38.725       46.932       22.878     1499.622     2202.634      523.402        0.365        0.211       55.403       20.329        0.135      335.220        5.710      853.925
01/30/2014  14:09:00      -94.755      -77.191       -8.196       35.724       39.668       27.070     1276.211     1573.586      732.777        0.929        0.179      122.216       19.317        0.025      334.917        5.206      853.938
01/30/2014  14:10:00      -24.585      -24.170        8.690       32.392       37.112       22.531     1049.239     1377.274      507.634        0.210        0.147       34.476       27.269        0.626      335.368        5.957      853.942
01/30/2014  14:11:00      -73.310       33.329       -9.530       41.630       46.557       21.469     1733.063     2167.557      460.917        0.547        0.218       80.531       19.940        0.061      335.199        5.673      853.936
01/30/2014  14:12:00     -114.789       35.113       -3.546       40.870       37.140       25.418     1670.334     1379.384      646.075        0.906        0.185      120.039       20.189        0.028      335.096        5.504      853.937
01/30/2014  14:13:00      -98.283       26.603      -15.711       24.991       51.291       24.095      624.565     2630.768      580.560        0.722        0.192      101.820       17.937        0.031      335.133        5.566      853.938
01/30/2014  14:14:00      -64.779      -39.225        5.391       49.166       33.231       27.182     2417.294     1104.314      738.882        0.501        0.213       75.730       26.161        0.119      335.371        5.961      853.937
01/30/2014  14:15:00      -77.245      -71.479      -17.301       36.908       52.169       35.991     1362.171     2721.649     1295.361        0.838        0.269      105.242       20.134        0.037      335.217        5.704      853.948
01/30/2014  14:16:00      -47.974      -66.664        6.429       55.018       42.560       30.162     3026.934     1811.329      909.763        0.627        0.287       82.131       25.442        0.096      335.152        5.596      853.958
01/30/2014  14:17:00      -59.057      -36.054       -5.914       36.145       32.210       28.809     1306.464     1037.504      829.959        0.400        0.159       69.192       21.865        0.100      335.149        5.592      853.955
01/30/2014  14:18:00       -7.054      -29.390        1.800       31.007       22.535       21.751      961.451      507.814      473.118        0.143        0.097       30.225       23.320        0.595      335.120        5.543      853.953
01/30/2014  14:19:00      -44.478       -5.334        6.150       79.626       38.044       30.402     6340.290     1447.337      924.283        0.538        0.436       44.797       33.773        0.568      335.447        6.087      853.945
01/30/2014  14:20:00     -100.705      -41.164       -1.473       41.579       36.642       25.260     1728.803     1342.641      638.073        0.777        0.185      108.794       20.646        0.036      335.193        5.665      853.943
01/30/2014  14:21:00      -95.497      -18.549       -6.041       64.482       69.528       32.734     4157.906     4834.103     1071.499        0.978        0.503       97.282       28.480        0.086      335.241        5.743      853.935
01/30/2014  14:22:00      -50.774      -30.412        0.939       37.826       35.871       23.016     1430.778     1286.748      529.750        0.338        0.162       59.186       20.952        0.125      335.334        5.898      853.935
01/30/2014  14:23:00      -57.644      -27.361        4.270       50.884       40.300       28.243     2589.178     1624.064      797.654        0.455        0.251       63.808       26.276        0.170      335.550        6.259      853.927
01/30/2014  14:24:00     -109.757      -92.228      -10.316       47.184       49.955       19.990     2226.308     2495.456      399.608        1.289        0.256      143.361       20.735        0.021      335.067        5.457      853.921
01/30/2014  14:25:00      -57.276      -15.858        7.932       57.924       46.665       24.650     3355.191     2177.660      607.611        0.487        0.307       59.431       30.646        0.266      335.336        5.902      853.903
01/30/2014  14:26:00     -139.398      -12.149      -19.513       31.118       28.755       21.230      968.345      826.836      450.728        1.110        0.112      139.926       16.023        0.013      334.939        5.243      853.886
01/30/2014  14:27:00      -69.833      -18.758       -7.997       20.043       22.534       15.876      401.709      507.780      252.058        0.323        0.058       72.309       14.060        0.038      335.012        5.363      853.869
01/30/2014  14:28:00      -32.088       -8.020        4.574       27.823       19.684       17.087      774.146      387.461      291.967        0.128        0.073       33.075       15.612        0.223      335.656        6.436      853.849
01/30/2014  14:29:00      -33.383       -1.253        9.338       28.422       13.510       15.543      807.803      182.513      241.598        0.122        0.062       33.406       17.693        0.280      335.751        6.593      853.843
01/30/2014  14:30:00      -48.135      -47.375       -1.163       35.832       70.582       32.373     1283.965     4981.803     1048.028        0.594        0.366       67.538       15.408        0.052      335.561        6.275      853.841
01/30/2014  14:31:00       32.966      -25.001       33.922       66.383       78.715       47.970     4406.711     6196.118     2301.110        0.788        0.645       41.374       49.858        1.452      335.486        6.152      853.843
01/30/2014  14:32:00       -7.095       30.778       64.623       34.393       51.659       43.991     1182.911     2668.604     1935.176        0.548        0.289       31.585       46.744        2.190      335.365        5.951      853.845
01/30/2014  14:33:00      -16.818      -22.798       18.568       26.961       41.817       26.989      726.915     1748.672      728.404        0.218        0.160       28.330       27.147        0.918      336.012        7.029      853.847
01/30/2014  14:34:00      -89.788     -131.311       -7.261       33.930       72.553       28.996     1151.242     5263.979      840.794        1.631        0.363      159.073       26.867        0.029      335.170        5.626      853.850
01/30/2014  14:35:00      -22.786      -50.105       12.417       40.814       36.852       31.078     1665.776     1358.042      965.839        0.359        0.199       55.043       19.188        0.122      335.595        6.334      853.838
01/30/2014  14:36:00       -4.104      -33.425       16.572       49.611       38.715       28.173     2461.219     1498.840      793.737        0.308        0.238       33.676       12.109        0.129      335.806        6.685      853.829
01/30/2014  14:37:00      -15.921      -79.756      -12.990       90.717       58.724       42.684     8229.658     3448.465     1821.944        1.014        0.675       81.329       30.153        0.137      335.562        6.279      853.816
01/30/2014  14:38:00       59.579      -68.915       24.909       50.719       83.703       50.507     2572.406     7006.155     2550.982        1.052        0.606       91.098       58.291        0.409      335.297        5.838      853.822
01/30/2014  14:39:00       36.248       31.234       44.783       38.477       36.470       42.470     1480.485     1330.059     1803.662        0.445        0.231       47.849       31.143        0.424      335.192        5.663      853.819
01/30/2014  14:40:00       36.612       38.732       35.589       24.120       27.184       13.224      581.779      738.948      174.878        0.280        0.075       53.298       11.306        0.045      335.272        5.797      853.800
01/30/2014  14:41:00       15.492        5.848       53.722       38.947       41.261       30.590     1516.842     1702.476      935.759        0.366        0.208       16.560       26.073        2.479      335.916        6.869      853.787
01/30/2014  14:42:00       54.572      -83.680        1.198       52.200       76.633       49.323     2724.825     5872.592     2432.726        1.050        0.552       99.902       50.072        0.251      335.368        5.956      853.790
01/30/2014  14:43:00       37.837      -48.898      -11.988       55.109       62.925       41.638     3036.979     3959.600     1733.737        0.635        0.437       61.828       39.256        0.403      335.358        5.939      853.789
01/30/2014  14:44:00       42.047      -27.394       18.290       36.441       67.228       36.603     1327.945     4519.546     1339.816        0.502        0.359       50.183       20.314        0.164      335.452        6.095      853.781
01/30/2014  14:45:00       94.155       68.946       47.070       39.705       31.721       35.287     1576.526     1006.228     1245.158        0.983        0.191      116.700       24.541        0.044      335.120        5.544      853.780
01/30/2014  14:46:00      115.009       86.509       60.551       56.705       33.801       38.889     3215.489     1142.536     1512.344        1.512        0.294      143.912       25.162        0.031      335.111        5.529      853.755
01/30/2014  14:47:00       98.633       92.424       57.740       49.787       33.818       29.601     2478.746     1143.635      876.223        1.305        0.225      135.169       27.191        0.040      335.023        5.383      853.753
01/30/2014  14:48:00       -4.694       55.229       86.993       24.989       37.895       22.821      624.449     1436.007      520.797        0.661        0.129       55.428       21.073        0.145      335.559        6.273      853.741
01/30/2014  14:49:00       21.641       95.029      107.136       48.883       46.659       35.956     2389.560     2177.023     1292.861        1.342        0.293       97.462       33.538        0.118      335.543        6.247      853.729
01/30/2014  14:50:00       16.023       63.479       77.862       33.965       36.242       30.291     1153.602     1313.455      917.536        0.687        0.169       65.470       24.197        0.137      335.420        6.042      853.729
01/30/2014  14:51:00        7.552       39.334       63.795       33.281       32.888       24.790     1107.617     1081.599      614.539        0.424        0.140       40.052       21.270        0.282      335.684        6.482      853.690
01/30/2014  14:52:00        9.683       34.240       53.090       52.505       30.104       40.229     2756.783      906.272     1618.375        0.468        0.264       35.582       29.326        0.679      335.537        6.239      853.671
01/30/2014  14:53:00     -162.066      -51.681      -10.998       61.515       67.123       26.986     3784.065     4505.455      728.254        1.904        0.451      170.106        7.850        0.002      335.387        5.986      853.652
01/30/2014  14:54:00     -107.945      -33.497       11.194       87.119       58.650       37.118     7589.682     3439.827     1377.730        1.265        0.620      113.023       43.809        0.150      335.683        6.479      853.633
01/30/2014  14:55:00     -143.287      -79.545       -5.003       75.586       65.563       31.301     5713.251     4298.515      979.742        1.894        0.550      163.886       37.778        0.053      335.199        5.674      853.633
01/30/2014  14:56:00      -74.755      -50.519       -4.158       62.258       40.066       28.064     3876.073     1605.277      787.596        0.721        0.313       90.224       22.131        0.060      335.352        5.929      853.627
01/30/2014  14:57:00      -48.089      -90.312       -1.218       42.271       69.870       29.718     1786.799     4881.876      883.140        0.901        0.378      102.317       30.859        0.091      335.361        5.944      853.630
01/30/2014  14:58:00      -81.327      -10.396       -4.607       74.317       25.718       32.706     5523.080      661.415     1069.662        0.700        0.363       81.989       42.341        0.267      335.372        5.962      853.620
01/30/2014  14:59:00     -101.073       10.445      -17.146       29.153       21.061       14.186      849.884      443.547      201.236        0.606        0.075      101.611       11.929        0.014      335.092        5.497      853.619
01/30/2014  15:00:00      -81.560      -27.059      -12.622       47.825       37.048       22.330     2287.275     1372.579      498.620        0.585        0.208       85.932        8.738        0.010      335.189        5.657      853.612
01/30/2014  15:01:00      -11.953        8.694        4.139       40.444       43.549       20.265     1635.724     1896.544      410.657        0.209        0.197       14.780       21.572        2.130      335.394        5.999      853.597
01/30/2014  15:02:00       -1.134       44.689        4.301       22.379       33.267       18.212      500.805     1106.704      331.671        0.198        0.097       44.704       18.586        0.173      335.342        5.911      853.598
01/30/2014  15:03:00       24.809        1.022        8.352       20.065       12.688       14.640      402.593      160.997      214.343        0.073        0.039       24.830        7.064        0.081      335.379        5.973      853.598
01/30/2014  15:04:00       37.457      -35.338        7.881       32.441       26.450       26.841     1052.409      699.620      720.464        0.259        0.124       51.496       22.828        0.197      335.430        6.058      853.610
01/30/2014  15:05:00      105.277      -52.019        6.937       64.996       64.264       49.639     4224.544     4129.906     2464.025        1.233        0.541      117.427       49.038        0.174      335.406        6.017      853.606
01/30/2014  15:06:00       65.803       22.071       53.999       59.197       77.231       59.431     3504.291     5964.591     3532.051        1.036        0.650       69.406       61.507        0.785      335.328        5.888      853.612
01/30/2014  15:07:00       31.859       17.644       32.290       48.207       53.327       39.817     2323.917     2843.795     1585.368        0.456        0.338       36.418       29.392        0.651      335.531        6.227      853.599
01/30/2014  15:08:00       48.486       15.141       34.764       30.052       34.432       32.845      903.150     1185.540     1078.777        0.348        0.158       50.795       27.190        0.287      335.466        6.118      853.601
01/30/2014  15:09:00       55.519       29.069       34.884       36.363       27.107       27.100     1322.291      734.811      734.433        0.397        0.140       62.669       17.678        0.080      335.496        6.169      853.606
01/30/2014  15:10:00       19.756      -20.186       12.242       36.328       46.219       27.840     1319.710     2136.204      775.093        0.259        0.212       28.245       27.331        0.936      335.944        6.915      853.598
01/30/2014  15:11:00        4.043       58.016       63.525       31.435       27.510       33.375      988.164      756.801     1113.890        0.514        0.143       58.157       19.185        0.109      335.899        6.839      853.587
01/30/2014  15:12:00       33.598     -130.137       -0.526       69.509       95.319       49.462     4831.433     9085.636     2446.475        1.721        0.818      134.404       59.941        0.199      335.657        6.437      853.576
01/30/2014  15:13:00       77.146      -55.953       24.005       55.977       83.744       51.689     3133.412     7013.103     2671.774        1.124        0.641       95.301       57.142        0.360      335.507        6.186      853.562
01/30/2014  15:14:00       32.193      158.254      171.202       98.792      103.458       80.180     9759.908    10703.619     6428.874        4.114        1.345      161.495       83.950        0.270      335.448        6.086      853.530
01/30/2014  15:15:00      121.093       78.460        9.337       69.688       64.859       55.808     4856.468     4206.654     3114.577        1.654        0.609      144.290       33.164        0.053      335.287        5.819      853.515
01/30/2014  15:16:00       33.019       47.595       30.207       41.016       35.507       25.852     1682.283     1260.714      668.322        0.394        0.181       57.927       22.953        0.157      335.568        6.289      853.508
01/30/2014  15:17:00       49.295      -19.456       25.288       64.627      107.512       39.992     4176.656    11558.844     1599.380        1.039        0.867       52.996       59.446        1.258      335.698        6.505      853.506
01/30/2014  15:18:00       40.713       39.500       58.630       52.318       55.203       36.926     2737.186     3047.319     1363.547        0.690        0.357       56.726       39.227        0.478      335.628        6.389      853.513
01/30/2014  15:19:00       13.792      -12.863       27.515       30.113       22.023       29.599      906.776      485.027      876.098        0.169        0.113       18.859       20.883        1.226      336.064        7.116      853.509
01/30/2014  15:20:00       32.287       -6.738       19.425       28.186       37.206       27.709      794.434     1384.307      767.807        0.221        0.147       32.982       22.270        0.456      335.858        6.771      853.518
01/30/2014  15:21:00        9.185       18.921        7.289       30.755       24.107       18.960      945.879      581.145      359.490        0.119        0.094       21.032       11.698        0.309      335.771        6.626      853.514
01/30/2014  15:22:00      -25.797      -26.806       24.010       59.729       38.761       35.058     3567.499     1502.419     1229.044        0.413        0.315       37.203       33.067        0.790      335.899        6.840      853.504
01/30/2014  15:23:00        6.788       -2.659       25.941       28.583       20.282       19.233      816.982      411.348      369.914        0.116        0.080        7.291       12.432        2.908      335.954        6.931      853.482
01/30/2014  15:24:00       17.812      -49.274       22.388       30.501       40.506       30.036      930.316     1640.699      902.183        0.336        0.174       52.394       26.179        0.250      335.815        6.701      853.465
01/30/2014  15:25:00       31.429     -104.194       -3.153       45.400       56.691       39.462     2061.168     3213.852     1557.232        0.934        0.342      108.831       37.633        0.120      335.581        6.311      853.461
01/30/2014  15:26:00       54.770      -89.731      -18.657       68.800       67.481       43.869     4733.501     4553.633     1924.448        1.130        0.561      105.126       35.228        0.112      335.346        5.918      853.455
01/30/2014  15:27:00       61.478      -59.767       -0.089       44.483       52.541       37.094     1978.763     2760.600     1375.938        0.673        0.306       85.741       39.904        0.217      335.366        5.952      853.441
01/30/2014  15:28:00       29.949      -11.685       21.832       35.321       34.549       28.200     1247.574     1193.619      795.249        0.237        0.162       32.148       22.216        0.478      335.634        6.398      853.420
01/30/2014  15:29:00       13.260        1.088       28.255       28.436       23.482       23.073      808.603      551.418      532.354        0.143        0.095       13.305       12.996        0.954      335.961        6.943      853.417
01/30/2014  15:30:00       -3.616        3.195       12.904       25.459       19.380       20.976      648.163      375.573      440.011        0.083        0.073        4.825       15.232        9.966      335.852        6.762      853.420
01/30/2014  15:31:00       33.236      -40.906       17.441       38.447       38.151       33.154     1478.202     1455.473     1099.167        0.356        0.202       52.706       25.028        0.225      335.897        6.838      853.409
01/30/2014  15:32:00       -6.831       12.875       22.764       33.591       36.909       24.186     1128.327     1362.241      584.976        0.190        0.154       14.575       21.560        2.188      335.855        6.766      853.395
01/30/2014  15:33:00       -7.098       29.795        2.400       13.987       28.075       19.227      195.637      788.207      369.690        0.115        0.068       30.629       11.249        0.135      335.698        6.504      853.376
01/30/2014  15:34:00        1.746       27.309       41.576       20.827       28.271       23.540      433.746      799.264      554.130        0.213        0.089       27.365       11.737        0.184      335.788        6.656      853.360
01/30/2014  15:35:00       10.490       31.641       48.805       38.226       37.322       33.440     1461.224     1392.901     1118.232        0.373        0.199       33.335       28.468        0.729      335.738        6.571      853.339
01/30/2014  15:36:00       34.286      -19.417       35.131       33.050       59.189       32.841     1092.331     3503.327     1078.559        0.423        0.284       39.402       33.759        0.734      335.818        6.705      853.337
01/30/2014  15:37:00       12.603       18.450       54.980       50.839       78.741       35.868     2584.603     6200.220     1286.514        0.680        0.504       22.344       33.631        2.265      335.757        6.603      853.347
01/30/2014  15:38:00       93.524     -114.059        8.496       76.102       82.524       45.424     5791.537     6810.178     2063.336        1.824        0.733      147.500       48.175        0.107      335.387        5.986      853.351
01/30/2014  15:39:00       14.120       50.371      105.818       66.013       98.003       64.518     4357.659     9604.613     4162.613        1.603        0.906       52.312       65.412        1.564      335.422        6.043      853.330
01/30/2014  15:40:00       78.895     -107.975      -15.520       65.131       78.354       64.622     4242.050     6139.396     4176.034        1.634        0.728      133.727       50.354        0.142      335.435        6.065      853.315
01/30/2014  15:41:00      143.705     -169.269       -2.024       76.877       71.854       51.110     5910.111     5162.980     2612.196        3.149        0.684      222.043       50.224        0.051      335.333        5.894      853.305
01/30/2014  15:42:00      141.755       24.210       72.812      107.338      106.229       66.640    11521.553    11284.563     4440.833        2.661        1.362      143.807       63.783        0.197      335.374        5.963      853.294
01/30/2014  15:43:00      119.006       99.724       92.160       80.019       86.763       60.711     6402.995     7527.820     3685.868        2.511        0.881      155.265       46.623        0.090      335.325        5.882      853.280
01/30/2014  15:44:00      115.521      117.043       87.356       76.233       72.617       55.190     5811.431     5273.298     3045.979        2.440        0.707      164.451       36.063        0.048      335.336        5.900      853.265
01/30/2014  15:45:00      177.735       90.378       64.549      102.751       74.800       65.979    10557.706     5595.040     4353.192        3.221        1.025      199.393       53.124        0.071      335.233        5.729      853.234
01/30/2014  15:46:00      140.791       75.138       48.617       79.760       49.205       43.325     6361.660     2421.175     1877.018        1.924        0.533      159.587       38.998        0.060      335.187        5.652      853.200
01/30/2014  15:47:00      121.612      100.620      108.822      103.848       89.801       55.803    10784.423     8064.138     3114.013        2.936        1.098      157.842       58.219        0.136      335.285        5.814      853.172
01/30/2014  15:48:00      147.492      129.049      104.038      102.676       76.720       71.226    10542.339     5885.930     5073.195        3.536        1.075      195.978       60.535        0.095      335.294        5.830      853.148
01/30/2014  15:49:00      167.596       62.896       40.668      124.851       90.789       61.348    15587.706     8242.691     3763.554        3.064        1.380      179.009       68.402        0.146      335.185        5.649      853.143
01/30/2014  15:50:00      100.795       35.895       43.429      103.383       61.812       56.994    10688.056     3820.773     3248.260        1.554        0.888      106.995       52.438        0.240      335.261        5.777      853.176
01/30/2014  15:51:00       64.558       73.058      112.545       66.003       78.363       47.500     4356.420     6140.765     2256.217        1.746        0.638       97.494       47.098        0.233      335.358        5.937      853.202
01/30/2014  15:52:00       56.943       58.398       76.256       46.345       56.391       42.486     2147.824     3179.985     1805.061        0.980        0.357       81.565       38.217        0.220      335.383        5.980      853.234
01/30/2014  15:53:00       88.597       53.406       48.980       65.597       62.802       52.125     4302.984     3944.032     2717.047        1.203        0.548      103.449       36.523        0.125      335.273        5.796      853.259
01/30/2014  15:54:00       93.225       61.642       67.327       63.713       58.195       55.856     4059.290     3386.670     3119.902        1.379        0.528      111.762       35.491        0.101      335.243        5.745      853.268
01/30/2014  15:55:00       76.244       50.540       39.414       52.690       42.426       38.793     2776.199     1799.986     1504.923        0.800        0.304       91.474       35.897        0.154      335.283        5.812      853.277
01/30/2014  15:56:00       64.143      -65.584       14.139       49.152       74.163       46.897     2415.961     5500.119     2199.306        0.936        0.506       91.736       42.443        0.214      335.427        6.052      853.283
01/30/2014  15:57:00       55.936      -19.800       47.396       45.295      109.542       54.501     2051.673    11999.380     2970.344        1.139        0.851       59.337       66.609        1.260      335.428        6.054      853.281
01/30/2014  15:58:00       94.681       84.411       68.367       71.775       43.963       34.078     5151.701     1932.776     1161.326        1.450        0.412      126.846       19.962        0.025      335.240        5.742      853.292
01/30/2014  15:59:00       41.236      -66.510       18.871       61.860       62.815       39.189     3826.712     3945.780     1535.784        0.789        0.465       78.256       30.527        0.152      335.391        5.993      853.291
01/30/2014  16:00:00       14.688       -4.960       38.551       49.762       80.851       33.197     2476.236     6536.929     1102.051        0.592        0.506       15.503       27.053        3.045      335.395        5.999      853.287
01/30/2014  16:01:00       72.877     -103.332       -2.046       63.886       74.129       36.483     4081.400     5495.164     1330.993        1.345        0.545      126.446       35.433        0.079      335.449        6.088      853.315
01/30/2014  16:02:00       65.498      -55.686       43.821       64.198      135.267       79.340     4121.394    18297.290     6294.873        1.901        1.436       85.971      100.962        1.379      335.382        5.977      853.326
01/30/2014  16:03:00      139.901     -172.357      -30.604       52.860       58.742       33.018     2794.139     3450.657     1090.212        2.877        0.367      221.990       32.719        0.022      335.264        5.780      853.351
01/30/2014  16:04:00       86.139     -159.273       -2.323       51.875       51.234       32.993     2690.981     2624.911     1088.507        1.960        0.320      181.074       28.286        0.024      335.367        5.952      853.370
01/30/2014  16:05:00       51.273      -38.421       29.424       64.659       92.558       41.874     4180.723     8566.961     1753.465        0.973        0.725       64.071       50.332        0.617      335.438        6.070      853.375
01/30/2014  16:06:00       21.002      -71.873       44.954       67.754      124.672       79.890     4590.616    15543.079     6382.333        1.707        1.326       74.878       93.472        1.558      335.423        6.046      853.373
01/30/2014  16:07:00      123.041     -145.382      -24.194       53.097       51.418       37.948     2819.333     2643.838     1440.055        2.188        0.345      190.460       32.145        0.028      335.215        5.698      853.383
01/30/2014  16:08:00       12.772       -4.347       29.384       30.984       38.079       33.479      960.005     1449.975     1120.850        0.229        0.177       13.492       25.542        3.584      335.312        5.861      853.365
01/30/2014  16:09:00      -16.880       54.662       87.408       17.676       34.819       28.743      312.429     1212.379      826.146        0.663        0.118       57.209       25.949        0.206      335.362        5.945      853.344
01/30/2014  16:10:00       29.124       19.465       36.687       29.009       47.449       44.097      841.513     2251.443     1944.587        0.380        0.252       35.030       40.144        1.313      335.377        5.970      853.326
01/30/2014  16:11:00       -5.830       13.615       65.380       30.973       65.932       39.508      959.327     4346.975     1560.916        0.568        0.343       14.810       42.974        8.419      335.438        6.072      853.310
01/30/2014  16:12:00       28.583      -14.221       50.485       49.027       84.371       37.630     2403.605     7118.516     1415.988        0.725        0.547       31.925       44.389        1.933      335.362        5.944      853.303
01/30/2014  16:13:00       80.035      -25.678       51.571       99.002      104.131       65.312     9801.441    10843.241     4265.695        1.731        1.246       84.053       80.404        0.915      335.242        5.743      853.297
01/30/2014  16:14:00       46.008       66.324       97.934       49.981       72.902       54.246     2498.138     5314.677     2942.627        1.343        0.538       80.719       54.664        0.459      335.160        5.610      853.290
01/30/2014  16:15:00       41.711       -9.531       25.441       35.375       37.639       30.805     1251.358     1416.685      948.938        0.305        0.181       42.787       23.269        0.296      335.333        5.897      853.272
01/30/2014  16:16:00        2.767        3.578       62.302       26.561       65.350       27.951      705.492     4270.673      781.276        0.483        0.288        4.523       24.501       29.337      335.374        5.965      853.266
01/30/2014  16:17:00       83.949      -44.753       29.760       65.428      118.321       48.912     4280.876    13999.897     2392.356        1.530        1.034       95.133       62.541        0.432      335.334        5.895      853.256
01/30/2014  16:18:00      110.631      -29.384       23.998       99.049       83.684       56.577     9810.720     7003.007     3200.959        1.684        1.001      114.466       55.397        0.234      335.246        5.751      853.252
01/30/2014  16:19:00      147.315     -157.998      -18.568      100.451      125.664       61.008    10090.494    15791.501     3721.921        3.830        1.480      216.022       72.579        0.113      335.268        5.786      853.231
01/30/2014  16:20:00       91.270      -66.553       31.578       79.206      102.681       64.453     6273.635    10543.462     4154.161        1.736        1.049      112.958       60.298        0.285      335.311        5.858      853.243
01/30/2014  16:21:00       89.572      -91.220       26.273       59.466      111.988       58.428     3536.189    12541.228     3413.845        1.826        0.975      127.845       65.736        0.264      335.155        5.599      853.243
01/30/2014  16:22:00      122.567       65.856       83.892      100.155      105.753       88.735    10031.014    11183.697     7873.818        2.774        1.454      139.139       85.248        0.375      335.062        5.447      853.236
01/30/2014  16:23:00       90.632       -9.867       66.350      102.878       93.583       55.994    10583.840     8757.813     3135.370        1.759        1.124       91.168       63.497        0.485      335.105        5.517      853.234
01/30/2014  16:24:00      126.716      -80.345       19.112       77.235      110.003       61.506     5965.170    12100.746     3783.049        2.236        1.092      150.041       63.341        0.178      335.084        5.484      853.230
01/30/2014  16:25:00       52.293        9.779       83.237       97.482      155.261       89.238     9502.792    24105.851     7963.343        2.566        2.079       53.200      112.283        4.455      335.158        5.604      853.209
01/30/2014  16:26:00      205.506     -216.744      -46.336       86.082      107.541       58.476     7410.079    11565.095     3419.389        5.687        1.120      298.682       45.544        0.023      335.124        5.548      853.187
01/30/2014  16:27:00      171.565     -186.419      -24.382      114.777      131.083       70.295    13173.831    17182.661     4941.408        5.003        1.765      253.351       78.496        0.096      335.124        5.549      853.190
01/30/2014  16:28:00       91.299     -105.851       29.120       81.145      130.084       72.767     6584.541    16921.866     5294.991        2.459        1.440      139.785       84.299        0.364      335.138        5.571      853.204
01/30/2014  16:29:00       95.075      -54.501       25.513       87.472       76.688       50.531     7651.384     5881.031     2553.382        1.437        0.804      109.588       54.648        0.249      335.091        5.496      853.213
01/30/2014  16:30:00       33.577       -4.837      104.204       58.322      109.048       51.863     3401.440    11891.413     2689.819        1.499        0.899       33.923       54.643        2.595      335.136        5.569      853.208
01/30/2014  16:31:00      136.195     -171.562      -16.980       81.419       81.487       53.089     6628.997     6640.146     2818.410        3.218        0.804      219.049       49.262        0.051      335.008        5.355      853.217
01/30/2014  16:32:00       37.745      -19.026       48.259       56.304       75.410       54.114     3170.193     5686.626     2928.362        0.795        0.589       42.269       48.978        1.343      335.107        5.522      853.220
01/30/2014  16:33:00       -0.628       45.850       70.341       26.849       43.268       30.920      720.853     1872.102      956.024        0.530        0.177       45.854       24.431        0.284      335.109        5.526      853.222
01/30/2014  16:34:00       18.092       63.107       86.653       46.112       43.222       33.172     2126.287     1868.132     1100.348        0.846        0.255       65.649       33.157        0.255      335.097        5.507      853.223
01/30/2014  16:35:00       24.776       -7.706       49.634       45.963       92.719       53.698     2112.617     8596.895     2883.425        0.836        0.680       25.947       68.485        6.967      335.133        5.564      853.226
01/30/2014  16:36:00       44.269      -12.373       49.826       61.010      103.342       74.228     3722.198    10679.626     5509.760        1.225        0.996       45.966       73.633        2.566      335.096        5.503      853.239
01/30/2014  16:37:00       69.979       -3.275       33.452       63.070       76.777       53.750     3977.874     5894.686     2889.021        0.939        0.638       70.056       60.065        0.735      334.977        5.305      853.245
01/30/2014  16:38:00       84.248      -96.365       -6.858       62.454       86.778       43.737     3900.507     7530.473     1912.966        1.489        0.667      128.000       58.727        0.210      335.077        5.472      853.236
01/30/2014  16:39:00       28.368       17.774       56.093       41.370       49.219       33.118     1711.457     2422.538     1096.795        0.475        0.262       33.476       19.257        0.331      335.108        5.525      853.245
01/30/2014  16:40:00      146.124     -126.924       19.668      122.899      180.404       92.103    15104.122    32545.451     8482.896        4.698        2.807      193.551      132.147        0.466      334.974        5.300      853.233
01/30/2014  16:41:00      146.422     -117.430      -12.177      102.549      147.019       77.633    10516.379    21614.731     6026.861        3.676        1.908      187.694       90.661        0.233      334.930        5.225      853.241
01/30/2014  16:42:00      102.012      -24.654       51.390      107.140       94.934       70.268    11478.958     9012.382     4937.576        1.954        1.271      104.949       86.083        0.673      334.959        5.276      853.264
01/30/2014  16:43:00      113.267       47.452       89.945      100.970      106.514       84.655    10194.911    11345.218     7166.391        2.593        1.435      122.805       88.940        0.525      334.923        5.215      853.264
01/30/2014  16:44:00       53.092       44.581      113.973       94.374      198.105      116.675     8906.447    39245.639    13613.105        3.977        3.088       69.327      139.480        4.048      334.946        5.252      853.261
01/30/2014  16:45:00       38.513       -7.949       68.206       56.314       61.267       51.722     3171.265     3753.662     2675.186        0.790        0.480       39.325       37.842        0.926      335.017        5.372      853.263
01/30/2014  16:46:00      100.847     -102.612       -1.112       74.926       76.013       44.219     5613.952     5777.980     1955.351        1.702        0.667      143.872       39.826        0.077      334.995        5.336      853.265
01/30/2014  16:47:00       74.460      -71.825        7.231       82.452       96.153       75.705     6798.383     9245.448     5731.217        1.626        1.089      103.456       66.510        0.413      335.032        5.397      853.266
01/30/2014  16:48:00       92.353     -128.367      -23.766       72.679       97.583       45.107     5282.210     9522.413     2034.641        2.120        0.842      158.137       42.805        0.073      335.036        5.402      853.264
01/30/2014  16:49:00       68.670      -83.539       12.223       48.652       99.014       50.557     2367.038     9803.818     2556.001        1.328        0.736      108.140       56.754        0.275      335.055        5.435      853.271
01/30/2014  16:50:00       56.437       39.040       76.786       66.282       52.322       37.572     4393.369     2737.581     1411.681        0.957        0.427       68.624       39.191        0.326      334.999        5.343      853.269
01/30/2014  16:51:00       65.889      -64.958        9.546       65.876       73.893       49.418     4339.633     5460.105     2442.099        1.044        0.612       92.525       54.607        0.348      335.051        5.428      853.263
01/30/2014  16:52:00       84.139      -90.741        3.355       64.450       82.169       48.497     4153.781     6751.797     2351.954        1.429        0.663      123.747       51.934        0.176      335.074        5.466      853.269
01/30/2014  16:53:00       23.168      -30.299       59.342       62.505       79.020       60.762     3906.892     6244.182     3691.967        0.941        0.692       38.142       43.894        1.324      335.097        5.506      853.270
01/30/2014  16:54:00       11.043      -27.713       75.415       64.315       77.048       45.385     4136.401     5936.431     2059.816        0.935        0.607       29.832       36.541        1.500      335.021        5.380      853.269
01/30/2014  16:55:00       19.581       17.563       73.460       64.175       67.950       51.053     4118.482     4617.216     2606.388        0.871        0.567       26.304       27.511        1.094      334.872        5.131      853.271
01/30/2014  16:56:00       69.201      -11.676       69.700       73.836       84.220       64.309     5451.785     7093.022     4135.599        1.323        0.834       70.180       62.167        0.785      334.919        5.211      853.260
01/30/2014  16:57:00       41.324      -40.998       62.618       75.015      105.612       80.495     5627.237    11153.911     6479.422        1.528        1.163       58.211       48.788        0.702      334.876        5.137      853.245
01/30/2014  16:58:00      182.953     -167.329      -49.161       87.445      104.249       68.471     7646.639    10867.920     4688.330        4.354        1.160      247.933       79.774        0.104      334.754        4.932      853.260
01/30/2014  16:59:00       35.112      -65.096       12.563       53.317      109.510       57.052     2842.693    11992.399     3254.971        1.186        0.905       73.962       65.770        0.791      334.886        5.154      853.284
01/30/2014  17:00:00       79.350      -74.530       25.476       88.716      114.230       63.378     7870.489    13048.395     4016.729        1.871        1.247      108.863       80.449        0.546      334.828        5.056      853.316
01/30/2014  17:01:00       11.278       12.615       64.576       27.356       48.156       29.434      748.332     2319.029      866.362        0.419        0.197       16.921       24.115        2.031      334.874        5.133      853.332
01/30/2014  17:02:00       46.754      -42.686       31.540       39.126       81.660       44.896     1530.829     6668.331     2015.664        0.761        0.511       63.309       47.910        0.573      334.892        5.164      853.351
01/30/2014  17:03:00       44.482      -50.623       26.560       51.134       64.827       44.583     2614.706     4202.535     1987.601        0.702        0.440       67.389       34.671        0.265      334.931        5.229      853.341
01/30/2014  17:04:00      -41.746      -12.481       61.488       35.053       50.329       30.631     1228.689     2532.989      938.250        0.519        0.235       43.572       26.459        0.369      334.991        5.330      853.323
01/30/2014  17:05:00      -15.001      -38.517       21.060       42.210       45.457       27.394     1781.663     2066.309      750.410        0.337        0.230       41.335       20.949        0.257      335.087        5.489      853.303
01/30/2014  17:06:00       56.577      -72.287        2.480       47.058       71.109       35.414     2214.456     5056.532     1254.159        0.848        0.426       91.795       33.800        0.136      334.880        5.145      853.274
01/30/2014  17:07:00       87.482      -88.118       19.103       71.893      103.187       57.074     5168.603    10647.560     3257.397        1.742        0.954      124.169       61.052        0.242      334.833        5.065      853.244
01/30/2014  17:08:00       50.491       -3.104       54.390       79.531       88.370       47.946     6325.139     7809.286     2298.787        1.097        0.822       50.586       56.278        1.238      334.751        4.928      853.217
01/30/2014  17:09:00       38.869      -64.754       44.232       63.368      103.995       62.662     4015.443    10814.863     3926.540        1.321        0.938       75.524       68.233        0.816      334.851        5.094      853.207
01/30/2014  17:10:00       52.860      -53.053       22.360       60.444       94.120       70.317     3653.439     8858.599     4944.482        1.178        0.873       74.892       65.362        0.762      334.849        5.093      853.202
01/30/2014  17:11:00       22.693      -82.023       12.512       64.586       65.060       58.582     4171.409     4232.783     3431.888        0.962        0.592       85.104       36.191        0.181      334.889        5.158      853.198
01/30/2014  17:12:00       68.283      -80.760       23.615       78.878      101.981       68.898     6221.715    10400.213     4746.944        1.655        1.068      105.758       68.826        0.424      334.749        4.926      853.193
01/30/2014  17:13:00       78.631      -26.239       27.961       69.682      102.141       71.202     4855.532    10432.747     5069.764        1.400        1.018       82.893       76.660        0.855      334.719        4.877      853.178
01/30/2014  17:14:00       42.952       48.704       78.873       53.314       84.810       58.457     2842.432     7192.817     3417.260        1.194        0.673       64.938       58.888        0.822      334.746        4.922      853.162
01/30/2014  17:15:00       81.206      -36.250       32.354       90.002       92.919       52.006     8100.308     8633.917     2704.658        1.419        0.972       88.929       69.810        0.616      334.723        4.881      853.144
01/30/2014  17:16:00       17.259       98.376      122.952       51.129       64.673       38.593     2614.140     4182.623     1489.382        1.669        0.414       99.879       42.858        0.184      334.764        4.950      853.136
01/30/2014  17:17:00       75.913      -47.486       25.158       67.277      101.091       55.967     4526.139    10219.416     3132.353        1.326        0.894       89.542       63.491        0.503      334.779        4.977      853.129
01/30/2014  17:18:00       57.800       45.151       92.145       63.061       82.801       46.445     3976.652     6856.075     2157.104        1.343        0.649       73.344       49.018        0.447      334.740        4.912      853.133
01/30/2014  17:19:00       57.959       32.609       84.302       60.551      105.004       71.415     3666.477    11025.930     5100.134        1.566        0.990       66.502       82.081        1.523      334.756        4.938      853.126
01/30/2014  17:20:00       86.738       24.566       62.452       69.784       72.906       54.869     4869.811     5315.220     3010.596        1.261        0.660       90.150       56.771        0.397      334.760        4.944      853.121
01/30/2014  17:21:00       71.454       -0.584       52.707       58.328       88.858       60.015     3402.181     7895.761     3601.844        1.139        0.745       71.457       66.127        0.856      334.763        4.948      853.117
01/30/2014  17:22:00       88.626      -62.005       16.400       62.124       81.386       60.670     3859.452     6623.694     3680.878        1.306        0.708      108.163       68.723        0.404      334.789        4.993      853.123
01/30/2014  17:23:00       57.799      -57.182       26.117       68.454       95.133       58.411     4685.962     9050.281     3411.841        1.222        0.857       81.305       75.301        0.858      334.784        4.983      853.119
01/30/2014  17:24:00       31.299       86.605      107.152       51.418       65.357       42.053     2643.793     4271.499     1768.465        1.432        0.434       92.087       34.242        0.138      334.724        4.885      853.119
01/30/2014  17:25:00       43.327       65.081      101.288       71.972       57.997       47.607     5179.961     3363.648     2266.410        1.359        0.541       78.184       48.051        0.378      334.731        4.896      853.129
01/30/2014  17:26:00       55.367       71.560      107.444       74.697       83.540       67.125     5579.700     6978.999     4505.746        1.839        0.853       90.479       61.569        0.463      334.729        4.892      853.126
01/30/2014  17:27:00       16.685        6.947       84.902       63.623       90.961       62.961     4047.938     8273.885     3964.109        1.191        0.814       18.074       50.824        7.908      334.687        4.823      853.119
01/30/2014  17:28:00       40.426      -57.969       51.587       68.295       90.836       65.514     4664.220     8251.112     4292.097        1.243        0.860       70.673       57.306        0.658      334.652        4.764      853.123
01/30/2014  17:29:00       22.250      -11.751       59.021       43.191       82.313       47.078     1865.470     6775.464     2216.308        0.749        0.543       25.162       39.602        2.477      334.639        4.744      853.124
01/30/2014  17:30:00      147.900     -113.542        7.939       75.887      122.696       59.262     5758.859    15054.381     3511.939        2.957        1.216      186.457       77.371        0.172      334.552        4.596      853.113
01/30/2014  17:31:00       61.761      -65.638       12.610       59.131       88.833       55.668     3496.530     7891.219     3098.946        1.138        0.724       90.126       51.915        0.332      334.685        4.819      853.096
01/30/2014  17:32:00       61.604      -56.435       11.396       61.667       89.469       47.560     3802.812     8004.736     2261.992        1.059        0.703       83.546       43.623        0.273      334.711        4.862      853.097
01/30/2014  17:33:00      125.127     -161.326      -17.575       71.476       82.214       48.115     5108.751     6759.116     2315.075        2.809        0.709      204.164       58.017        0.081      334.636        4.736      853.092
01/30/2014  17:34:00       60.769      -59.545       26.060       75.905       83.779       61.819     5761.494     7018.918     3821.588        1.226        0.830       85.079       69.109        0.660      334.655        4.770      853.076
01/30/2014  17:35:00       52.679      -59.094       11.260       44.008       89.861       48.824     1936.675     8074.948     2383.760        0.939        0.620       79.165       57.333        0.524      334.589        4.662      853.076
01/30/2014  17:36:00       71.389      -31.091       32.493       68.950       99.616       67.669     4754.045     9923.333     4579.054        1.318        0.963       77.865       74.174        0.907      334.568        4.625      853.042
01/30/2014  17:37:00       55.117      -34.666       21.442       41.498       64.421       47.735     1722.072     4150.030     2278.638        0.642        0.408       65.112       34.541        0.281      334.601        4.680      853.036
01/30/2014  17:38:00       -4.078        4.368       69.409       22.544       38.601       29.458      508.251     1490.075      867.759        0.386        0.143        5.975       26.104       19.084      334.690        4.830      853.020
01/30/2014  17:39:00      -12.534       12.965       38.002       26.014       27.099       24.542      676.721      734.373      602.309        0.189        0.101       18.033       20.596        1.304      334.704        4.852      853.011
01/30/2014  17:40:00       14.092       13.393       37.683       31.791       41.796       30.402     1010.650     1746.947      924.284        0.274        0.184       19.441       27.183        1.955      334.687        4.823      853.005
01/30/2014  17:41:00      119.298     -112.070      -10.956       56.747       70.420       41.751     3220.168     4959.029     1743.158        1.842        0.496      163.682       54.781        0.112      334.612        4.698      852.992
01/30/2014  17:42:00       99.307      -97.152        0.646       46.318       82.802       42.433     2145.401     6856.173     1800.528        1.505        0.540      138.926       47.351        0.116      334.605        4.687      852.993
01/30/2014  17:43:00       78.328      -24.512       38.531       59.364       52.540       43.682     3524.070     2760.403     1908.106        0.821        0.410       82.074       44.178        0.290      334.567        4.624      852.990
01/30/2014  17:44:00       27.275       -8.303       23.366       34.317       71.573       40.865     1177.688     5122.642     1669.908        0.466        0.399       28.510       43.779        2.358      334.639        4.743      852.979
01/30/2014  17:45:00       94.975      -53.347       15.538       62.355       81.321       49.810     3888.197     6613.034     2481.068        1.254        0.649      108.931       57.662        0.280      334.539        4.578      852.976
01/30/2014  17:46:00       58.356       29.181       56.708       63.518       74.127       62.257     4034.505     5494.868     3875.956        1.044        0.670       65.245       57.616        0.780      334.536        4.573      852.945
01/30/2014  17:47:00       67.550       89.820       88.558       72.257       49.916       50.937     5221.052     2491.601     2594.599        1.539        0.515      112.386       42.854        0.145      334.508        4.526      852.940
01/30/2014  17:48:00       82.784       31.630       44.170       64.779       50.961       39.044     4196.291     2596.982     1524.444        0.906        0.416       88.621       30.839        0.121      334.520        4.545      852.926
01/30/2014  17:49:00       81.380       25.310       26.387       59.223       38.345       38.118     3507.419     1470.348     1452.962        0.719        0.322       85.225       34.455        0.163      334.490        4.496      852.924
01/30/2014  17:50:00       66.235       48.653       53.182       60.038       46.829       41.092     3604.578     2192.982     1688.578        0.853        0.374       82.184       33.460        0.166      334.512        4.531      852.923
01/30/2014  17:51:00       66.964       55.311       54.441       50.681       33.252       33.573     2568.580     1105.677     1127.125        0.765        0.240       86.853       28.974        0.111      334.537        4.575      852.940
01/30/2014  17:52:00       33.131       14.749       29.051       31.036       25.469       21.083      963.231      648.649      444.478        0.211        0.103       36.266       20.538        0.321      334.553        4.601      852.965
01/30/2014  17:53:00        7.049       13.768       13.338       26.756       31.330       13.778      715.892      981.563      189.846        0.115        0.094       15.468       14.264        0.850      334.563        4.619      852.989
01/30/2014  17:54:00       40.642       31.946       -0.497       29.569       19.718       21.311      874.321      388.783      454.146        0.219        0.086       51.694       14.053        0.074      334.433        4.404      853.019
01/30/2014  17:55:00       31.601       13.487       15.504       32.960       21.022       17.016     1086.383      441.917      289.557        0.162        0.091       34.359        8.460        0.061      334.519        4.545      853.039
01/30/2014  17:56:00       12.413      -37.044       28.838       35.428       31.654       28.285     1255.120     1002.001      800.030        0.271        0.153       39.068       28.250        0.523      334.711        4.864      853.047
01/30/2014  17:57:00       64.645      -67.528       10.282       40.006       44.022       28.278     1600.518     1937.927      799.625        0.659        0.217       93.482       30.925        0.109      334.542        4.584      853.059
01/30/2014  17:58:00       53.835        4.232       43.501       48.745       79.020       38.364     2376.029     6244.198     1471.765        0.745        0.505       54.001       49.973        0.856      334.492        4.501      853.054
01/30/2014  17:59:00      116.762       59.061       17.996       40.008       39.735       32.291     1600.612     1578.852     1042.683        1.083        0.211      130.850       22.007        0.028      334.469        4.462      853.059
01/30/2014  18:00:00       72.021       60.914       17.947       41.500       35.364       32.314     1722.271     1250.617     1044.208        0.662        0.201       94.327       24.807        0.069      334.438        4.412      853.052
01/30/2014  18:01:00       82.104       64.617        8.767       44.909       44.425       35.177     2016.829     1973.578     1237.442        0.811        0.261      104.482       22.679        0.047      334.371        4.301      853.044
01/30/2014  18:02:00       73.105       74.469        0.170       48.896       35.894       32.612     2390.805     1288.373     1063.532        0.782        0.237      104.355       20.367        0.038      334.363        4.287      853.037
01/30/2014  18:03:00       84.444       81.650        0.876       51.936       39.895       35.178     2697.335     1591.598     1237.499        0.966        0.276      117.463       26.933        0.053      334.347        4.261      853.030
01/30/2014  18:04:00       70.276       86.086       -8.150       48.390       37.535       36.703     2341.567     1408.881     1347.118        0.876        0.255      111.129       21.923        0.039      334.349        4.263      853.025
01/30/2014  18:05:00      124.895       70.559       23.004       43.389       46.013       27.643     1882.616     2117.161      764.125        1.293        0.238      143.448       14.035        0.010      334.368        4.293      853.020
01/30/2014  18:06:00       97.805       57.695       13.094       47.732       39.611       31.924     2278.375     1569.019     1019.141        0.897        0.243      113.554       26.029        0.053      334.384        4.321      853.014
01/30/2014  18:07:00       66.430       26.645       36.338       42.621       31.530       19.493     1816.572      994.135      379.991        0.482        0.160       71.574       13.221        0.034      334.397        4.343      853.011
01/30/2014  18:08:00       77.045       47.778       23.787       27.611       25.336       26.936      762.382      641.892      725.549        0.546        0.106       90.657       19.849        0.048      334.383        4.318      853.002
01/30/2014  18:09:00       95.250       88.696       62.760       43.397       33.899       33.423     1883.273     1149.163     1117.094        1.251        0.207      130.152       29.741        0.052      334.440        4.413      853.002
01/30/2014  18:10:00       35.653       78.126       88.604       41.333       38.044       24.772     1708.380     1447.348      613.670        0.950        0.188       85.877       21.219        0.061      334.414        4.372      853.006
01/30/2014  18:11:00       52.149       68.880       64.981       29.336       20.120       13.294      860.574      404.805      176.728        0.656        0.072       86.394       15.979        0.034      334.384        4.322      853.012
01/30/2014  18:12:00       41.612      -12.380       17.829       30.133       33.966       18.067      907.988     1153.680      326.401        0.229        0.119       43.414       16.989        0.153      334.547        4.592      853.015
01/30/2014  18:13:00       34.460      -73.212      -10.346       36.994       52.276       26.263     1368.584     2732.733      689.729        0.572        0.240       80.917       19.427        0.058      334.589        4.661      853.029
01/30/2014  18:14:00       -6.725      -15.799       21.345       20.624       34.426       23.511      425.336     1185.181      552.776        0.146        0.108       17.171       19.553        1.297      334.652        4.765      853.037
01/30/2014  18:15:00      -10.977      -78.305        6.373       28.237       40.004       26.927      797.334     1600.319      725.055        0.471        0.156       79.071       21.296        0.073      334.764        4.953      853.045
01/30/2014  18:16:00       34.021      -16.178        1.634       30.400       45.219       40.314      924.132     2044.719     1625.205        0.301        0.230       37.672       35.055        0.866      334.608        4.692      853.047
01/30/2014  18:17:00       12.089        5.644       31.658       25.307       25.299       19.000      640.431      640.058      360.996        0.141        0.082       13.342       13.840        1.076      334.550        4.597      853.052
01/30/2014  18:18:00        9.528       37.558       52.135       23.934       32.000       20.522      572.842     1023.982      421.151        0.312        0.101       38.748       20.310        0.275      334.527        4.557      853.059
01/30/2014  18:19:00      101.851       46.332       13.115       39.207       35.987       30.162     1537.176     1295.041      909.756        0.822        0.187      111.894       20.188        0.033      334.447        4.426      853.071
01/30/2014  18:20:00      112.625       85.370       27.275       27.971       22.037       29.326      782.358      485.620      860.006        1.142        0.106      141.324       15.105        0.011      334.394        4.338      853.083
01/30/2014  18:21:00      106.041       75.968       31.019       40.129       21.199       29.000     1610.371      449.392      841.002        1.044        0.145      130.445       22.234        0.029      334.385        4.320      853.104
01/30/2014  18:22:00       89.585       53.627       11.537       16.503       16.101       12.833      272.346      259.245      164.682        0.587        0.035      104.409        7.162        0.005      334.349        4.263      853.124
01/30/2014  18:23:00       77.023       41.810        2.425       32.235       18.824       15.842     1039.121      354.338      250.974        0.467        0.082       87.639       14.389        0.027      334.392        4.336      853.137
01/30/2014  18:24:00       61.143       57.707        5.561       23.874       19.446       18.377      569.952      378.136      337.716        0.419        0.064       84.075       10.766        0.016      334.389        4.331      853.150
01/30/2014  18:25:00       71.769       39.458        7.432       24.095       23.683       16.372      580.581      560.874      268.058        0.409        0.070       81.901       12.082        0.022      334.387        4.326      853.157
01/30/2014  18:26:00       57.637       39.222        4.447       22.282       17.404       13.411      496.486      302.892      179.854        0.293        0.049       69.717        8.421        0.015      334.380        4.315      853.161
01/30/2014  18:27:00       51.530       60.350        5.178       20.028       21.044       18.629      401.140      442.845      347.057        0.376        0.060       79.356       11.111        0.020      334.387        4.328      853.162
01/30/2014  18:28:00       30.540       55.931        4.181       25.586       26.812       23.171      654.622      718.873      536.879        0.299        0.096       63.726       18.806        0.087      334.395        4.340      853.156
01/30/2014  18:29:00       69.331       65.122       10.098       24.041       18.368       28.199      577.979      337.391      795.212        0.543        0.086       95.119       13.377        0.020      334.375        4.309      853.158
01/30/2014  18:30:00       84.787       49.019        4.907       15.100       12.782       21.597      228.017      163.381      466.452        0.524        0.043       97.937        4.091        0.002      334.412        4.370      853.149
01/30/2014  18:31:00       51.237       43.690       20.993       29.238       18.990       20.392      854.868      360.615      415.845        0.330        0.082       67.336       11.148        0.027      334.474        4.470      853.144
01/30/2014  18:32:00       25.771      -11.804       17.275       28.679       46.420       22.424      822.492     2154.858      502.825        0.229        0.174       28.346       20.876        0.542      334.491        4.500      853.140
01/30/2014  18:33:00        8.820        0.499       19.437       20.545       24.358       23.329      422.117      593.331      544.262        0.101        0.078        8.835       21.267        5.795      334.510        4.529      853.144
01/30/2014  18:34:00       18.436       34.732        9.005       13.257       14.799       15.691      175.742      219.024      246.202        0.113        0.032       39.321       10.338        0.069      334.487        4.492      853.147
01/30/2014  18:35:00        8.246       17.581        3.917       16.540       16.137       10.185      273.566      260.390      103.734        0.051        0.032       19.418        6.235        0.103      334.454        4.440      853.148
01/30/2014  18:36:00       32.070       72.444      -13.833       10.211       10.271        8.552      104.260      105.494       73.144        0.338        0.014       79.225        3.980        0.003      334.406        4.361      853.150
01/30/2014  18:37:00       58.315       62.523       -2.976       25.937       24.511       20.021      672.709      600.765      400.842        0.450        0.084       85.497       12.938        0.023      334.421        4.383      853.142
01/30/2014  18:38:00       71.369       57.037        3.788       32.767       22.789       22.083     1073.708      519.344      487.666        0.522        0.104       91.361       12.499        0.019      334.413        4.371      853.135
01/30/2014  18:39:00      109.400       60.664       13.433       39.006       33.922       34.404     1521.448     1150.669     1183.616        0.984        0.193      125.094       23.176        0.034      334.406        4.358      853.129
01/30/2014  18:40:00      119.786       82.730        0.775       39.833       30.534       32.122     1586.635      932.339     1031.845        1.237        0.178      145.578       15.199        0.011      334.353        4.270      853.123
01/30/2014  18:41:00      132.476       73.572        9.738       35.521       34.436       31.336     1261.751     1185.837      981.952        1.324        0.171      151.534       20.367        0.018      334.354        4.271      853.125
01/30/2014  18:42:00      112.175       60.910       -1.578       40.044       37.669       23.906     1603.559     1418.928      571.510        0.994        0.180      127.645       14.351        0.013      334.332        4.236      853.140
01/30/2014  18:43:00       96.784       73.283       15.634       32.812       33.161       25.952     1076.626     1099.636      673.499        0.892        0.142      121.399       17.523        0.021      334.330        4.230      853.162
01/30/2014  18:44:00       68.138       38.520        4.838       27.037       25.267       24.008      730.973      638.430      576.407        0.405        0.097       78.272       15.403        0.039      334.363        4.286      853.182
01/30/2014  18:45:00       58.062       50.731        9.633       33.593       29.512       24.092     1128.511      870.944      580.445        0.431        0.129       77.102       18.417        0.057      334.355        4.272      853.193
01/30/2014  18:46:00       90.588       55.387       13.037       31.333       31.983       27.972      981.762     1022.895      782.451        0.712        0.139      106.179       14.690        0.019      334.345        4.257      853.212
01/30/2014  18:47:00       99.385       58.516        6.394       22.761       21.495       18.194      518.080      462.017      331.039        0.733        0.066      115.332       11.495        0.010      334.328        4.229      853.223
01/30/2014  18:48:00       56.663       36.776        5.043       38.358       30.366       20.442     1471.339      922.087      417.868        0.370        0.141       67.551       18.112        0.072      334.388        4.330      853.229
01/30/2014  18:49:00       56.965       34.330        7.431       31.465       30.998       26.357      990.032      960.904      694.690        0.356        0.132       66.510       16.292        0.060      334.349        4.265      853.240
01/30/2014  18:50:00       26.966       14.696        6.279       32.603       25.909       23.046     1062.955      671.261      531.132        0.162        0.113       30.711       14.384        0.219      334.392        4.336      853.244
01/30/2014  18:51:00       61.266       51.912        4.754       28.795       31.816       20.772      829.141     1012.272      431.471        0.437        0.114       80.302       15.522        0.037      334.333        4.237      853.240
01/30/2014  18:52:00       98.851       53.171       11.513       28.974       22.238       18.084      839.479      494.541      327.017        0.720        0.083      112.244       16.337        0.021      334.364        4.289      853.239
01/30/2014  18:53:00       51.675       70.151       -5.589       29.351       42.393       29.525      861.463     1797.137      871.698        0.558        0.177       87.129       23.763        0.074      334.356        4.276      853.233
01/30/2014  18:54:00       76.108       59.418        4.205       39.621       28.844       28.360     1569.856      832.000      804.295        0.627        0.160       96.555       18.872        0.038      334.343        4.253      853.228
01/30/2014  18:55:00       75.504       48.374       18.506       36.099       31.903       27.255     1303.151     1017.770      742.858        0.572        0.153       89.671       18.751        0.044      334.373        4.304      853.223
01/30/2014  18:56:00      134.666       94.668       14.388       30.344       28.205       24.310      920.769      795.504      590.974        1.481        0.115      164.612       15.335        0.009      334.304        4.188      853.228
01/30/2014  18:57:00      113.638       76.508        9.975       29.718       23.969       27.264      883.157      574.514      743.349        1.053        0.110      136.993       16.940        0.015      334.340        4.247      853.234
01/30/2014  18:58:00      116.734       58.261        2.460       30.633       31.064       26.415      938.410      964.976      697.747        0.981        0.130      130.466       13.692        0.011      334.321        4.218      853.252
01/30/2014  18:59:00       96.946       60.681       12.536       45.862       24.566       22.682     2103.338      603.471      514.490        0.823        0.161      114.370       10.153        0.008      334.308        4.196      853.274
01/30/2014  19:00:00      100.138       43.539       14.790       28.970       21.440       23.397      839.254      459.681      547.409        0.699        0.092      109.193       17.111        0.025      334.286        4.160      853.288
01/30/2014  19:01:00       98.590       81.388       46.908       33.092       21.453       23.645     1095.087      460.228      559.086        1.033        0.106      127.844       10.630        0.007      334.304        4.188      853.297
01/30/2014  19:02:00       71.441       43.081       32.488       39.867       27.359       27.797     1589.362      748.496      772.693        0.556        0.156       83.425       22.428        0.072      334.318        4.213      853.311
01/30/2014  19:03:00       83.264       45.695       22.075       46.864       31.593       28.008     2196.248      998.096      784.470        0.674        0.199       94.979       15.293        0.026      334.303        4.187      853.312
01/30/2014  19:04:00      106.680       52.485       20.899       26.112       25.362       23.426      681.835      643.216      548.793        0.822        0.094      118.892       14.565        0.015      334.300        4.182      853.307
01/30/2014  19:05:00      143.447       72.849       11.214       33.187       23.019       26.995     1101.392      529.896      728.719        1.418        0.118      160.885       11.377        0.005      334.264        4.122      853.309
01/30/2014  19:06:00      145.267       70.759       14.886       32.699       24.667       25.280     1069.229      608.446      639.069        1.432        0.116      161.584       15.616        0.009      334.246        4.092      853.309
01/30/2014  19:07:00      134.186       87.983       18.029       46.210       36.217       38.996     2135.367     1311.648     1520.696        1.552        0.248      160.459       29.882        0.035      334.257        4.111      853.310
01/30/2014  19:08:00      172.034       85.594       16.081       57.094       36.250       35.970     3259.702     1314.049     1293.876        2.152        0.293      192.151       24.630        0.016      334.255        4.104      853.295
01/30/2014  19:09:00      128.076       74.504       18.319       47.729       40.721       37.215     2278.062     1658.182     1384.980        1.380        0.266      148.170       25.333        0.029      334.229        4.064      853.280
01/30/2014  19:10:00      126.325       75.434       31.143       56.696       39.218       38.392     3214.489     1538.023     1473.961        1.442        0.311      147.134       28.169        0.037      334.224        4.054      853.294
01/30/2014  19:11:00      136.396       67.938        7.062       36.488       35.798       29.854     1331.355     1281.465      891.246        1.339        0.175      152.379       19.221        0.016      334.231        4.066      853.302
01/30/2014  19:12:00      120.709       58.240       13.852       55.080       46.354       34.215     3033.789     2148.682     1170.678        1.225        0.318      134.024       19.964        0.022      334.244        4.090      853.318
01/30/2014  19:13:00       83.055       29.430       20.952       55.901       39.507       29.029     3124.904     1560.835      842.698        0.686        0.276       88.115       21.785        0.061      334.267        4.128      853.324
01/30/2014  19:14:00       50.582       34.814       33.372       50.560       32.862       34.159     2556.336     1079.918     1166.806        0.484        0.240       61.405       17.061        0.077      334.291        4.167      853.353
01/30/2014  19:15:00      125.514       76.221       34.415       59.019       50.221       46.546     3483.234     2522.188     2166.563        1.546        0.409      146.845       30.223        0.042      334.211        4.033      853.381
01/30/2014  19:16:00      110.456       23.802       21.756       53.350       45.588       36.841     2846.198     2078.264     1357.236        0.976        0.314      112.991       25.148        0.050      334.219        4.048      853.381
01/30/2014  19:17:00       60.590       44.314       37.271       48.614       44.175       36.266     2363.349     1951.463     1315.225        0.633        0.282       75.066       32.293        0.185      334.240        4.082      853.392
01/30/2014  19:18:00       75.473       45.717       59.359       49.196       43.867       37.572     2420.284     1924.293     1411.622        0.853        0.288       88.240       30.758        0.122      334.283        4.154      853.424
01/30/2014  19:19:00       58.065       37.851       55.182       60.546       45.955       28.159     3665.877     2111.893      792.921        0.721        0.329       69.313       25.970        0.140      334.306        4.193      853.434
01/30/2014  19:20:00       44.504       -6.464       26.847       48.709       82.866       30.639     2372.550     6866.845      938.735        0.646        0.509       44.971       38.617        0.737      334.426        4.391      853.458
01/30/2014  19:21:00       73.376     -113.219      -17.004       36.166       37.445       23.587     1307.983     1402.093      556.334        1.088        0.163      134.917       18.421        0.019      334.354        4.270      853.489
01/30/2014  19:22:00       59.877     -109.358      -16.027       39.658       49.481       26.914     1572.745     2448.353      724.363        1.027        0.237      124.677       17.524        0.020      334.391        4.333      853.513
01/30/2014  19:23:00      123.903      -93.459      -15.764       35.547       58.477       27.185     1263.605     3419.555      739.002        1.488        0.271      155.199       28.865        0.035      334.227        4.059      853.528
01/30/2014  19:24:00       43.986       17.306       51.734       44.691       64.311       44.430     1997.277     4135.913     1974.040        0.651        0.405       47.268       49.472        1.095      334.294        4.171      853.534
01/30/2014  19:25:00       70.142       48.270       76.581       57.248       48.768       41.077     3277.299     2378.342     1687.344        1.023        0.367       85.146       39.015        0.210      334.226        4.060      853.560
01/30/2014  19:26:00      105.918       76.201       68.497       42.789       48.730       48.071     1830.929     2374.652     2310.857        1.412        0.326      130.481       33.363        0.065      334.172        3.968      853.559
01/30/2014  19:27:00      139.775       80.872       56.782       64.557       46.184       51.610     4167.626     2132.988     2663.548        1.913        0.448      161.485       29.538        0.033      334.223        4.052      853.524
01/30/2014  19:28:00       44.397      115.251      102.383       87.896       60.684       55.832     7725.740     3682.602     3117.197        2.013        0.726      123.506       55.818        0.204      334.179        3.980      853.502
01/30/2014  19:29:00      156.197      113.981       15.238       73.392       61.280       43.413     5386.405     3755.273     1884.703        2.432        0.551      193.362       28.259        0.021      334.132        3.901      853.551
01/30/2014  19:30:00      247.976      186.409       15.839       67.345       57.985       48.997     4535.372     3362.293     2400.678        5.339        0.515      310.226       38.691        0.016      334.080        3.813      853.558
01/30/2014  19:31:00      255.316      164.759       10.936       74.402       64.005       44.672     5535.637     4096.633     1995.554        5.204        0.581      303.862       31.624        0.011      334.099        3.843      853.527
01/30/2014  19:32:00      249.762      151.886       10.858       70.924       56.058       49.144     5030.254     3142.518     2415.166        4.808        0.529      292.319       38.429        0.017      334.078        3.809      853.516
01/30/2014  19:33:00      131.040       98.351       10.847       90.233       71.209       45.830     8141.943     5070.756     2100.370        2.114        0.766      163.843       29.422        0.032      334.129        3.896      853.511
01/30/2014  19:34:00       29.953      129.115      -20.043       60.541       71.552       35.595     3665.235     5119.699     1267.001        1.401        0.503      132.544       37.862        0.082      334.206        4.025      853.528
01/30/2014  19:35:00      -50.402      118.651      -26.684       42.292       52.051       33.224     1788.628     2709.337     1103.805        1.147        0.280      128.912       13.006        0.010      334.209        4.031      853.553
01/30/2014  19:36:00      -51.957      -18.596        9.546       63.558       41.058       27.755     4039.651     1685.789      770.354        0.482        0.325       55.184       32.213        0.341      334.361        4.284      853.563
01/30/2014  19:37:00      -41.685       62.092       -2.893       69.472       81.288       37.007     4826.351     6607.740     1369.486        0.920        0.640       74.787       51.276        0.470      334.387        4.325      853.588
01/30/2014  19:38:00      -53.725      136.356      -10.676       38.201       49.118       28.381     1459.340     2412.539      805.484        1.313        0.234      146.558       15.662        0.011      334.390        4.332      853.597
01/30/2014  19:39:00       -4.389      122.288      -22.890       31.111       50.086       17.797      967.925     2508.647      316.718        0.964        0.190      122.367       23.147        0.036      334.402        4.352      853.605
01/30/2014  19:40:00      -46.918       89.128      -18.657       48.215       55.409       28.296     2324.710     3070.161      800.658        0.834        0.310      100.723       14.916        0.022      334.412        4.367      853.622
01/30/2014  19:41:00      -76.249       14.033      -14.751       24.674       21.826       18.099      608.822      476.366      327.566        0.382        0.071       77.530       11.117        0.021      334.425        4.391      853.643
01/30/2014  19:42:00       25.970       39.032       -7.282       51.072       37.196       22.632     2608.306     1383.531      512.230        0.338        0.225       46.882       10.216        0.047      334.297        4.177      853.650
01/30/2014  19:43:00       29.866       54.853       15.661       35.912       47.111       30.898     1289.640     2219.445      954.702        0.430        0.223       62.457       32.864        0.277      334.216        4.043      853.639
01/30/2014  19:44:00       13.641       46.883      -12.998       31.752       23.767       16.613     1008.207      564.883      276.004        0.220        0.092       48.828       10.028        0.042      334.100        3.851      853.644
01/30/2014  19:45:00      -19.669       12.401       -0.021       40.095       26.335       18.527     1607.649      693.519      343.235        0.159        0.132       23.252        8.548        0.135      334.152        3.937      853.653
01/30/2014  19:46:00      -58.772       59.786      -10.311       30.912       31.963       19.027      955.575     1021.651      362.022        0.474        0.117       83.836       20.312        0.059      334.163        3.953      853.687
01/30/2014  19:47:00      -22.627       83.156       -8.670       29.218       57.534       18.602      853.689     3310.172      346.023        0.601        0.225       86.179       21.281        0.061      334.299        4.181      853.700
01/30/2014  19:48:00      -12.626       41.582      -11.543       79.342       85.656       30.844     6295.089     7336.986      951.324        0.830        0.729       43.457       24.172        0.309      334.433        4.404      853.690
01/30/2014  19:49:00     -276.873      -83.215      -29.155      163.868       56.937       41.380    26852.844     3241.869     1712.268        5.811        1.590      289.107       48.706        0.028      334.364        4.284      853.703
01/30/2014  19:50:00     -283.627      -87.579      -16.438      155.746      101.072       57.140    24256.967    10215.502     3265.018        6.305        1.887      296.841       71.517        0.058      334.332        4.230      853.689
01/30/2014  19:51:00      -79.221       16.377       33.141       94.447       75.797       44.452     8920.158     5745.200     1975.985        1.214        0.832       80.896       44.968        0.309      334.431        4.399      853.689
01/30/2014  19:52:00      -68.201      -20.672        5.099       81.998       63.291       34.408     6723.616     4005.798     1183.918        0.851        0.596       71.265       42.097        0.349      334.433        4.404      853.704
01/30/2014  19:53:00     -198.000      -47.824      -12.529      128.552       93.418       55.616    16525.621     8727.015     3093.135        3.499        1.417      203.693       54.602        0.072      334.354        4.269      853.710
01/30/2014  19:54:00     -440.369     -166.257      -15.817      232.583      144.974       99.198    54094.668    21017.536     9840.251       15.337        4.248      470.709      105.662        0.050      333.904        3.522      853.716
01/30/2014  19:55:00     -300.237     -138.378       -6.988      168.363      135.089       90.165    28346.265    18249.109     8129.773        8.202        2.736      330.592      104.013        0.099      333.682        3.153      853.719
01/30/2014  19:56:00     -249.710      -62.832        8.100      142.519      122.711       72.340    20311.739    15057.938     5233.037        5.348        2.030      257.493       76.801        0.089      333.685        3.158      853.716
01/30/2014  19:57:00     -271.673     -128.091      -19.266      115.623      103.407       60.922    13368.742    10693.054     3711.502        5.917        1.389      300.356       68.006        0.051      333.783        3.320      853.704
01/30/2014  19:58:00     -288.399     -122.192       -9.524      108.181       92.227       55.585    11703.061     8505.789     3089.693        6.074        1.165      313.217       51.292        0.027      333.874        3.472      853.690
01/30/2014  19:59:00     -219.970      -58.209       -7.867      139.045      107.637       57.545    19333.606    11585.803     3311.462        4.303        1.712      227.541       63.594        0.078      333.873        3.470      853.689
01/30/2014  20:00:00     -107.739      -65.537       16.693      127.252       87.491       57.069    16193.090     7654.630     3256.817        2.164        1.355      126.106       52.561        0.174      334.010        3.699      853.737
01/30/2014  20:01:00     -182.096      -84.201      -10.403       96.553       83.742       42.420     9322.513     7012.740     1799.458        2.924        0.907      200.621       47.624        0.056      334.030        3.732      853.737
01/30/2014  20:02:00     -155.029      -32.019        5.936       94.837       70.452       42.952     8994.007     4963.518     1844.839        2.045        0.790      158.301       34.084        0.046      334.123        3.885      853.750
01/30/2014  20:03:00     -109.086      -46.362       19.268      107.370       73.138       43.882    11528.326     5349.226     1925.666        1.661        0.940      118.529       55.586        0.220      334.118        3.878      853.769
01/30/2014  20:04:00     -205.703     -151.558      -11.513       67.091       60.449       41.281     4501.260     3654.086     1704.091        3.764        0.493      255.506       36.605        0.021      334.111        3.863      853.777
01/30/2014  20:05:00     -200.339      -46.080       -5.914       68.850       56.346       35.759     4740.267     3174.927     1278.716        2.574        0.460      205.571       30.045        0.021      334.068        3.794      853.804
01/30/2014  20:06:00     -135.776      -47.724       -6.386       60.650       53.812       30.976     3678.468     2895.753      959.515        1.414        0.377      143.919       23.081        0.026      334.039        3.748      853.817
01/30/2014  20:07:00     -193.600      -73.611        1.729      105.976       53.328       35.894    11230.903     2843.914     1288.344        2.913        0.768      207.122       35.180        0.029      334.053        3.769      853.818
01/30/2014  20:08:00     -232.906      -44.807       -3.109      109.744      105.627       43.135    12043.842    11157.000     1860.628        4.066        1.253      237.177       50.800        0.046      333.969        3.628      853.836
01/30/2014  20:09:00     -187.902      -26.064       -4.803       73.291       66.126       37.055     5371.610     4372.635     1373.066        2.356        0.556      189.701       39.733        0.044      333.909        3.531      853.860
01/30/2014  20:10:00      -76.991      -49.490        0.462       56.760       52.887       33.501     3221.724     2797.078     1122.298        0.776        0.357       91.525       31.657        0.120      333.830        3.403      853.847
01/30/2014  20:11:00      -87.540      -50.327       17.498       82.763       65.890       38.211     6849.780     4341.532     1460.065        1.157        0.633      100.975       47.941        0.225      333.963        3.622      853.849
01/30/2014  20:12:00      -93.523      -35.091        7.684       77.353       59.860       34.793     5983.488     3583.219     1210.553        1.041        0.539       99.890       43.120        0.186      333.942        3.587      853.854
01/30/2014  20:13:00        2.380       -5.228       19.951       23.285       19.746       23.159      542.187      389.906      536.354        0.095        0.073        5.744       17.220        8.988      333.981        3.653      853.842
01/30/2014  20:14:00      -97.789      -53.021       -9.520       58.510       71.938       29.827     3423.365     5175.055      889.663        1.097        0.474      111.238       25.456        0.052      333.853        3.440      853.848
01/30/2014  20:15:00     -102.459      -18.778       -9.153       67.308       53.572       23.423     4530.347     2869.985      548.616        0.944        0.397      104.166       26.817        0.066      333.921        3.553      853.851
01/30/2014  20:16:00     -161.107      -76.843       -7.002       64.162       59.586       36.704     4116.727     3550.465     1347.165        2.046        0.451      178.495       16.515        0.009      333.920        3.548      853.858
01/30/2014  20:17:00     -298.693       54.605      -28.280      113.784       99.226       54.693    12946.806     9845.847     2991.281        5.939        1.289      303.643       37.326        0.015      333.865        3.458      853.879
01/30/2014  20:18:00     -187.812      -18.944      -12.835       68.088       79.995       45.898     4636.041     6399.249     2106.624        2.447        0.657      188.765       41.184        0.048      333.913        3.537      853.883
01/30/2014  20:19:00     -292.639      -72.918       -0.749      150.136      114.808       67.299    22540.930    13180.871     4529.191        6.560        2.013      301.587       77.958        0.067      333.924        3.555      853.898
01/30/2014  20:20:00     -187.512     -109.141        8.200      160.334      127.131       63.423    25706.871    16162.406     4022.496        4.651        2.295      216.962       78.291        0.130      334.015        3.705      853.895
01/30/2014  20:21:00     -204.949     -136.454        6.937      167.763      129.300       67.961    28144.456    16718.480     4618.754        5.507        2.474      246.219       85.364        0.120      334.011        3.701      853.929
01/30/2014  20:22:00     -383.493     -185.623      -12.766      218.298      178.849      101.086    47653.813    31986.921    10218.456       13.576        4.493      426.055      112.265        0.069      333.916        3.542      853.944
01/30/2014  20:23:00     -269.341     -102.273       10.116      168.549      143.058       97.409    28408.832    20465.666     9488.588        7.073        2.918      288.105       97.595        0.115      333.924        3.555      853.918
01/30/2014  20:24:00     -422.324     -138.553       13.238      246.733      211.537       95.502    60877.353    44747.870     9120.594       15.622        5.737      444.471      117.516        0.070      333.850        3.432      853.910
01/30/2014  20:25:00     -357.711     -170.860       -6.821      190.407      200.142       92.931    36254.992    40056.786     8636.174       12.106        4.247      396.422       86.416        0.048      333.873        3.471      853.900
01/30/2014  20:26:00     -379.242     -120.757      -35.771      195.756      139.361       85.862    38320.549    19421.556     7372.271       11.239        3.256      398.003       98.680        0.061      333.823        3.387      853.911
01/30/2014  20:27:00     -201.262      -85.604       -7.877      165.315      130.899       85.093    27329.138    17134.608     7240.851        4.979        2.585      218.711       83.989        0.147      333.884        3.489      853.915
01/30/2014  20:28:00     -248.738     -132.811       -0.117      137.593      146.459       71.412    18931.790    21450.289     5099.672        6.249        2.274      281.974       79.596        0.080      333.853        3.437      853.911
01/30/2014  20:29:00     -271.668     -125.560        4.067      184.093      120.109       78.321    33890.202    14426.122     6134.103        7.201        2.723      299.281       95.288        0.101      333.813        3.371      853.906
01/30/2014  20:30:00     -368.899     -248.930      -16.322      187.208      163.063       83.253    35046.862    26589.542     6930.998       13.343        3.428      445.031       81.010        0.033      333.819        3.379      853.893
01/30/2014  20:31:00     -308.581     -259.496      -13.794      180.384      160.539       94.563    32538.561    25772.689     8942.239       11.499        3.363      403.188      106.369        0.070      333.770        3.300      853.858
01/30/2014  20:32:00     -272.595     -132.577       -6.921      175.565      109.184       72.401    30823.091    11921.114     5241.861        6.995        2.399      303.125       74.409        0.060      333.779        3.312      853.868
01/30/2014  20:33:00     -295.960     -124.429      -17.346      122.044      103.194       58.096    14894.782    10648.924     3375.104        6.614        1.446      321.052       54.362        0.029      333.738        3.245      853.873
01/30/2014  20:34:00     -206.145     -102.420        2.637      160.644      107.368       73.095    25806.555    11527.862     5342.806        4.783        2.134      230.186       90.204        0.154      333.731        3.234      853.877
01/30/2014  20:35:00     -293.997     -209.043       -2.198      158.050      130.478       84.370    24979.778    17024.636     7118.337        8.962        2.456      360.740       99.943        0.077      333.728        3.229      853.857
01/30/2014  20:36:00     -206.384      -76.724        2.947      141.906      124.708       66.116    20137.307    15552.001     4371.311        4.427        2.003      220.184       63.841        0.084      333.771        3.299      853.870
01/30/2014  20:37:00     -431.353     -181.960      -25.478      166.870      133.692       70.998    27845.590    17873.647     5040.774       13.528        2.538      468.161       70.801        0.023      333.709        3.197      853.870
01/30/2014  20:38:00     -277.411     -168.525      -18.434      138.331      142.293       76.418    19135.443    20247.235     5839.668        7.545        2.261      324.588       77.198        0.057      333.730        3.231      853.878
01/30/2014  20:39:00     -141.886     -110.293       12.721      165.802       94.614       69.117    27490.419     8951.900     4777.177        3.683        2.061      179.711       71.045        0.156      333.776        3.309      853.887
01/30/2014  20:40:00     -279.909      -99.065        4.383      163.349      136.315       71.945    26683.041    18581.905     5176.129        6.930        2.522      296.922       82.329        0.077      333.758        3.278      853.925
01/30/2014  20:41:00     -252.842      -59.588        3.690      125.722       92.432       54.814    15805.967     8543.589     3004.540        4.742        1.368      259.769       58.274        0.050      333.727        3.227      853.938
01/30/2014  20:42:00     -198.739      -40.216        9.541      138.909      118.911       58.971    19295.770    14139.765     3477.523        3.905        1.846      202.767       72.633        0.128      333.758        3.278      853.938
01/30/2014  20:43:00     -159.836      -42.708       13.683      154.466       85.877       66.880    23859.748     7374.857     4472.952        3.163        1.785      165.444       69.015        0.174      333.807        3.362      853.945
01/30/2014  20:44:00      -92.700       -5.303        5.959      101.107       62.639       69.145    10222.688     3923.706     4781.023        1.379        0.946       92.851       64.875        0.488      333.826        3.393      853.960
01/30/2014  20:45:00     -197.615      -47.685      -11.902       98.983       67.297       50.545     9797.632     4528.896     2554.792        2.917        0.844      203.287       45.998        0.051      333.783        3.320      853.958
01/30/2014  20:46:00     -264.650      -51.680      -17.519       95.523       72.169       38.163     9124.712     5208.362     1456.447        4.440        0.789      269.649       28.085        0.011      333.736        3.241      853.964
01/30/2014  20:47:00     -131.406      -60.269       -0.547       84.041       49.373       31.729     7062.959     2437.680     1006.711        1.570        0.525      144.568       35.264        0.059      333.785        3.325      853.960
01/30/2014  20:48:00     -191.984     -101.845        0.248       88.928       91.603       44.241     7908.194     8391.085     1957.281        3.274        0.913      217.325       45.618        0.044      333.796        3.341      853.977
01/30/2014  20:49:00     -253.243     -172.592        3.254      159.489      153.675       83.003    25436.608    23615.997     6889.504        7.493        2.797      306.464       93.998        0.094      333.806        3.357      853.975
01/30/2014  20:50:00     -314.140     -120.034      -12.628      179.561      124.395       68.300    32242.015    15474.047     4664.877        8.281        2.619      336.292       52.052        0.024      333.836        3.407      853.968
01/30/2014  20:51:00     -214.398      -52.091       12.613      142.486      111.610       56.540    20302.130    12456.737     3196.822        4.239        1.798      220.635       58.254        0.070      333.882        3.485      853.997
01/30/2014  20:52:00     -263.774     -150.104       -6.036      183.706      117.784       80.287    33748.011    13873.162     6446.071        7.310        2.703      303.493       83.992        0.077      333.959        3.613      853.987
01/30/2014  20:53:00     -184.611      -70.306       -4.969      154.314       97.850       74.004    23812.796     9574.572     5476.660        3.895        1.943      197.545       90.741        0.211      333.988        3.662      853.993
01/30/2014  20:54:00     -265.608      -55.036       -9.042      154.366       92.314       66.799    23828.938     8521.838     4462.057        5.523        1.841      271.250       49.768        0.034      333.968        3.629      854.007
01/30/2014  20:55:00     -344.653     -188.287      -14.948      128.290      114.361       71.130    16458.274    13078.520     5059.459        9.452        1.730      392.731       64.089        0.027      333.963        3.620      854.028
01/30/2014  20:56:00     -295.512      -64.884       -7.478      177.229      120.856       70.893    31409.992    14606.234     5025.832        7.131        2.552      302.552       78.860        0.068      333.996        3.674      854.040
01/30/2014  20:57:00     -340.631     -261.425      -17.889      176.598      144.476       84.249    31186.866    20873.323     7097.878       12.192        2.958      429.386       82.370        0.037      333.983        3.654      854.030
01/30/2014  20:58:00     -146.770     -131.130        8.969      126.583      119.669       64.543    16023.297    14320.701     4165.805        3.666        1.725      196.816       67.370        0.117      334.059        3.780      854.038
01/30/2014  20:59:00     -490.098      -83.528      -39.524      292.416      144.434       67.221    85507.104    20861.110     4518.664       17.979        5.544      497.165       88.129        0.031      333.957        3.610      854.062
01/30/2014  21:00:00     -495.742     -128.798      -37.760      232.721      131.246       69.515    54158.922    17225.424     4832.360       16.998        3.811      512.200       94.530        0.034      333.920        3.549      854.067
01/30/2014  21:01:00     -245.293      -81.576        7.333      123.586      122.026       56.195    15273.411    14890.255     3157.867        5.009        1.666      258.502       53.139        0.042      333.878        3.478      854.089
01/30/2014  21:02:00     -393.295     -113.976      -22.548      214.598      139.690       79.607    46052.435    19513.420     6337.212       12.003        3.595      409.477       90.347        0.049      333.846        3.424      854.094
01/30/2014  21:03:00     -208.121      -40.122       17.184      168.722      133.225       76.703    28467.008    17748.919     5883.364        4.865        2.605      211.953       68.388        0.104      333.866        3.460      854.086
01/30/2014  21:04:00     -405.681     -101.414        6.905      185.167      151.499       87.267    34286.663    22951.854     7615.497       11.987        3.243      418.165       90.790        0.047      333.789        3.329      854.133
01/30/2014  21:05:00     -413.110     -126.401      -21.432      220.826      150.185       91.270    48764.150    22555.488     8330.263       13.336        3.982      432.015      111.241        0.066      333.715        3.209      854.157
01/30/2014  21:06:00     -137.406      -84.272        7.944      122.138      104.666       56.965    14917.764    10954.962     3245.049        2.758        1.456      161.190       55.557        0.119      333.748        3.263      854.187
01/30/2014  21:07:00     -258.328     -130.056      -18.386      150.645      123.633       65.205    22693.878    15285.077     4251.749        6.310        2.112      289.219       60.496        0.044      333.683        3.155      854.182
01/30/2014  21:08:00     -278.464     -106.139       -3.980      209.650      151.019      103.987    43953.328    22806.725    10813.248        8.319        3.879      298.006      120.695        0.164      333.668        3.132      854.152
01/30/2014  21:09:00     -250.007     -124.144        5.604      185.254      167.271       71.280    34319.077    27979.484     5080.872        7.265        3.369      279.133       73.744        0.070      333.668        3.131      854.163
01/30/2014  21:10:00     -310.508     -200.068        0.510      198.918      136.997       99.946    39568.188    18768.213     9989.162       10.237        3.416      369.382      103.759        0.079      333.649        3.098      854.154
01/30/2014  21:11:00     -310.473     -130.861       -4.753      181.636      136.116       77.347    32991.591    18527.558     5982.491        8.551        2.875      336.924       93.966        0.078      333.621        3.053      854.200
01/30/2014  21:12:00     -360.739     -141.318       -7.541      177.183      135.898       79.389    31393.716    18468.305     6302.635       10.315        2.808      387.432       79.141        0.042      333.594        3.008      854.207
01/30/2014  21:13:00     -409.459     -102.161      -15.933      164.576      134.580       78.775    27085.357    18111.837     6205.492       11.487        2.570      422.011       78.279        0.034      333.570        2.967      854.191
01/30/2014  21:14:00     -303.665      -72.452       -9.178      154.580      142.736       71.432    23895.096    20373.607     5102.522        7.345        2.469      312.189       73.281        0.055      333.594        3.010      854.179
01/30/2014  21:15:00     -514.812     -129.891      -30.487      151.365      133.983       71.648    22911.411    17951.558     5133.439       16.441        2.300      530.946       81.722        0.024      333.589        3.000      854.169
01/30/2014  21:16:00     -399.672      -59.474      -24.201      140.642      168.598       74.717    19780.135    28425.372     5582.564       10.882        2.689      404.073       59.773        0.022      333.605        3.026      854.173
01/30/2014  21:17:00     -322.542      -77.677      -21.801      149.336      102.029       60.152    22301.214    10409.854     3618.322        7.343        1.816      331.763       61.519        0.034      333.641        3.087      854.179
01/30/2014  21:18:00     -141.757      -46.474        2.926      160.135      101.060       67.148    25643.294    10213.115     4508.887        3.131        2.018      149.180       78.529        0.277      333.719        3.215      854.175
01/30/2014  21:19:00     -256.454      -18.278        2.078      166.941      102.479       69.560    27869.392    10501.862     4838.599        5.465        2.160      257.105       75.618        0.087      333.649        3.100      854.184
01/30/2014  21:20:00     -268.072       32.729      -10.597      166.392       96.567       67.992    27686.201     9325.166     4622.852        5.733        2.082      270.062       83.973        0.097      333.597        3.014      854.178
01/30/2014  21:21:00     -150.297      -19.548        8.521       89.431       74.653       50.382     7997.875     5573.012     2538.319        1.957        0.805      151.563       42.242        0.078      333.650        3.102      854.184
01/30/2014  21:22:00     -299.672      -14.823      -18.169       99.309       93.876       48.406     9862.353     8812.735     2343.188        5.568        1.051      300.039       38.321        0.016      333.565        2.960      854.185
01/30/2014  21:23:00     -370.196      -74.644      -28.957       86.377       98.376       59.068     7460.926     9677.794     3489.028        8.204        1.031      377.647       44.358        0.014      333.568        2.964      854.180
01/30/2014  21:24:00     -359.474      -16.448      -13.966      133.906       87.264       62.011    17930.793     7615.083     3845.372        7.953        1.470      359.850       66.982        0.035      333.556        2.946      854.193
01/30/2014  21:25:00     -339.927     -111.538      -17.353      143.120      136.398       65.043    20483.365    18604.426     4230.593        8.580        2.166      357.758       64.144        0.032      333.604        3.026      854.178
01/30/2014  21:26:00     -156.150     -111.059        3.738      115.821      102.686       69.005    13414.429    10544.505     4761.670        3.272        1.436      191.617       61.825        0.104      333.685        3.159      854.167
01/30/2014  21:27:00     -186.413      -83.980       -1.053      116.253      122.262       56.517    13514.793    14948.093     3194.138        3.672        1.583      204.456       62.615        0.094      333.641        3.087      854.185
01/30/2014  21:28:00     -203.468      -21.478        4.250      128.264       93.593       45.280    16451.575     8759.663     2050.290        3.457        1.363      204.598       54.722        0.072      333.682        3.154      854.210
01/30/2014  21:29:00     -290.893        1.892      -19.003       99.330       80.675       49.612     9866.495     6508.512     2461.347        5.191        0.942      290.899       54.032        0.034      333.602        3.022      854.233
01/30/2014  21:30:00     -237.005      -18.993      -26.269       66.073       61.487       34.678     4365.667     3780.713     1202.575        3.328        0.467      237.765       31.436        0.017      333.614        3.041      854.264
01/30/2014  21:31:00     -139.705       -1.611       -6.637       95.753       52.778       36.133     9168.660     2785.536     1305.582        1.641        0.663      139.714       44.312        0.101      333.590        3.004      854.290
01/30/2014  21:32:00     -121.844       25.609       -9.492       50.695       44.567       30.414     2569.973     1986.193      925.009        1.054        0.274      124.506       20.249        0.026      333.628        3.067      854.304
01/30/2014  21:33:00     -133.265       44.391       -6.802       76.016       47.871       40.056     5778.444     2291.673     1604.494        1.472        0.484      140.464       42.054        0.090      333.621        3.054      854.308
01/30/2014  21:34:00     -215.319      113.516      -39.448       92.056       65.677       48.379     8474.375     4313.528     2340.481        3.796        0.756      243.410       39.515        0.026      333.545        2.926      854.325
01/30/2014  21:35:00     -168.511       66.741      -47.280       69.000       67.555       41.416     4760.934     4563.645     1715.279        2.306        0.552      181.247       36.808        0.041      333.548        2.934      854.340
01/30/2014  21:36:00     -173.951       56.373      -15.937      105.231       83.593       48.570    11073.575     6987.842     2359.055        2.705        1.021      182.857       47.353        0.067      333.466        2.797      854.348
01/30/2014  21:37:00     -153.729       -3.204      -18.438      114.996       73.916       52.972    13223.999     5463.605     2806.070        2.273        1.075      153.763       59.270        0.149      333.458        2.783      854.354
01/30/2014  21:38:00     -143.083       12.261      -21.718      111.523       89.924       49.201    12437.475     8086.286     2420.751        2.202        1.147      143.607       49.247        0.118      333.491        2.837      854.346
01/30/2014  21:39:00     -146.019       46.638      -27.639       62.378       87.221       41.499     3891.047     7607.532     1722.148        1.874        0.661      153.287       46.095        0.090      333.456        2.781      854.359
01/30/2014  21:40:00     -119.591      -13.638       -5.058       36.780       47.378       34.800     1352.780     2244.682     1211.045        0.966        0.240      120.366       15.228        0.016      333.513        2.876      854.353
01/30/2014  21:41:00     -126.831      -50.275       -2.830       89.533       66.842       50.967     8016.187     4467.824     2597.593        1.685        0.754      136.433       50.943        0.139      333.490        2.836      854.362
01/30/2014  21:42:00      -62.461      -37.347       26.448       56.894       56.821       40.081     3236.932     3228.675     1606.516        0.703        0.404       72.774       28.335        0.152      333.504        2.860      854.375
01/30/2014  21:43:00     -144.054      -10.677      -18.237       75.960       80.729       48.232     5769.884     6517.207     2326.284        1.790        0.731      144.450       51.147        0.125      333.468        2.800      854.393
01/30/2014  21:44:00     -109.998       42.728      -16.634       57.714       96.155       41.145     3330.861     9245.792     1692.931        1.423        0.713      118.005       24.321        0.042      333.450        2.771      854.401
01/30/2014  21:45:00     -105.854       -3.552      -14.387       47.074       53.930       33.076     2215.929     2908.462     1093.992        0.882        0.311      105.914       13.076        0.015      333.454        2.779      854.402
01/30/2014  21:46:00      -78.502      -16.994        2.872       50.737       51.356       35.214     2574.233     2637.435     1240.037        0.645        0.323       80.320       21.020        0.068      333.526        2.897      854.380
01/30/2014  21:47:00     -105.355      -37.730        9.228       90.363       69.021       44.738     8165.474     4763.862     2001.480        1.377        0.747      111.907       39.739        0.126      333.516        2.881      854.379
01/30/2014  21:48:00     -163.811      -75.733      -13.371       73.251       68.632       39.123     5365.648     4710.418     1530.597        2.218        0.580      180.470       36.454        0.041      333.462        2.789      854.406
01/30/2014  21:49:00     -272.106     -108.569      -20.159      108.347       68.644       47.338    11738.994     4711.965     2240.867        5.246        0.935      292.966       41.861        0.020      333.483        2.824      854.409
01/30/2014  21:50:00     -291.293      -64.134       -5.317      177.577       65.391       60.375    31533.569     4275.944     3645.181        6.422        1.973      298.270       85.520        0.082      333.441        2.756      854.435
01/30/2014  21:51:00     -224.053      -13.623      -22.546       71.940       79.952       53.058     5175.340     6392.358     2815.137        3.264        0.719      224.467       36.517        0.026      333.502        2.854      854.442
01/30/2014  21:52:00     -257.368      -87.136      -23.124       93.067       75.483       46.771     8661.494     5697.721     2187.522        4.545        0.827      271.719       33.680        0.015      333.467        2.797      854.466
01/30/2014  21:53:00     -308.956      -95.362      -10.369       80.120       85.842       51.561     6419.192     7368.830     2658.519        6.055        0.822      323.338       43.562        0.018      333.405        2.696      854.470
01/30/2014  21:54:00     -231.446      -53.983      -20.922       91.301       72.268       50.783     8335.883     5222.603     2578.897        3.653        0.807      237.658       31.671        0.018      333.440        2.753      854.485
01/30/2014  21:55:00     -202.911      -62.252      -20.207      141.331       96.057       59.290    19974.534     9226.915     3515.254        3.908        1.636      212.245       49.688        0.055      333.417        2.716      854.486
01/30/2014  21:56:00     -234.841      -79.180      -13.049      124.333       98.899       69.186    15458.674     9781.012     4786.635        4.580        1.501      247.830       48.962        0.039      333.416        2.714      854.473
01/30/2014  21:57:00      -92.887      -53.986        9.240      110.905       66.303       48.544    12299.862     4396.130     2356.535        1.534        0.953      107.436       45.939        0.183      333.473        2.810      854.506
01/30/2014  21:58:00     -164.702      -45.911        2.721      124.212       83.347       51.411    15428.602     6946.674     2643.112        2.713        1.251      170.981       41.966        0.060      333.431        2.740      854.526
01/30/2014  21:59:00     -284.895      -92.611        8.254      137.037       93.447       54.903    18779.135     8732.295     3014.350        6.016        1.526      299.569       61.735        0.042      333.312        2.542      854.548
01/30/2014  22:00:00     -180.215      -76.954        3.061      135.244       79.232       61.686    18290.838     6277.681     3805.172        3.339        1.419      195.958       71.307        0.132      333.361        2.624      854.556
01/30/2014  22:01:00     -203.496      -67.265        6.089      108.081      103.224       54.920    11681.533    10655.230     3016.153        3.566        1.268      214.325       59.143        0.076      333.274        2.478      854.574
01/30/2014  22:02:00     -237.209     -117.447      -21.435      136.198       96.721       63.664    18550.017     9355.020     4053.075        5.123        1.598      264.692       64.947        0.060      333.257        2.451      854.554
01/30/2014  22:03:00     -261.255      -68.420      -11.455      135.626      117.158       78.552    18394.496    13726.071     6170.416        5.567        1.915      270.066       83.243        0.095      333.162        2.295      854.554
01/30/2014  22:04:00     -157.155      -83.090      -12.208      116.121       70.911       52.028    13484.028     5028.396     2706.963        2.648        1.061      177.769       55.743        0.098      333.204        2.363      854.555
01/30/2014  22:05:00     -294.678       16.427      -29.782       83.443       96.971       38.192     6962.777     9403.396     1458.617        5.291        0.891      295.135       38.116        0.017      333.174        2.311      854.549
01/30/2014  22:06:00     -139.694      -79.138        8.077      119.757      105.345       58.492    14341.796    11097.510     3421.284        2.735        1.443      160.553       63.455        0.156      333.243        2.428      854.536
01/30/2014  22:07:00     -117.441      -68.257        6.653       92.628       86.230       51.153     8579.995     7435.670     2616.604        1.856        0.932      135.836       53.858        0.157      333.191        2.342      854.542
01/30/2014  22:08:00     -104.469        9.580        0.199       72.236       39.320       29.351     5217.978     1546.069      861.490        0.931        0.381      104.907       36.740        0.123      333.185        2.334      854.547
01/30/2014  22:09:00     -314.586      -71.542       -9.956      133.951       91.765       47.869    17942.900     8420.767     2291.413        6.641        1.433      322.618       50.187        0.024      333.119        2.223      854.533
01/30/2014  22:10:00     -262.546       53.954      -18.911       88.936       72.065       45.709     7909.632     5193.343     2089.312        4.369        0.760      268.033       44.410        0.027      333.084        2.165      854.522
01/30/2014  22:11:00     -304.045     -107.373      -12.708      112.732       90.001       50.700    12708.596     8100.234     2570.444        6.375        1.169      322.448       41.415        0.016      333.061        2.126      854.521
01/30/2014  22:12:00     -270.671     -103.088      -17.046      101.259       67.106       43.710    10253.431     4503.281     1910.540        5.042        0.833      289.637       43.473        0.023      333.070        2.140      854.528
01/30/2014  22:13:00     -182.651     -134.313       -3.201       72.648       70.385       45.173     5277.720     4954.029     2040.558        3.184        0.614      226.719       35.290        0.024      333.086        2.169      854.516
01/30/2014  22:14:00      -87.726      -29.377        6.288       64.024       76.197       33.272     4099.048     5805.976     1107.032        0.980        0.551       92.514       38.584        0.174      333.145        2.267      854.518
01/30/2014  22:15:00     -221.601        0.257      -17.942      111.836       70.792       34.445    12507.235     5011.496     1186.482        3.406        0.935      221.601       44.330        0.040      333.019        2.058      854.511
01/30/2014  22:16:00     -171.830      -39.748       -9.868       71.892       58.222       33.637     5168.464     3389.826     1131.422        2.044        0.484      176.367       42.266        0.057      333.071        2.145      854.505
01/30/2014  22:17:00     -110.460      -78.817        8.320       91.749       65.280       41.443     8417.856     4261.522     1717.559        1.644        0.720      135.696       41.770        0.095      333.134        2.249      854.509
01/30/2014  22:18:00     -301.957      -84.879      -14.051      138.500      122.230       61.624    19182.156    14940.177     3797.565        6.824        1.896      313.660       72.456        0.053      332.992        2.013      854.504
01/30/2014  22:19:00     -240.024      -47.654       -4.595      104.454       81.378       47.826    10910.538     6622.427     2287.340        3.986        0.991      244.709       55.050        0.051      332.958        1.955      854.527
01/30/2014  22:20:00     -160.642      -57.313        7.748       68.284       76.502       38.874     4662.639     5852.625     1511.224        2.059        0.601      170.560       36.495        0.046      332.980        1.994      854.538
01/30/2014  22:21:00     -212.968      -22.338      -19.727      125.594       79.506       38.689    15773.971     6321.128     1496.845        3.491        1.180      214.136       50.854        0.056      332.955        1.953      854.546
01/30/2014  22:22:00     -312.173      -44.097      -17.264      114.229       88.036       53.539    13048.208     7750.420     2866.460        6.168        1.183      315.272       60.791        0.037      332.920        1.893      854.554
01/30/2014  22:23:00     -254.154      -37.442      -16.478      149.828       84.290       42.145    22448.325     7104.723     1776.172        4.879        1.566      256.898       45.515        0.031      332.894        1.853      854.574
01/30/2014  22:24:00     -253.576     -104.237      -11.709       99.127       81.508       46.031     9826.074     6643.615     2118.874        4.694        0.929      274.164       36.840        0.018      332.907        1.872      854.573
01/30/2014  22:25:00     -205.972      -49.789       -0.403      115.012       70.156       47.040    13227.666     4921.866     2212.777        3.263        1.018      211.905       49.748        0.055      332.881        1.832      854.593
01/30/2014  22:26:00     -232.836        4.118      -16.515       98.492       55.154       33.689     9700.611     3041.926     1134.931        3.419        0.694      232.873       38.020        0.027      332.893        1.848      854.600
01/30/2014  22:27:00     -151.817      -58.192       -1.971      101.558       79.062       34.830    10313.949     6250.812     1213.108        2.211        0.889      162.587       35.754        0.048      332.906        1.871      854.608
01/30/2014  22:28:00      -87.452       24.285       -4.415       45.012       40.122       24.720     2026.062     1609.763      611.094        0.625        0.212       90.762       13.794        0.023      332.946        1.939      854.623
01/30/2014  22:29:00     -233.501      -38.194        7.686      117.593      100.294       51.953    13828.169    10058.947     2699.063        4.131        1.329      236.604       58.184        0.060      332.917        1.888      854.626
01/30/2014  22:30:00     -199.559      -50.197       -1.856       65.574       69.655       41.830     4299.936     4851.836     1749.708        2.662        0.545      205.775       31.302        0.023      332.908        1.874      854.647
01/30/2014  22:31:00     -204.468      -28.129       -7.230      105.662       68.834       44.392    11164.424     4738.141     1970.691        3.026        0.894      206.394       44.703        0.047      332.875        1.821      854.648
01/30/2014  22:32:00     -259.701      -90.554       -5.494       84.728       55.805       37.854     7178.753     3114.253     1432.949        4.370        0.586      275.035       34.342        0.016      332.888        1.838      854.663
01/30/2014  22:33:00     -255.937      -93.368      -16.761       71.195       69.007       38.205     5068.680     4761.987     1459.647        4.289        0.565      272.437       33.274        0.015      332.864        1.802      854.669
01/30/2014  22:34:00     -238.214      -85.757       -2.546       78.417       62.674       42.272     6149.234     3928.026     1786.907        3.798        0.593      253.180       37.024        0.021      332.858        1.791      854.673
01/30/2014  22:35:00     -172.707      -19.420      -16.061       55.648       76.462       34.448     3096.725     5846.412     1186.632        2.029        0.506      173.795       25.267        0.021      332.863        1.802      854.672
01/30/2014  22:36:00      -61.377      -15.625        1.908       62.913       39.781       26.200     3958.087     1582.534      686.460        0.512        0.311       63.334       10.997        0.030      333.005        2.038      854.666
01/30/2014  22:37:00     -175.773       -7.818      -16.551       54.660       33.812       23.551     2987.755     1143.269      554.672        1.796        0.234      175.947       16.741        0.009      332.863        1.804      854.663
01/30/2014  22:38:00     -129.356      -45.181       -4.981       29.935       47.193       26.040      896.133     2227.160      678.076        1.130        0.190      137.020       17.403        0.016      332.873        1.819      854.658
01/30/2014  22:39:00      -75.850      -33.005        6.285       57.296       35.781       26.707     3282.810     1280.279      713.274        0.608        0.264       82.720       28.721        0.121      332.930        1.913      854.661
01/30/2014  22:40:00     -190.377       27.154      -14.816      116.411       62.895       30.074    13551.619     3955.741      904.419        2.780        0.921      192.303       37.204        0.037      332.842        1.768      854.667
01/30/2014  22:41:00     -246.110      -52.419      -19.327       90.283       70.397       38.248     8151.027     4955.807     1462.933        3.913        0.728      251.630       43.245        0.030      332.844        1.768      854.669
01/30/2014  22:42:00     -195.744      -69.746       -6.829       82.469       65.126       31.020     6801.189     4241.382      962.236        2.761        0.600      207.799       37.207        0.032      332.851        1.780      854.670
01/30/2014  22:43:00     -197.010      -73.180      -11.860       56.958       40.564       26.434     3244.204     1645.460      698.760        2.495        0.279      210.162       24.569        0.014      332.833        1.752      854.666
01/30/2014  22:44:00     -140.123      -13.086      -14.005       45.249       49.485       33.067     2047.450     2448.737     1093.411        1.279        0.279      140.733       27.900        0.039      332.813        1.720      854.656
01/30/2014  22:45:00      -54.410      -20.194        7.603       44.092       41.327       26.920     1944.101     1707.930      724.678        0.390        0.219       58.037       23.524        0.164      332.920        1.897      854.647
01/30/2014  22:46:00     -126.480       -1.203      -15.210       29.835       36.979       19.217      890.136     1367.426      369.311        0.943        0.131      126.486       15.199        0.014      332.813        1.722      854.632
01/30/2014  22:47:00      -60.581       66.828       -8.677       45.068       26.746       25.658     2031.128      715.365      658.338        0.581        0.170       90.200       24.255        0.072      332.905        1.871      854.644
01/30/2014  22:48:00      -56.313       61.512       -8.925       55.838       43.608       25.038     3117.875     1901.622      626.913        0.634        0.282       83.396       30.363        0.133      332.837        1.761      854.626
01/30/2014  22:49:00      -30.679       59.456       -3.688       36.898       41.223       21.454     1361.438     1699.375      460.290        0.400        0.176       66.905       20.935        0.098      332.933        1.919      854.609
01/30/2014  22:50:00      -36.030       70.798      -10.833       40.271       36.814       20.469     1621.775     1355.250      418.989        0.491        0.170       79.439       17.823        0.050      332.993        2.017      854.597
01/30/2014  22:51:00      -46.087       56.689      -15.451       32.494       47.261       22.133     1055.877     2233.576      489.867        0.468        0.189       73.060       17.173        0.055      332.946        1.939      854.592
01/30/2014  22:52:00      -61.901       71.158      -16.244       28.236       32.127       18.819      797.283     1032.119      354.172        0.567        0.109       94.314       14.590        0.024      332.992        2.015      854.600
01/30/2014  22:53:00      -56.764       89.656      -17.476       43.367       33.230       21.944     1880.660     1104.220      481.531        0.752        0.173      106.115       15.921        0.023      332.918        1.893      854.596
01/30/2014  22:54:00      -35.264       64.921       -6.547       33.374       43.260       25.753     1113.802     1871.450      663.242        0.457        0.182       73.880       27.006        0.134      332.849        1.780      854.582
01/30/2014  22:55:00       15.011       42.768       12.673       37.939       50.462       35.733     1439.402     2546.446     1276.878        0.374        0.263       45.326       34.709        0.586      332.946        1.940      854.559
01/30/2014  22:56:00       37.067       63.758       -7.423       39.557       51.704       27.930     1564.782     2673.261      780.106        0.526        0.251       73.750       31.155        0.178      332.797        1.694      854.539
01/30/2014  22:57:00       16.082      150.429      -21.927       37.597       41.264       21.543     1413.543     1702.735      464.092        1.347        0.179      151.286       22.939        0.023      332.753        1.620      854.551
01/30/2014  22:58:00       -7.982       82.550       -3.105       26.701       40.855       24.500      712.922     1669.104      600.258        0.493        0.149       82.935       26.630        0.103      332.914        1.887      854.559
01/30/2014  22:59:00        7.063       63.953       -4.064       41.985       58.393       22.733     1762.746     3409.717      516.808        0.492        0.284       64.341       26.460        0.169      332.829        1.748      854.568
01/30/2014  23:00:00        4.119      133.099      -18.907       20.348       49.484       21.939      414.028     2448.644      481.304        1.072        0.167      133.163       25.186        0.036      332.808        1.712      854.576
01/30/2014  23:01:00       11.238      126.826       -7.184       40.124       49.912       32.524     1609.914     2491.254     1057.819        1.071        0.258      127.323       28.729        0.051      332.822        1.734      854.572
01/30/2014  23:02:00       32.304      107.956       -1.379       52.102       56.788       37.420     2714.660     3224.873     1400.227        1.002        0.367      112.686       36.568        0.105      332.778        1.662      854.557
01/30/2014  23:03:00       35.492      137.251       -7.967       44.749       64.727       46.314     2002.514     4189.533     2145.027        1.425        0.417      141.766       43.059        0.092      332.708        1.545      854.556
01/30/2014  23:04:00       38.021      129.533      -18.490       35.678       51.250       29.467     1272.884     2626.608      868.301        1.167        0.238      134.998       27.577        0.042      332.685        1.508      854.565
01/30/2014  23:05:00       47.154      102.124      -11.501       32.790       70.674       36.347     1075.163     4994.868     1321.078        1.009        0.370      112.484       40.409        0.129      332.685        1.509      854.578
01/30/2014  23:06:00       40.000       93.344        2.388       42.318       62.173       39.432     1790.830     3865.512     1554.871        0.876        0.361      101.554       36.799        0.131      332.711        1.551      854.589
01/30/2014  23:07:00       30.352       84.753        1.291       33.435       48.534       31.587     1117.873     2355.512      997.716        0.629        0.224       90.024       28.834        0.103      332.707        1.546      854.595
01/30/2014  23:08:00       27.321       82.235       -6.822       34.597       53.211       28.607     1196.982     2831.406      818.373        0.620        0.242       86.655       30.320        0.122      332.716        1.560      854.588
01/30/2014  23:09:00       45.241       89.675      -10.746       46.626       55.232       29.846     2173.939     3050.578      890.779        0.816        0.306      100.441       32.825        0.107      332.760        1.633      854.589
01/30/2014  23:10:00       26.255       85.512       -6.091       36.005       52.192       35.023     1296.392     2723.985     1226.634        0.664        0.262       89.451       30.146        0.114      332.797        1.692      854.584
01/30/2014  23:11:00       40.353      136.957      -15.662       41.849       51.961       31.510     1751.341     2699.905      992.869        1.304        0.272      142.778       26.746        0.035      332.792        1.685      854.575
01/30/2014  23:12:00      -18.801      134.571      -16.165       51.247      100.532       33.479     2626.250    10106.726     1120.843        1.629        0.693      135.878       47.013        0.120      332.898        1.858      854.568
01/30/2014  23:13:00      -29.667      217.867      -25.737       33.963       60.631       24.703     1153.503     3676.175      610.214        2.722        0.272      219.878       24.428        0.012      332.958        1.955      854.562
01/30/2014  23:14:00      -15.884      156.113       -8.346       51.116       73.608       36.926     2612.864     5418.123     1363.498        1.704        0.470      156.919       42.142        0.072      332.970        1.978      854.561
01/30/2014  23:15:00      -63.310      107.364      -19.609       64.924       44.838       27.192     4215.091     2010.445      739.396        1.144        0.348      124.640       19.811        0.025      333.001        2.029      854.564
01/30/2014  23:16:00      -28.872      180.677      -18.218       48.240       69.091       33.338     2327.111     4773.500     1111.450        2.101        0.411      182.970       30.015        0.027      333.047        2.106      854.562
01/30/2014  23:17:00      -23.997      235.948      -25.137       38.831       75.898       32.224     1507.854     5760.470     1038.392        3.259        0.415      237.165       29.651        0.016      332.928        1.907      854.550
01/30/2014  23:18:00      -13.070      249.234      -31.440       45.508       71.114       23.959     2070.962     5057.259      574.023        3.549        0.385      249.577       22.836        0.008      332.886        1.838      854.535
01/30/2014  23:19:00       20.889      151.624      -18.930       46.786       66.104       39.287     2188.890     4369.741     1543.460        1.594        0.405      153.056       36.924        0.058      332.865        1.805      854.526
01/30/2014  23:20:00      -20.682      176.563       -9.879       59.486       49.099       39.612     3538.555     2410.740     1569.102        1.961        0.376      177.770       29.661        0.028      332.939        1.927      854.511
01/30/2014  23:21:00        8.471      230.405      -29.513       53.897       74.645       40.116     2904.904     5571.912     1609.313        3.206        0.504      230.561       35.881        0.024      332.887        1.840      854.502
01/30/2014  23:22:00      -56.318      273.745      -36.044       42.460       75.810       34.395     1802.892     5747.099     1183.048        4.407        0.437      279.479       33.648        0.014      332.927        1.905      854.489
01/30/2014  23:23:00      -62.791      290.818      -36.976       45.729       59.440       30.399     2091.172     3533.081      924.117        4.822        0.327      297.519       23.286        0.006      332.874        1.815      854.474
01/30/2014  23:24:00     -114.051      274.132      -36.010       64.467       67.508       40.861     4155.955     4557.273     1669.644        4.992        0.519      296.911       25.168        0.007      333.008        2.037      854.479
01/30/2014  23:25:00     -104.157      169.002      -30.068       59.158       63.254       35.940     3499.719     4001.046     1291.714        2.455        0.440      198.520       28.262        0.020      333.049        2.107      854.472
01/30/2014  23:26:00      -56.306      189.842      -13.864       41.010       86.041       36.847     1681.786     7403.028     1357.712        2.492        0.522      198.016       35.429        0.032      333.078        2.157      854.478
01/30/2014  23:27:00      -45.133      153.279       -6.489       59.975       68.410       43.107     3596.977     4679.897     1858.205        1.785        0.507      159.786       44.986        0.079      333.080        2.159      854.474
01/30/2014  23:28:00      -62.010      170.333      -20.171       37.581       62.692       32.753     1412.311     3930.324     1072.777        1.984        0.321      181.269       33.645        0.034      333.016        2.053      854.471
01/30/2014  23:29:00      -55.620      151.960      -16.557       49.521       71.451       37.393     2452.339     5105.269     1398.251        1.771        0.448      161.820       34.856        0.046      333.079        2.157      854.467
01/30/2014  23:30:00      -72.426      147.802      -18.623       48.979       74.017       35.115     2398.899     5478.566     1233.049        1.827        0.456      164.593       35.015        0.045      333.100        2.192      854.462
01/30/2014  23:31:00      -70.795      118.470      -11.085       57.454       49.734       34.125     3300.925     2473.512     1164.530        1.305        0.347      138.011       26.604        0.037      333.059        2.127      854.458
01/30/2014  23:32:00      -65.750       91.411      -28.003       44.355       32.807       21.985     1967.336     1076.320      483.355        0.849        0.176      112.601       18.241        0.026      333.020        2.062      854.470
01/30/2014  23:33:00      -34.656       87.831       -0.020       38.496       54.047       30.661     1481.916     2921.120      940.099        0.713        0.267       94.422       28.413        0.091      333.163        2.298      854.460
01/30/2014  23:34:00      -61.183      159.973      -19.568       35.191       42.424       24.662     1238.407     1799.813      608.236        1.668        0.182      171.274       21.248        0.015      333.209        2.375      854.452
01/30/2014  23:35:00      -55.136      135.006      -18.875       45.658       55.217       29.207     2084.681     3048.946      853.027        1.380        0.299      145.831       22.422        0.024      333.189        2.340      854.434
01/30/2014  23:36:00      -23.456      129.635      -11.040       38.126       93.330       32.402     1453.578     8710.540     1049.884        1.434        0.561      131.740       42.144        0.102      333.198        2.353      854.425
01/30/2014  23:37:00      -71.438      173.215      -20.858       44.998       58.683       30.406     2024.858     3443.702      924.516        2.097        0.320      187.368       29.681        0.025      333.254        2.445      854.432
01/30/2014  23:38:00      -73.904      139.079      -15.797       54.048       61.472       32.831     2921.167     3778.794     1077.851        1.641        0.389      157.496       28.645        0.033      333.297        2.518      854.439
01/30/2014  23:39:00      -65.080      201.427      -29.671       48.052       73.758       31.864     2309.031     5440.194     1015.318        2.723        0.438      211.679       33.650        0.025      333.261        2.456      854.432
01/30/2014  23:40:00      -49.161      116.687      -16.638       40.141       75.610       26.240     1611.306     5716.815      688.560        1.216        0.401      126.620       28.189        0.050      333.378        2.652      854.422
01/30/2014  23:41:00      -49.430      127.400      -10.149       48.894       82.666       38.861     2390.656     6833.746     1510.159        1.475        0.537      136.654       35.438        0.067      333.288        2.503      854.414
01/30/2014  23:42:00      -24.339      198.566      -21.611       52.262       53.387       30.156     2731.349     2850.147      909.399        2.349        0.325      200.052       27.316        0.019      333.175        2.317      854.402
01/30/2014  23:43:00       -7.359      159.233      -13.438       50.476       72.356       27.895     2547.786     5235.382      778.131        1.707        0.428      159.402       32.945        0.043      333.136        2.252      854.387
01/30/2014  23:44:00      -60.772      110.528      -13.669       36.808       87.825       31.815     1354.828     7713.270     1012.196        1.309        0.504      126.134       44.666        0.125      333.257        2.452      854.385
01/30/2014  23:45:00      -32.845       95.556      -10.440       41.080       64.496       30.669     1687.534     4159.710      940.603        0.855        0.339      101.043       29.281        0.084      333.251        2.442      854.375
01/30/2014  23:46:00       16.688       69.922      -14.266       28.504       36.660       24.829      812.489     1343.961      616.502        0.407        0.139       71.886       26.397        0.135      333.075        2.153      854.372
01/30/2014  23:47:00       36.568      100.165      -15.077       40.291       47.549       31.282     1623.354     2260.932      978.564        0.823        0.243      106.632       31.261        0.086      332.999        2.026      854.367
01/30/2014  23:48:00       13.988      102.483       -2.910       46.570       41.007       31.580     2168.787     1681.548      997.306        0.778        0.242      103.434       28.078        0.074      332.979        1.994      854.357
01/30/2014  23:49:00      -34.788      118.485       -8.260       38.225       59.964       36.235     1461.133     3595.688     1313.008        1.084        0.318      123.487       32.467        0.069      333.152        2.279      854.377
01/30/2014  23:50:00      -61.083        9.971       -3.907       37.534       68.664       22.620     1408.764     4714.685      511.671        0.524        0.332       61.892       20.764        0.113      333.206        2.369      854.384
01/30/2014  23:51:00      -16.281       15.074       14.302       20.704       20.609       17.298      428.660      424.731      299.214        0.092        0.058       22.187       13.823        0.388      333.284        2.496      854.399
01/30/2014  23:52:00      -70.482       75.544      -14.585       44.773       82.545       33.222     2004.632     6813.690     1103.723        1.040        0.496      103.318       41.132        0.158      333.235        2.415      854.421
01/30/2014  23:53:00      -82.815       87.829      -13.165       27.346       50.687       22.909      747.777     2569.208      524.826        0.929        0.192      120.716       16.373        0.018      333.226        2.401      854.438
01/30/2014  23:54:00      -66.895       61.840      -26.177       45.020       56.519       25.244     2026.825     3194.382      637.266        0.742        0.293       91.100       20.397        0.050      333.228        2.404      854.446
01/30/2014  23:55:00     -101.800      -17.259       -5.301       36.291       57.269       28.940     1317.035     3279.766      837.498        0.806        0.272      103.253       10.718        0.011      333.276        2.484      854.444
01/30/2014  23:56:00      -64.898       67.030       -8.795       41.694       66.678       31.837     1738.377     4446.006     1013.622        0.799        0.360       93.299       30.890        0.110      333.290        2.508      854.451
01/30/2014  23:57:00      -43.902       30.026      -10.977       31.932       61.820       38.154     1019.648     3821.694     1455.758        0.462        0.315       53.188       22.260        0.175      333.309        2.538      854.452
01/30/2014  23:58:00     -118.336       36.412      -19.029       73.553       40.043       31.813     5410.081     1603.455     1012.037        1.186        0.401      123.812       20.005        0.026      333.315        2.549      854.451
01/30/2014  23:59:00     -153.741       62.134      -26.733       88.245       76.063       54.859     7787.138     5785.649     3009.461        2.239        0.829      165.822       46.461        0.079      333.265        2.466      854.460
